﻿<?xml version="1.0" encoding="utf-8"?><gpx creator="Garmin Desktop App" version="1.1" xsi:schemaLocation="http://www.topografix.com/GPX/1/1 http://www.topografix.com/GPX/1/1/gpx.xsd http://www.garmin.com/xmlschemas/WaypointExtension/v1 http://www8.garmin.com/xmlschemas/WaypointExtensionv1.xsd http://www.garmin.com/xmlschemas/TrackPointExtension/v1 http://www.garmin.com/xmlschemas/TrackPointExtensionv1.xsd http://www.garmin.com/xmlschemas/GpxExtensions/v3 http://www8.garmin.com/xmlschemas/GpxExtensionsv3.xsd http://www.garmin.com/xmlschemas/ActivityExtension/v1 http://www8.garmin.com/xmlschemas/ActivityExtensionv1.xsd http://www.garmin.com/xmlschemas/AdventuresExtensions/v1 http://www8.garmin.com/xmlschemas/AdventuresExtensionv1.xsd http://www.garmin.com/xmlschemas/PressureExtension/v1 http://www.garmin.com/xmlschemas/PressureExtensionv1.xsd http://www.garmin.com/xmlschemas/TripExtensions/v1 http://www.garmin.com/xmlschemas/TripExtensionsv1.xsd" xmlns="http://www.topografix.com/GPX/1/1" xmlns:xsi="http://www.w3.org/2001/XMLSchema-instance" xmlns:wptx1="http://www.garmin.com/xmlschemas/WaypointExtension/v1" xmlns:gpxtrx="http://www.garmin.com/xmlschemas/GpxExtensions/v3" xmlns:gpxtpx="http://www.garmin.com/xmlschemas/TrackPointExtension/v1" xmlns:gpxx="http://www.garmin.com/xmlschemas/GpxExtensions/v3" xmlns:trp="http://www.garmin.com/xmlschemas/TripExtensions/v1" xmlns:adv="http://www.garmin.com/xmlschemas/AdventuresExtensions/v1" xmlns:prs="http://www.garmin.com/xmlschemas/PressureExtension/v1">

  <metadata>
    <link href="http://www.garmin.com">
      <text>Garmin International</text>
    </link>
    <time>2013-06-18T10:23:08Z</time>
    <bounds maxlat="38.092142259702086" maxlon="-2.617214731872082" minlat="37.937300009652972" minlon="-2.713665040209889" />
  </metadata>

  <trk>
    <name>2013-04-13 1238__20130413_1238_unified</name>
    <desc>&lt;h1&gt;OruxMaps&lt;/h1&gt;&lt;br /&gt;&lt;hr align="center" width="480" style="height: 2px; width: 517px"/&gt;&lt;h2&gt;Nombre: 2013-04-13 12:38&lt;/h2&gt;&lt;br /&gt;&lt;p&gt;Hora Inicio: 04/13/2013 12:38&lt;/p&gt;&lt;p&gt;Hora Fin: 04/13/2013 15:23&lt;/p&gt;&lt;p&gt;Distancia recorrida: 31,1 km (02:46)&lt;/p&gt;&lt;p&gt;Tiempo en movimiento: 02:06&lt;/p&gt;&lt;p&gt;Velocidad media: 11,2 km/h&lt;/p&gt;&lt;p&gt;Vel. en Mov.: 14,8 km/h&lt;/p&gt;&lt;p&gt;Velocidad Máxima: 51,1 km/h&lt;/p&gt;&lt;p&gt;Altura Mínima: 1141 m&lt;/p&gt;&lt;p&gt;Altura Máxima: 1810 m&lt;/p&gt;&lt;p&gt;Velocidad Ascenso: 1075 m/h&lt;/p&gt;&lt;p&gt;Velocidad Descenso: -943,2 m/h&lt;/p&gt;&lt;p&gt;Ganancia Altitud: 1011 m&lt;/p&gt;&lt;p&gt;Pérdida Altitud: -547 m&lt;/p&gt;&lt;p&gt;Tiempo Ascenso: 00:56&lt;/p&gt;&lt;p&gt;Tiempo Descenso: 00:34&lt;/p&gt;&lt;hr align="center" width="480" style="height: 2px; width: 517px"/&gt;</desc>
    <extensions>
      <gpxx:TrackExtension>
        <gpxx:DisplayColor>DarkGray</gpxx:DisplayColor>
      </gpxx:TrackExtension>
    </extensions>
    <trkseg>
      <trkpt lat="37.937575690448284" lon="-2.617214731872082">
        <ele>1180.234375</ele>
      </trkpt>
      <trkpt lat="37.938083801418543" lon="-2.617825772613287">
        <ele>1180.1484375</ele>
      </trkpt>
      <trkpt lat="37.937938710674644" lon="-2.61813816614449">
        <ele>1179.48828125</ele>
      </trkpt>
      <trkpt lat="37.937678033486009" lon="-2.618303038179874">
        <ele>1144.2</ele>
        <time>2013-04-13T10:37:05Z</time>
      </trkpt>
      <trkpt lat="37.937500001862645" lon="-2.618346959352493">
        <ele>1144.5</ele>
        <time>2013-04-13T10:37:08Z</time>
      </trkpt>
      <trkpt lat="37.937354994937778" lon="-2.618485009297729">
        <ele>1145.0999999999999</ele>
        <time>2013-04-13T10:37:11Z</time>
      </trkpt>
      <trkpt lat="37.937300009652972" lon="-2.618709979578853">
        <ele>1146.2</ele>
        <time>2013-04-13T10:37:14Z</time>
      </trkpt>
      <trkpt lat="37.93731702491641" lon="-2.618945008143783">
        <ele>1148.5</ele>
        <time>2013-04-13T10:37:17Z</time>
      </trkpt>
      <trkpt lat="37.937347032129765" lon="-2.619233010336757">
        <ele>1152.2</ele>
        <time>2013-04-13T10:37:21Z</time>
      </trkpt>
      <trkpt lat="37.93738299049437" lon="-2.619480025023222">
        <ele>1155.9000000000001</ele>
        <time>2013-04-13T10:37:25Z</time>
      </trkpt>
      <trkpt lat="37.937472006306052" lon="-2.619683034718037">
        <ele>1159.4000000000001</ele>
        <time>2013-04-13T10:37:30Z</time>
      </trkpt>
      <trkpt lat="37.937630005180836" lon="-2.619859976693988">
        <ele>1162.3</ele>
        <time>2013-04-13T10:37:35Z</time>
      </trkpt>
      <trkpt lat="37.937793033197522" lon="-2.620008001103997">
        <ele>1166.5</ele>
        <time>2013-04-13T10:37:39Z</time>
      </trkpt>
      <trkpt lat="37.937963018193841" lon="-2.620204975828528">
        <ele>1169.9000000000001</ele>
        <time>2013-04-13T10:37:43Z</time>
      </trkpt>
      <trkpt lat="37.938108025118709" lon="-2.620412008836865">
        <ele>1172.0999999999999</ele>
        <time>2013-04-13T10:37:46Z</time>
      </trkpt>
      <trkpt lat="37.938217995688319" lon="-2.620667992159724">
        <ele>1173.4000000000001</ele>
        <time>2013-04-13T10:37:49Z</time>
      </trkpt>
      <trkpt lat="37.938274992629886" lon="-2.620957000181079">
        <ele>1175.7</ele>
        <time>2013-04-13T10:37:52Z</time>
      </trkpt>
      <trkpt lat="37.938329977914691" lon="-2.621209966018796">
        <ele>1179.3</ele>
        <time>2013-04-13T10:37:55Z</time>
      </trkpt>
      <trkpt lat="37.938401978462934" lon="-2.621423033997417">
        <ele>1182.0999999999999</ele>
        <time>2013-04-13T10:37:58Z</time>
      </trkpt>
      <trkpt lat="37.938537010923028" lon="-2.621607016772032">
        <ele>1184</ele>
        <time>2013-04-13T10:38:01Z</time>
      </trkpt>
      <trkpt lat="37.938637007027864" lon="-2.621822012588382">
        <ele>1185.0999999999999</ele>
        <time>2013-04-13T10:38:04Z</time>
      </trkpt>
      <trkpt lat="37.938632983714342" lon="-2.622083025053144">
        <ele>1185.4000000000001</ele>
        <time>2013-04-13T10:38:07Z</time>
      </trkpt>
      <trkpt lat="37.938625020906329" lon="-2.622336996719241">
        <ele>1185.0999999999999</ele>
        <time>2013-04-13T10:38:10Z</time>
      </trkpt>
      <trkpt lat="37.938697021454573" lon="-2.622564984485507">
        <ele>1184.2</ele>
        <time>2013-04-13T10:38:13Z</time>
      </trkpt>
      <trkpt lat="37.938782013952732" lon="-2.622775034978986">
        <ele>1183.5</ele>
        <time>2013-04-13T10:38:16Z</time>
      </trkpt>
      <trkpt lat="37.938942024484277" lon="-2.62297997251153">
        <ele>1183.2</ele>
        <time>2013-04-13T10:38:20Z</time>
      </trkpt>
      <trkpt lat="37.93912298977375" lon="-2.623048033565283">
        <ele>1182.5999999999999</ele>
        <time>2013-04-13T10:38:23Z</time>
      </trkpt>
      <trkpt lat="37.939313007518649" lon="-2.623118022456765">
        <ele>1181.4000000000001</ele>
        <time>2013-04-13T10:38:26Z</time>
      </trkpt>
      <trkpt lat="37.939511993899941" lon="-2.62321500107646">
        <ele>1181.3</ele>
        <time>2013-04-13T10:38:29Z</time>
      </trkpt>
      <trkpt lat="37.939709974452853" lon="-2.623284989967942">
        <ele>1182.7</ele>
        <time>2013-04-13T10:38:32Z</time>
      </trkpt>
      <trkpt lat="37.93989303521812" lon="-2.623309968039393">
        <ele>1184.9000000000001</ele>
        <time>2013-04-13T10:38:35Z</time>
      </trkpt>
      <trkpt lat="37.940084980800748" lon="-2.623245008289814">
        <ele>1186</ele>
        <time>2013-04-13T10:38:38Z</time>
      </trkpt>
      <trkpt lat="37.940286984667182" lon="-2.623158004134893">
        <ele>1185.9000000000001</ele>
        <time>2013-04-13T10:38:41Z</time>
      </trkpt>
      <trkpt lat="37.940497035160661" lon="-2.623073011636734">
        <ele>1184.4000000000001</ele>
        <time>2013-04-13T10:38:44Z</time>
      </trkpt>
      <trkpt lat="37.940717982128263" lon="-2.623054990544915">
        <ele>1182.5</ele>
        <time>2013-04-13T10:38:47Z</time>
      </trkpt>
      <trkpt lat="37.940923003479838" lon="-2.623069994151592">
        <ele>1180.4000000000001</ele>
        <time>2013-04-13T10:38:50Z</time>
      </trkpt>
      <trkpt lat="37.941107992082834" lon="-2.623147023841739">
        <ele>1178.4000000000001</ele>
        <time>2013-04-13T10:38:54Z</time>
      </trkpt>
      <trkpt lat="37.941266996785998" lon="-2.623357996344566">
        <ele>1177.5</ele>
        <time>2013-04-13T10:38:58Z</time>
      </trkpt>
      <trkpt lat="37.941477969288826" lon="-2.623509960249066">
        <ele>1177.5999999999999</ele>
        <time>2013-04-13T10:39:02Z</time>
      </trkpt>
      <trkpt lat="37.941648038104177" lon="-2.623597970232368">
        <ele>1178.3</ele>
        <time>2013-04-13T10:39:05Z</time>
      </trkpt>
      <trkpt lat="37.941788015887141" lon="-2.623750017955899">
        <ele>1179.2</ele>
        <time>2013-04-13T10:39:08Z</time>
      </trkpt>
      <trkpt lat="37.941912990063429" lon="-2.623952021822333">
        <ele>1180.4000000000001</ele>
        <time>2013-04-13T10:39:11Z</time>
      </trkpt>
      <trkpt lat="37.942041987553239" lon="-2.624156959354878">
        <ele>1181.8</ele>
        <time>2013-04-13T10:39:14Z</time>
      </trkpt>
      <trkpt lat="37.942154975607991" lon="-2.624370027333498">
        <ele>1183.4000000000001</ele>
        <time>2013-04-13T10:39:17Z</time>
      </trkpt>
      <trkpt lat="37.942257989197969" lon="-2.624602038413286">
        <ele>1185.0999999999999</ele>
        <time>2013-04-13T10:39:20Z</time>
      </trkpt>
      <trkpt lat="37.942316997796297" lon="-2.624864978715777">
        <ele>1186.8</ele>
        <time>2013-04-13T10:39:23Z</time>
      </trkpt>
      <trkpt lat="37.942342981696129" lon="-2.625139988958836">
        <ele>1188</ele>
        <time>2013-04-13T10:39:26Z</time>
      </trkpt>
      <trkpt lat="37.942354967817664" lon="-2.625420028343797">
        <ele>1189.5999999999999</ele>
        <time>2013-04-13T10:39:29Z</time>
      </trkpt>
      <trkpt lat="37.942299982532859" lon="-2.625692021101713">
        <ele>1191.9000000000001</ele>
        <time>2013-04-13T10:39:32Z</time>
      </trkpt>
      <trkpt lat="37.942201998084784" lon="-2.625950016081333">
        <ele>1194.9000000000001</ele>
        <time>2013-04-13T10:39:35Z</time>
      </trkpt>
      <trkpt lat="37.942080041393638" lon="-2.626183032989502">
        <ele>1197.9000000000001</ele>
        <time>2013-04-13T10:39:38Z</time>
      </trkpt>
      <trkpt lat="37.941936962306499" lon="-2.626406997442246">
        <ele>1201</ele>
        <time>2013-04-13T10:39:41Z</time>
      </trkpt>
      <trkpt lat="37.941749962046742" lon="-2.626601960510016">
        <ele>1203</ele>
        <time>2013-04-13T10:39:44Z</time>
      </trkpt>
      <trkpt lat="37.941558016464114" lon="-2.626807987689972">
        <ele>1205.2</ele>
        <time>2013-04-13T10:39:47Z</time>
      </trkpt>
      <trkpt lat="37.94137797318399" lon="-2.627024995163083">
        <ele>1207.4000000000001</ele>
        <time>2013-04-13T10:39:50Z</time>
      </trkpt>
      <trkpt lat="37.941212011501193" lon="-2.627251977100968">
        <ele>1209.2</ele>
        <time>2013-04-13T10:39:53Z</time>
      </trkpt>
      <trkpt lat="37.941042026504874" lon="-2.627481976523995">
        <ele>1210.5</ele>
        <time>2013-04-13T10:39:56Z</time>
      </trkpt>
      <trkpt lat="37.94086298905313" lon="-2.627707030624151">
        <ele>1211.4000000000001</ele>
        <time>2013-04-13T10:39:59Z</time>
      </trkpt>
      <trkpt lat="37.940674982964993" lon="-2.627901993691921">
        <ele>1212.8</ele>
        <time>2013-04-13T10:40:02Z</time>
      </trkpt>
      <trkpt lat="37.940553026273847" lon="-2.628125036135316">
        <ele>1213.8</ele>
        <time>2013-04-13T10:40:05Z</time>
      </trkpt>
      <trkpt lat="37.940516984090209" lon="-2.628389988094568">
        <ele>1214.0999999999999</ele>
        <time>2013-04-13T10:40:08Z</time>
      </trkpt>
      <trkpt lat="37.940484965220094" lon="-2.628644965589047">
        <ele>1214.5999999999999</ele>
        <time>2013-04-13T10:40:12Z</time>
      </trkpt>
      <trkpt lat="37.940425034612417" lon="-2.628943026065826">
        <ele>1215.8</ele>
        <time>2013-04-13T10:40:16Z</time>
      </trkpt>
      <trkpt lat="37.940378012135625" lon="-2.629228010773659">
        <ele>1217.0999999999999</ele>
        <time>2013-04-13T10:40:19Z</time>
      </trkpt>
      <trkpt lat="37.940331995487213" lon="-2.629520036280155">
        <ele>1218.8</ele>
        <time>2013-04-13T10:40:22Z</time>
      </trkpt>
      <trkpt lat="37.940314980223775" lon="-2.629802003502846">
        <ele>1220.9000000000001</ele>
        <time>2013-04-13T10:40:25Z</time>
      </trkpt>
      <trkpt lat="37.94041195884347" lon="-2.630039965733886">
        <ele>1222.8</ele>
        <time>2013-04-13T10:40:28Z</time>
      </trkpt>
      <trkpt lat="37.940531987696886" lon="-2.630259990692139">
        <ele>1224</ele>
        <time>2013-04-13T10:40:31Z</time>
      </trkpt>
      <trkpt lat="37.940640030428767" lon="-2.630461994558573">
        <ele>1225.4000000000001</ele>
        <time>2013-04-13T10:40:34Z</time>
      </trkpt>
      <trkpt lat="37.940740026533604" lon="-2.630687970668078">
        <ele>1227.0999999999999</ele>
        <time>2013-04-13T10:40:37Z</time>
      </trkpt>
      <trkpt lat="37.940897019580007" lon="-2.630838006734848">
        <ele>1229.2</ele>
        <time>2013-04-13T10:40:40Z</time>
      </trkpt>
      <trkpt lat="37.941107992082834" lon="-2.630912018939853">
        <ele>1231.9000000000001</ele>
        <time>2013-04-13T10:40:43Z</time>
      </trkpt>
      <trkpt lat="37.941322987899184" lon="-2.630930040031672">
        <ele>1235.4000000000001</ele>
        <time>2013-04-13T10:40:46Z</time>
      </trkpt>
      <trkpt lat="37.941567990928888" lon="-2.630874970927835">
        <ele>1234.0999999999999</ele>
        <time>2013-04-13T10:40:49Z</time>
      </trkpt>
      <trkpt lat="37.941772006452084" lon="-2.630831971764565">
        <ele>1235.5</ele>
        <time>2013-04-13T10:40:52Z</time>
      </trkpt>
      <trkpt lat="37.941977027803659" lon="-2.630804982036352">
        <ele>1238.4000000000001</ele>
        <time>2013-04-13T10:40:55Z</time>
      </trkpt>
      <trkpt lat="37.942188000306487" lon="-2.630786960944533">
        <ele>1241.0999999999999</ele>
        <time>2013-04-13T10:40:58Z</time>
      </trkpt>
      <trkpt lat="37.942402996122837" lon="-2.630744967609644">
        <ele>1243.2</ele>
        <time>2013-04-13T10:41:01Z</time>
      </trkpt>
      <trkpt lat="37.942617991939187" lon="-2.63071202673018">
        <ele>1245.8</ele>
        <time>2013-04-13T10:41:04Z</time>
      </trkpt>
      <trkpt lat="37.942842962220311" lon="-2.630708003416657">
        <ele>1248</ele>
        <time>2013-04-13T10:41:07Z</time>
      </trkpt>
      <trkpt lat="37.943072039633989" lon="-2.63071496039629">
        <ele>1250</ele>
        <time>2013-04-13T10:41:10Z</time>
      </trkpt>
      <trkpt lat="37.943289969116449" lon="-2.630697023123503">
        <ele>1252.0999999999999</ele>
        <time>2013-04-13T10:41:13Z</time>
      </trkpt>
      <trkpt lat="37.943509994074702" lon="-2.630697023123503">
        <ele>1253.7</ele>
        <time>2013-04-13T10:41:16Z</time>
      </trkpt>
      <trkpt lat="37.943703029304743" lon="-2.630731975659728">
        <ele>1254.5</ele>
        <time>2013-04-13T10:41:19Z</time>
      </trkpt>
      <trkpt lat="37.943896986544132" lon="-2.630772963166237">
        <ele>1257.5</ele>
        <time>2013-04-13T10:41:22Z</time>
      </trkpt>
      <trkpt lat="37.944122040644288" lon="-2.630767012014985">
        <ele>1259</ele>
        <time>2013-04-13T10:41:25Z</time>
      </trkpt>
      <trkpt lat="37.944356985390186" lon="-2.630804982036352">
        <ele>1259.8</ele>
        <time>2013-04-13T10:41:28Z</time>
      </trkpt>
      <trkpt lat="37.944584973156452" lon="-2.63084203004837">
        <ele>1260.3</ele>
        <time>2013-04-13T10:41:31Z</time>
      </trkpt>
      <trkpt lat="37.944812960922718" lon="-2.630858039483428">
        <ele>1261.3</ele>
        <time>2013-04-13T10:41:34Z</time>
      </trkpt>
      <trkpt lat="37.945023011416197" lon="-2.630868013948202">
        <ele>1263.5</ele>
        <time>2013-04-13T10:41:37Z</time>
      </trkpt>
      <trkpt lat="37.945229960605502" lon="-2.630938002839685">
        <ele>1266.0999999999999</ele>
        <time>2013-04-13T10:41:40Z</time>
      </trkpt>
      <trkpt lat="37.945451997220516" lon="-2.631047973409295">
        <ele>1268.7</ele>
        <time>2013-04-13T10:41:43Z</time>
      </trkpt>
      <trkpt lat="37.945675039663911" lon="-2.631152998656035">
        <ele>1271.5999999999999</ele>
        <time>2013-04-13T10:41:46Z</time>
      </trkpt>
      <trkpt lat="37.94589196331799" lon="-2.631230028346181">
        <ele>1274.4000000000001</ele>
        <time>2013-04-13T10:41:49Z</time>
      </trkpt>
      <trkpt lat="37.946109976619482" lon="-2.631306974217296">
        <ele>1276.8</ele>
        <time>2013-04-13T10:41:52Z</time>
      </trkpt>
      <trkpt lat="37.946339976042509" lon="-2.631394984200597">
        <ele>1279.3</ele>
        <time>2013-04-13T10:41:55Z</time>
      </trkpt>
      <trkpt lat="37.9465770162642" lon="-2.631473019719124">
        <ele>1281.5</ele>
        <time>2013-04-13T10:41:58Z</time>
      </trkpt>
      <trkpt lat="37.946787988767028" lon="-2.63155298307538">
        <ele>1283.0999999999999</ele>
        <time>2013-04-13T10:42:01Z</time>
      </trkpt>
      <trkpt lat="37.946916986256838" lon="-2.631718022748828">
        <ele>1284.5999999999999</ele>
        <time>2013-04-13T10:42:04Z</time>
      </trkpt>
      <trkpt lat="37.94694297015667" lon="-2.631957996636629">
        <ele>1286.9000000000001</ele>
        <time>2013-04-13T10:42:08Z</time>
      </trkpt>
      <trkpt lat="37.946782959625125" lon="-2.632199982181191">
        <ele>1290.3</ele>
        <time>2013-04-13T10:42:12Z</time>
      </trkpt>
      <trkpt lat="37.946582967415452" lon="-2.632368039339781">
        <ele>1292.7</ele>
        <time>2013-04-13T10:42:15Z</time>
      </trkpt>
      <trkpt lat="37.946369983255863" lon="-2.632547998800874">
        <ele>1294.8</ele>
        <time>2013-04-13T10:42:18Z</time>
      </trkpt>
      <trkpt lat="37.946154987439513" lon="-2.632719995453954">
        <ele>1297</ele>
        <time>2013-04-13T10:42:21Z</time>
      </trkpt>
      <trkpt lat="37.945943009108305" lon="-2.632898027077317">
        <ele>1299</ele>
        <time>2013-04-13T10:42:24Z</time>
      </trkpt>
      <trkpt lat="37.94573999941349" lon="-2.633062982931733">
        <ele>1300.5999999999999</ele>
        <time>2013-04-13T10:42:27Z</time>
      </trkpt>
      <trkpt lat="37.94554797001183" lon="-2.6332270167768">
        <ele>1301.9000000000001</ele>
        <time>2013-04-13T10:42:30Z</time>
      </trkpt>
      <trkpt lat="37.945347977802157" lon="-2.6333980076015">
        <ele>1303.3</ele>
        <time>2013-04-13T10:42:33Z</time>
      </trkpt>
      <trkpt lat="37.945140022784472" lon="-2.633573021739721">
        <ele>1305</ele>
        <time>2013-04-13T10:42:36Z</time>
      </trkpt>
      <trkpt lat="37.944941958412528" lon="-2.633758010342717">
        <ele>1306.7</ele>
        <time>2013-04-13T10:42:39Z</time>
      </trkpt>
      <trkpt lat="37.9447500128299" lon="-2.6339350361377">
        <ele>1308.5</ele>
        <time>2013-04-13T10:42:42Z</time>
      </trkpt>
      <trkpt lat="37.944584973156452" lon="-2.63417299836874">
        <ele>1309.7</ele>
        <time>2013-04-13T10:42:45Z</time>
      </trkpt>
      <trkpt lat="37.944448012858629" lon="-2.634431999176741">
        <ele>1310.5</ele>
        <time>2013-04-13T10:42:48Z</time>
      </trkpt>
      <trkpt lat="37.944288002327085" lon="-2.634699968621135">
        <ele>1311.5999999999999</ele>
        <time>2013-04-13T10:42:51Z</time>
      </trkpt>
      <trkpt lat="37.944137966260314" lon="-2.634962992742658">
        <ele>1312.7</ele>
        <time>2013-04-13T10:42:54Z</time>
      </trkpt>
      <trkpt lat="37.943988014012575" lon="-2.635221993550658">
        <ele>1314.0999999999999</ele>
        <time>2013-04-13T10:42:57Z</time>
      </trkpt>
      <trkpt lat="37.943843007087708" lon="-2.635474959388375">
        <ele>1315.8</ele>
        <time>2013-04-13T10:43:00Z</time>
      </trkpt>
      <trkpt lat="37.943694982677698" lon="-2.635721974074841">
        <ele>1317.4000000000001</ele>
        <time>2013-04-13T10:43:03Z</time>
      </trkpt>
      <trkpt lat="37.943557016551495" lon="-2.635958008468151">
        <ele>1319</ele>
        <time>2013-04-13T10:43:06Z</time>
      </trkpt>
      <trkpt lat="37.943432964384556" lon="-2.636188007891178">
        <ele>1320.4000000000001</ele>
        <time>2013-04-13T10:43:09Z</time>
      </trkpt>
      <trkpt lat="37.943298015743494" lon="-2.636395040899515">
        <ele>1321.7</ele>
        <time>2013-04-13T10:43:12Z</time>
      </trkpt>
      <trkpt lat="37.9431820102036" lon="-2.636596960946918">
        <ele>1323.0999999999999</ele>
        <time>2013-04-13T10:43:15Z</time>
      </trkpt>
      <trkpt lat="37.943068016320467" lon="-2.636808017268777">
        <ele>1324.8</ele>
        <time>2013-04-13T10:43:18Z</time>
      </trkpt>
      <trkpt lat="37.942942036315799" lon="-2.637042040005326">
        <ele>1326.5</ele>
        <time>2013-04-13T10:43:21Z</time>
      </trkpt>
      <trkpt lat="37.942793006077409" lon="-2.637247983366251">
        <ele>1327.7</ele>
        <time>2013-04-13T10:43:24Z</time>
      </trkpt>
      <trkpt lat="37.942644981667399" lon="-2.637436995282769">
        <ele>1328.3</ele>
        <time>2013-04-13T10:43:27Z</time>
      </trkpt>
      <trkpt lat="37.942482959479094" lon="-2.637649979442358">
        <ele>1330.5999999999999</ele>
        <time>2013-04-13T10:43:30Z</time>
      </trkpt>
      <trkpt lat="37.942332001402974" lon="-2.637872016057372">
        <ele>1332.5</ele>
        <time>2013-04-13T10:43:33Z</time>
      </trkpt>
      <trkpt lat="37.942165033891797" lon="-2.63810696080327">
        <ele>1333.5999999999999</ele>
        <time>2013-04-13T10:43:36Z</time>
      </trkpt>
      <trkpt lat="37.941999994218349" lon="-2.638339977711439">
        <ele>1334.2</ele>
        <time>2013-04-13T10:43:39Z</time>
      </trkpt>
      <trkpt lat="37.941832020878792" lon="-2.638584980741143">
        <ele>1333.7</ele>
        <time>2013-04-13T10:43:40Z</time>
      </trkpt>
      <trkpt lat="37.941682990640402" lon="-2.638817997649312">
        <ele>1331.5</ele>
        <time>2013-04-13T10:43:43Z</time>
      </trkpt>
      <trkpt lat="37.941552987322211" lon="-2.638992005959153">
        <ele>1329.9000000000001</ele>
        <time>2013-04-13T10:43:46Z</time>
      </trkpt>
      <trkpt lat="37.941373027861118" lon="-2.639204990118742">
        <ele>1327.9000000000001</ele>
        <time>2013-04-13T10:43:50Z</time>
      </trkpt>
      <trkpt lat="37.941237995401025" lon="-2.639447981491685">
        <ele>1326.2</ele>
        <time>2013-04-13T10:43:53Z</time>
      </trkpt>
      <trkpt lat="37.941092988476157" lon="-2.63969499617815">
        <ele>1324.3</ele>
        <time>2013-04-13T10:43:56Z</time>
      </trkpt>
      <trkpt lat="37.940949993208051" lon="-2.63995198532939">
        <ele>1322.4000000000001</ele>
        <time>2013-04-13T10:43:59Z</time>
      </trkpt>
      <trkpt lat="37.940837005153298" lon="-2.640212997794151">
        <ele>1320.8</ele>
        <time>2013-04-13T10:44:02Z</time>
      </trkpt>
      <trkpt lat="37.940816972404718" lon="-2.640442997217178">
        <ele>1319.5999999999999</ele>
        <time>2013-04-13T10:44:05Z</time>
      </trkpt>
      <trkpt lat="37.941017970442772" lon="-2.640494965016842">
        <ele>1317.9000000000001</ele>
        <time>2013-04-13T10:44:12Z</time>
      </trkpt>
      <trkpt lat="37.941192984580994" lon="-2.640437968075275">
        <ele>1316.9000000000001</ele>
        <time>2013-04-13T10:44:15Z</time>
      </trkpt>
      <trkpt lat="37.941389959305525" lon="-2.640394968912005">
        <ele>1316.2</ele>
        <time>2013-04-13T10:44:18Z</time>
      </trkpt>
      <trkpt lat="37.941603027284145" lon="-2.640420030802488">
        <ele>1315.2</ele>
        <time>2013-04-13T10:44:21Z</time>
      </trkpt>
      <trkpt lat="37.941860016435385" lon="-2.640530001372099">
        <ele>1314.2</ele>
        <time>2013-04-13T10:44:24Z</time>
      </trkpt>
      <trkpt lat="37.942035030573606" lon="-2.640594961121678">
        <ele>1313.5999999999999</ele>
        <time>2013-04-13T10:44:26Z</time>
      </trkpt>
      <trkpt lat="37.942207027226686" lon="-2.640686994418502">
        <ele>1312.7</ele>
        <time>2013-04-13T10:44:28Z</time>
      </trkpt>
      <trkpt lat="37.942411964759231" lon="-2.640792019665241">
        <ele>1311.7</ele>
        <time>2013-04-13T10:44:31Z</time>
      </trkpt>
      <trkpt lat="37.94258002191782" lon="-2.640880029648542">
        <ele>1311</ele>
        <time>2013-04-13T10:44:35Z</time>
      </trkpt>
      <trkpt lat="37.942804992198944" lon="-2.640929985791445">
        <ele>1310.9000000000001</ele>
        <time>2013-04-13T10:44:39Z</time>
      </trkpt>
      <trkpt lat="37.943028034642339" lon="-2.641014978289604">
        <ele>1310.4000000000001</ele>
        <time>2013-04-13T10:44:42Z</time>
      </trkpt>
      <trkpt lat="37.943262979388237" lon="-2.641120003536344">
        <ele>1309.2</ele>
        <time>2013-04-13T10:44:45Z</time>
      </trkpt>
      <trkpt lat="37.943488033488393" lon="-2.641235003247857">
        <ele>1308.8</ele>
        <time>2013-04-13T10:44:48Z</time>
      </trkpt>
      <trkpt lat="37.943713003769517" lon="-2.641357965767384">
        <ele>1308.9000000000001</ele>
        <time>2013-04-13T10:44:51Z</time>
      </trkpt>
      <trkpt lat="37.943958006799221" lon="-2.641474977135658">
        <ele>1308.0999999999999</ele>
        <time>2013-04-13T10:44:54Z</time>
      </trkpt>
      <trkpt lat="37.94419202953577" lon="-2.641617972403765">
        <ele>1307</ele>
        <time>2013-04-13T10:44:57Z</time>
      </trkpt>
      <trkpt lat="37.944354973733425" lon="-2.641840009018779">
        <ele>1305.8</ele>
        <time>2013-04-13T10:45:00Z</time>
      </trkpt>
      <trkpt lat="37.944341981783509" lon="-2.642098003998399">
        <ele>1305.5</ele>
        <time>2013-04-13T10:45:03Z</time>
      </trkpt>
      <trkpt lat="37.944218013435602" lon="-2.642364967614412">
        <ele>1305.9000000000001</ele>
        <time>2013-04-13T10:45:06Z</time>
      </trkpt>
      <trkpt lat="37.944107037037611" lon="-2.64259303919971">
        <ele>1306.4000000000001</ele>
        <time>2013-04-13T10:45:10Z</time>
      </trkpt>
      <trkpt lat="37.944011986255646" lon="-2.642818009480834">
        <ele>1307.7</ele>
        <time>2013-04-13T10:45:14Z</time>
      </trkpt>
      <trkpt lat="37.943900004029274" lon="-2.64306703582406">
        <ele>1308.5</ele>
        <time>2013-04-13T10:45:17Z</time>
      </trkpt>
      <trkpt lat="37.943757008761168" lon="-2.643312960863113">
        <ele>1309.8</ele>
        <time>2013-04-13T10:45:20Z</time>
      </trkpt>
      <trkpt lat="37.943619964644313" lon="-2.64356299303472">
        <ele>1311.5</ele>
        <time>2013-04-13T10:45:23Z</time>
      </trkpt>
      <trkpt lat="37.943513011559844" lon="-2.643821993842721">
        <ele>1313.0999999999999</ele>
        <time>2013-04-13T10:45:26Z</time>
      </trkpt>
      <trkpt lat="37.943402035161853" lon="-2.644052999094129">
        <ele>1313.9000000000001</ele>
        <time>2013-04-13T10:45:29Z</time>
      </trkpt>
      <trkpt lat="37.943313019350171" lon="-2.64429003931582">
        <ele>1314.0999999999999</ele>
        <time>2013-04-13T10:45:32Z</time>
      </trkpt>
      <trkpt lat="37.943219980224967" lon="-2.644566977396607">
        <ele>1313.4000000000001</ele>
        <time>2013-04-13T10:45:35Z</time>
      </trkpt>
      <trkpt lat="37.943143034353852" lon="-2.644817009568214">
        <ele>1312.9000000000001</ele>
        <time>2013-04-13T10:45:38Z</time>
      </trkpt>
      <trkpt lat="37.943034991621971" lon="-2.645035022869706">
        <ele>1312.5999999999999</ele>
        <time>2013-04-13T10:45:41Z</time>
      </trkpt>
      <trkpt lat="37.942957039922476" lon="-2.645241972059012">
        <ele>1312.5999999999999</ele>
        <time>2013-04-13T10:45:45Z</time>
      </trkpt>
      <trkpt lat="37.943158037960529" lon="-2.645290000364184">
        <ele>1314.7</ele>
        <time>2013-04-13T10:46:39Z</time>
      </trkpt>
      <trkpt lat="37.943355012685061" lon="-2.645223028957844">
        <ele>1316.0999999999999</ele>
        <time>2013-04-13T10:46:43Z</time>
      </trkpt>
      <trkpt lat="37.943562967702746" lon="-2.645184975117445">
        <ele>1317.5999999999999</ele>
        <time>2013-04-13T10:46:46Z</time>
      </trkpt>
      <trkpt lat="37.943800007924438" lon="-2.645159997045994">
        <ele>1319.7</ele>
        <time>2013-04-13T10:46:49Z</time>
      </trkpt>
      <trkpt lat="37.944017015397549" lon="-2.645137030631304">
        <ele>1322.4000000000001</ele>
        <time>2013-04-13T10:46:52Z</time>
      </trkpt>
      <trkpt lat="37.944199992343783" lon="-2.64508699066937">
        <ele>1325.4000000000001</ele>
        <time>2013-04-13T10:46:55Z</time>
      </trkpt>
      <trkpt lat="37.944427980110049" lon="-2.645029993727803">
        <ele>1330.5999999999999</ele>
        <time>2013-04-13T10:46:59Z</time>
      </trkpt>
      <trkpt lat="37.944616992026567" lon="-2.644966961815953">
        <ele>1334.8</ele>
        <time>2013-04-13T10:47:02Z</time>
      </trkpt>
      <trkpt lat="37.944812038913369" lon="-2.644863026216626">
        <ele>1338.2</ele>
        <time>2013-04-13T10:47:05Z</time>
      </trkpt>
      <trkpt lat="37.945010019466281" lon="-2.644748026505113">
        <ele>1341.3</ele>
        <time>2013-04-13T10:47:08Z</time>
      </trkpt>
      <trkpt lat="37.945210011675954" lon="-2.64463503845036">
        <ele>1343.5999999999999</ele>
        <time>2013-04-13T10:47:11Z</time>
      </trkpt>
      <trkpt lat="37.945404974743724" lon="-2.644521966576576">
        <ele>1346</ele>
        <time>2013-04-13T10:47:14Z</time>
      </trkpt>
      <trkpt lat="37.945574959740043" lon="-2.644390035420656">
        <ele>1348.5999999999999</ele>
        <time>2013-04-13T10:47:17Z</time>
      </trkpt>
      <trkpt lat="37.94576003216207" lon="-2.644262965768576">
        <ele>1351.0999999999999</ele>
        <time>2013-04-13T10:47:20Z</time>
      </trkpt>
      <trkpt lat="37.945951977744699" lon="-2.644132962450385">
        <ele>1353.2</ele>
        <time>2013-04-13T10:47:23Z</time>
      </trkpt>
      <trkpt lat="37.946137972176075" lon="-2.643994996324182">
        <ele>1355.4000000000001</ele>
        <time>2013-04-13T10:47:26Z</time>
      </trkpt>
      <trkpt lat="37.946308040991426" lon="-2.643838003277779">
        <ele>1358</ele>
        <time>2013-04-13T10:47:29Z</time>
      </trkpt>
      <trkpt lat="37.94649001210928" lon="-2.643761979416013">
        <ele>1360.8</ele>
        <time>2013-04-13T10:47:32Z</time>
      </trkpt>
      <trkpt lat="37.946726968511939" lon="-2.643738007172942">
        <ele>1364.5</ele>
        <time>2013-04-13T10:47:36Z</time>
      </trkpt>
      <trkpt lat="37.946925032883883" lon="-2.643674975261092">
        <ele>1367.5999999999999</ele>
        <time>2013-04-13T10:47:39Z</time>
      </trkpt>
      <trkpt lat="37.947122007608414" lon="-2.643534997478128">
        <ele>1370.5999999999999</ele>
        <time>2013-04-13T10:47:42Z</time>
      </trkpt>
      <trkpt lat="37.947295010089874" lon="-2.643371969461441">
        <ele>1372.8</ele>
        <time>2013-04-13T10:47:45Z</time>
      </trkpt>
      <trkpt lat="37.947477987036109" lon="-2.643365012481809">
        <ele>1374.7</ele>
        <time>2013-04-13T10:47:48Z</time>
      </trkpt>
      <trkpt lat="37.947574965655804" lon="-2.643571961671114">
        <ele>1376.2</ele>
        <time>2013-04-13T10:47:51Z</time>
      </trkpt>
      <trkpt lat="37.947691977024078" lon="-2.643831968307495">
        <ele>1377.3</ele>
        <time>2013-04-13T10:47:54Z</time>
      </trkpt>
      <trkpt lat="37.947872020304203" lon="-2.644004970788956">
        <ele>1379.5999999999999</ele>
        <time>2013-04-13T10:47:57Z</time>
      </trkpt>
      <trkpt lat="37.948070000857115" lon="-2.644143020734191">
        <ele>1381.9000000000001</ele>
        <time>2013-04-13T10:48:00Z</time>
      </trkpt>
      <trkpt lat="37.948262030258775" lon="-2.644291967153549">
        <ele>1384.3</ele>
        <time>2013-04-13T10:48:03Z</time>
      </trkpt>
      <trkpt lat="37.948452970013022" lon="-2.644362039864063">
        <ele>1387.5999999999999</ele>
        <time>2013-04-13T10:48:06Z</time>
      </trkpt>
      <trkpt lat="37.948656985536218" lon="-2.644411996006966">
        <ele>1393.4000000000001</ele>
        <time>2013-04-13T10:48:12Z</time>
      </trkpt>
      <trkpt lat="37.948797969147563" lon="-2.644578041508794">
        <ele>1397.3</ele>
        <time>2013-04-13T10:48:17Z</time>
      </trkpt>
      <trkpt lat="37.948835017159581" lon="-2.644822960719466">
        <ele>1400.5999999999999</ele>
        <time>2013-04-13T10:48:22Z</time>
      </trkpt>
      <trkpt lat="37.948877010494471" lon="-2.645096965134144">
        <ele>1403</ele>
        <time>2013-04-13T10:48:26Z</time>
      </trkpt>
      <trkpt lat="37.948912968859076" lon="-2.64534498564899">
        <ele>1404.7</ele>
        <time>2013-04-13T10:48:29Z</time>
      </trkpt>
      <trkpt lat="37.948931995779276" lon="-2.645616978406906">
        <ele>1406.4000000000001</ele>
        <time>2013-04-13T10:48:32Z</time>
      </trkpt>
      <trkpt lat="37.948897965252399" lon="-2.645876985043287">
        <ele>1408.5999999999999</ele>
        <time>2013-04-13T10:48:35Z</time>
      </trkpt>
      <trkpt lat="37.948826970532537" lon="-2.646131962537766">
        <ele>1411.2</ele>
        <time>2013-04-13T10:48:38Z</time>
      </trkpt>
      <trkpt lat="37.948733009397984" lon="-2.64637797139585">
        <ele>1414.0999999999999</ele>
        <time>2013-04-13T10:48:41Z</time>
      </trkpt>
      <trkpt lat="37.948620021343231" lon="-2.646637978032231">
        <ele>1417.2</ele>
        <time>2013-04-13T10:48:44Z</time>
      </trkpt>
      <trkpt lat="37.948518013581634" lon="-2.6468900218606">
        <ele>1421.0999999999999</ele>
        <time>2013-04-13T10:48:47Z</time>
      </trkpt>
      <trkpt lat="37.948430003598332" lon="-2.647137958556414">
        <ele>1424.3</ele>
        <time>2013-04-13T10:48:50Z</time>
      </trkpt>
      <trkpt lat="37.94833998195827" lon="-2.647382961586118">
        <ele>1427.3</ele>
        <time>2013-04-13T10:48:53Z</time>
      </trkpt>
      <trkpt lat="37.948237974196672" lon="-2.647616984322667">
        <ele>1430.9000000000001</ele>
        <time>2013-04-13T10:48:56Z</time>
      </trkpt>
      <trkpt lat="37.948109982535243" lon="-2.647861987352371">
        <ele>1434.4000000000001</ele>
        <time>2013-04-13T10:48:59Z</time>
      </trkpt>
      <trkpt lat="37.947964975610375" lon="-2.648122999817133">
        <ele>1437.4000000000001</ele>
        <time>2013-04-13T10:49:02Z</time>
      </trkpt>
      <trkpt lat="37.947819968685508" lon="-2.648387029767036">
        <ele>1440.0999999999999</ele>
        <time>2013-04-13T10:49:05Z</time>
      </trkpt>
      <trkpt lat="37.947698011994362" lon="-2.648662962019444">
        <ele>1443.2</ele>
        <time>2013-04-13T10:49:08Z</time>
      </trkpt>
      <trkpt lat="37.947610002011061" lon="-2.648937972262502">
        <ele>1445.5999999999999</ele>
        <time>2013-04-13T10:49:11Z</time>
      </trkpt>
      <trkpt lat="37.947576977312565" lon="-2.649211976677179">
        <ele>1447.9000000000001</ele>
        <time>2013-04-13T10:49:14Z</time>
      </trkpt>
      <trkpt lat="37.947555016726255" lon="-2.649482041597366">
        <ele>1450.0999999999999</ele>
        <time>2013-04-13T10:49:17Z</time>
      </trkpt>
      <trkpt lat="37.947576977312565" lon="-2.649744981899858">
        <ele>1452.4000000000001</ele>
        <time>2013-04-13T10:49:20Z</time>
      </trkpt>
      <trkpt lat="37.947630034759641" lon="-2.650010017678142">
        <ele>1454.5999999999999</ele>
        <time>2013-04-13T10:49:23Z</time>
      </trkpt>
      <trkpt lat="37.947689965367317" lon="-2.650255020707846">
        <ele>1457.0999999999999</ele>
        <time>2013-04-13T10:49:26Z</time>
      </trkpt>
      <trkpt lat="37.947794990614057" lon="-2.650513015687466">
        <ele>1461.0999999999999</ele>
        <time>2013-04-13T10:49:30Z</time>
      </trkpt>
      <trkpt lat="37.948024990037084" lon="-2.65058996155858">
        <ele>1464.8</ele>
        <time>2013-04-13T10:49:34Z</time>
      </trkpt>
      <trkpt lat="37.948206961154938" lon="-2.650621980428696">
        <ele>1467.4000000000001</ele>
        <time>2013-04-13T10:49:37Z</time>
      </trkpt>
      <trkpt lat="37.948390021920204" lon="-2.650687023997307">
        <ele>1469.7</ele>
        <time>2013-04-13T10:49:40Z</time>
      </trkpt>
      <trkpt lat="37.948527988046408" lon="-2.650858014822006">
        <ele>1472</ele>
        <time>2013-04-13T10:49:43Z</time>
      </trkpt>
      <trkpt lat="37.948594959452748" lon="-2.651090025901794">
        <ele>1474</ele>
        <time>2013-04-13T10:49:46Z</time>
      </trkpt>
      <trkpt lat="37.948707025498152" lon="-2.651356989517808">
        <ele>1477.9000000000001</ele>
        <time>2013-04-13T10:49:49Z</time>
      </trkpt>
      <trkpt lat="37.948816996067762" lon="-2.65155497007072">
        <ele>1483.5</ele>
        <time>2013-04-13T10:49:52Z</time>
      </trkpt>
      <trkpt lat="37.948956973850727" lon="-2.651697965338826">
        <ele>1487.3</ele>
        <time>2013-04-13T10:49:55Z</time>
      </trkpt>
      <trkpt lat="37.949132993817329" lon="-2.651826962828636">
        <ele>1490.2</ele>
        <time>2013-04-13T10:49:58Z</time>
      </trkpt>
      <trkpt lat="37.949316976591945" lon="-2.651968030259013">
        <ele>1492.5</ele>
        <time>2013-04-13T10:50:01Z</time>
      </trkpt>
      <trkpt lat="37.949519986286759" lon="-2.65207196585834">
        <ele>1494.5</ele>
        <time>2013-04-13T10:50:04Z</time>
      </trkpt>
      <trkpt lat="37.949743028730154" lon="-2.652116976678371">
        <ele>1495.9000000000001</ele>
        <time>2013-04-13T10:50:07Z</time>
      </trkpt>
      <trkpt lat="37.949961964040995" lon="-2.65217799693346">
        <ele>1497.5999999999999</ele>
        <time>2013-04-13T10:50:10Z</time>
      </trkpt>
      <trkpt lat="37.950160028412938" lon="-2.652277993038297">
        <ele>1499.7</ele>
        <time>2013-04-13T10:50:13Z</time>
      </trkpt>
      <trkpt lat="37.950332025066018" lon="-2.652416964992881">
        <ele>1502.4000000000001</ele>
        <time>2013-04-13T10:50:16Z</time>
      </trkpt>
      <trkpt lat="37.950503015890718" lon="-2.652558032423258">
        <ele>1505.7</ele>
        <time>2013-04-13T10:50:19Z</time>
      </trkpt>
      <trkpt lat="37.950705019757152" lon="-2.652664985507727">
        <ele>1508.5</ele>
        <time>2013-04-13T10:50:22Z</time>
      </trkpt>
      <trkpt lat="37.950924960896373" lon="-2.652761964127421">
        <ele>1511.5</ele>
        <time>2013-04-13T10:50:25Z</time>
      </trkpt>
      <trkpt lat="37.951127970591187" lon="-2.652845028787851">
        <ele>1514.5</ele>
        <time>2013-04-13T10:50:28Z</time>
      </trkpt>
      <trkpt lat="37.951329974457622" lon="-2.65292800962925">
        <ele>1518.0999999999999</ele>
        <time>2013-04-13T10:50:31Z</time>
      </trkpt>
      <trkpt lat="37.951549999415874" lon="-2.652990035712719">
        <ele>1520.9000000000001</ele>
        <time>2013-04-13T10:50:34Z</time>
      </trkpt>
      <trkpt lat="37.951767006888986" lon="-2.653072010725737">
        <ele>1523.8</ele>
        <time>2013-04-13T10:50:37Z</time>
      </trkpt>
      <trkpt lat="37.951985020190477" lon="-2.653158009052277">
        <ele>1526.7</ele>
        <time>2013-04-13T10:50:40Z</time>
      </trkpt>
      <trkpt lat="37.95220797881484" lon="-2.653178041800857">
        <ele>1529.5</ele>
        <time>2013-04-13T10:50:43Z</time>
      </trkpt>
      <trkpt lat="37.952436972409487" lon="-2.653164966031909">
        <ele>1532.4000000000001</ele>
        <time>2013-04-13T10:50:46Z</time>
      </trkpt>
      <trkpt lat="37.95265699736774" lon="-2.653096988797188">
        <ele>1535.2</ele>
        <time>2013-04-13T10:50:49Z</time>
      </trkpt>
      <trkpt lat="37.952839974313974" lon="-2.653002021834254">
        <ele>1539.3</ele>
        <time>2013-04-13T10:50:52Z</time>
      </trkpt>
      <trkpt lat="37.953014988452196" lon="-2.652876963838935">
        <ele>1543.5</ele>
        <time>2013-04-13T10:50:55Z</time>
      </trkpt>
      <trkpt lat="37.953190002590418" lon="-2.652766993269324">
        <ele>1547</ele>
        <time>2013-04-13T10:50:58Z</time>
      </trkpt>
      <trkpt lat="37.953363005071878" lon="-2.652682000771165">
        <ele>1550.4000000000001</ele>
        <time>2013-04-13T10:51:02Z</time>
      </trkpt>
      <trkpt lat="37.953378008678555" lon="-2.652937984094024">
        <ele>1552.7</ele>
        <time>2013-04-13T10:51:11Z</time>
      </trkpt>
      <trkpt lat="37.953267032280564" lon="-2.653124984353781">
        <ele>1553</ele>
        <time>2013-04-13T10:51:14Z</time>
      </trkpt>
      <trkpt lat="37.95319302007556" lon="-2.653396977111697">
        <ele>1553.4000000000001</ele>
        <time>2013-04-13T10:51:17Z</time>
      </trkpt>
      <trkpt lat="37.95321699231863" lon="-2.6536800339818">
        <ele>1555.4000000000001</ele>
        <time>2013-04-13T10:51:20Z</time>
      </trkpt>
      <trkpt lat="37.95332201756537" lon="-2.653932999819517">
        <ele>1558.4000000000001</ele>
        <time>2013-04-13T10:51:23Z</time>
      </trkpt>
      <trkpt lat="37.953401980921626" lon="-2.654183031991124">
        <ele>1561.5</ele>
        <time>2013-04-13T10:51:26Z</time>
      </trkpt>
      <trkpt lat="37.953311959281564" lon="-2.654438009485602">
        <ele>1564.3</ele>
        <time>2013-04-13T10:51:29Z</time>
      </trkpt>
      <trkpt lat="37.953153038397431" lon="-2.654673038050532">
        <ele>1566.8</ele>
        <time>2013-04-13T10:51:32Z</time>
      </trkpt>
      <trkpt lat="37.952990010380745" lon="-2.654903037473559">
        <ele>1569.5999999999999</ele>
        <time>2013-04-13T10:51:35Z</time>
      </trkpt>
      <trkpt lat="37.952875010669231" lon="-2.655177963897586">
        <ele>1572</ele>
        <time>2013-04-13T10:51:38Z</time>
      </trkpt>
      <trkpt lat="37.952773002907634" lon="-2.655458003282547">
        <ele>1575.0999999999999</ele>
        <time>2013-04-13T10:51:41Z</time>
      </trkpt>
      <trkpt lat="37.9527229629457" lon="-2.655754974111915">
        <ele>1577.5</ele>
        <time>2013-04-13T10:51:44Z</time>
      </trkpt>
      <trkpt lat="37.952711982652545" lon="-2.656063009053469">
        <ele>1579.4000000000001</ele>
        <time>2013-04-13T10:51:47Z</time>
      </trkpt>
      <trkpt lat="37.952693039551377" lon="-2.656370038166642">
        <ele>1581.9000000000001</ele>
        <time>2013-04-13T10:51:50Z</time>
      </trkpt>
      <trkpt lat="37.952696979045868" lon="-2.656677989289165">
        <ele>1585</ele>
        <time>2013-04-13T10:51:53Z</time>
      </trkpt>
      <trkpt lat="37.952688010409474" lon="-2.6569680031389">
        <ele>1587.5</ele>
        <time>2013-04-13T10:51:56Z</time>
      </trkpt>
      <trkpt lat="37.952760010957718" lon="-2.657202025875449">
        <ele>1590.5</ele>
        <time>2013-04-13T10:51:59Z</time>
      </trkpt>
      <trkpt lat="37.952941982075572" lon="-2.657322976738215">
        <ele>1592.5999999999999</ele>
        <time>2013-04-13T10:52:02Z</time>
      </trkpt>
      <trkpt lat="37.953182039782405" lon="-2.657403023913503">
        <ele>1595</ele>
        <time>2013-04-13T10:52:05Z</time>
      </trkpt>
      <trkpt lat="37.953416984528303" lon="-2.657467983663082">
        <ele>1599.0999999999999</ele>
        <time>2013-04-13T10:52:08Z</time>
      </trkpt>
      <trkpt lat="37.953653018921614" lon="-2.657517017796636">
        <ele>1602.5</ele>
        <time>2013-04-13T10:52:11Z</time>
      </trkpt>
      <trkpt lat="37.953887041658163" lon="-2.657596981152892">
        <ele>1605.5999999999999</ele>
        <time>2013-04-13T10:52:14Z</time>
      </trkpt>
      <trkpt lat="37.954110000282526" lon="-2.657664958387613">
        <ele>1609.3</ele>
        <time>2013-04-13T10:52:17Z</time>
      </trkpt>
      <trkpt lat="37.954336982220411" lon="-2.657737964764237">
        <ele>1612.2</ele>
        <time>2013-04-13T10:52:20Z</time>
      </trkpt>
      <trkpt lat="37.954562036320567" lon="-2.657799990847707">
        <ele>1615</ele>
        <time>2013-04-13T10:52:23Z</time>
      </trkpt>
      <trkpt lat="37.954782983288169" lon="-2.657811976969242">
        <ele>1617.9000000000001</ele>
        <time>2013-04-13T10:52:26Z</time>
      </trkpt>
      <trkpt lat="37.954988004639745" lon="-2.657809965312481">
        <ele>1621</ele>
        <time>2013-04-13T10:52:29Z</time>
      </trkpt>
      <trkpt lat="37.955167964100838" lon="-2.657788004726172">
        <ele>1624.3</ele>
        <time>2013-04-13T10:52:32Z</time>
      </trkpt>
      <trkpt lat="37.955408021807671" lon="-2.657703012228012">
        <ele>1630.0999999999999</ele>
        <time>2013-04-13T10:52:36Z</time>
      </trkpt>
      <trkpt lat="37.955608014017344" lon="-2.657599998638034">
        <ele>1632.2</ele>
        <time>2013-04-13T10:52:39Z</time>
      </trkpt>
      <trkpt lat="37.955832984298468" lon="-2.657603016123176">
        <ele>1636.3</ele>
        <time>2013-04-13T10:52:43Z</time>
      </trkpt>
      <trkpt lat="37.955964999273419" lon="-2.657771995291114">
        <ele>1640.8</ele>
        <time>2013-04-13T10:52:48Z</time>
      </trkpt>
      <trkpt lat="37.955908002331853" lon="-2.658027978613973">
        <ele>1644</ele>
        <time>2013-04-13T10:52:53Z</time>
      </trkpt>
      <trkpt lat="37.955852011218667" lon="-2.658256972208619">
        <ele>1646.0999999999999</ele>
        <time>2013-04-13T10:52:57Z</time>
      </trkpt>
      <trkpt lat="37.956057032570243" lon="-2.658169968053699">
        <ele>1651.7</ele>
        <time>2013-04-13T10:53:04Z</time>
      </trkpt>
      <trkpt lat="37.956230035051703" lon="-2.658044993877411">
        <ele>1653.7</ele>
        <time>2013-04-13T10:53:08Z</time>
      </trkpt>
      <trkpt lat="37.956151999533176" lon="-2.658312963321805">
        <ele>1656.7</ele>
        <time>2013-04-13T10:53:16Z</time>
      </trkpt>
      <trkpt lat="37.956057032570243" lon="-2.658510021865368">
        <ele>1658.0999999999999</ele>
        <time>2013-04-13T10:53:19Z</time>
      </trkpt>
      <trkpt lat="37.955982014536858" lon="-2.658757036551833">
        <ele>1659.5</ele>
        <time>2013-04-13T10:53:22Z</time>
      </trkpt>
      <trkpt lat="37.955925017595291" lon="-2.659058030694723">
        <ele>1661.7</ele>
        <time>2013-04-13T10:53:25Z</time>
      </trkpt>
      <trkpt lat="37.955813035368919" lon="-2.659336980432272">
        <ele>1664.5</ele>
        <time>2013-04-13T10:53:28Z</time>
      </trkpt>
      <trkpt lat="37.955697029829025" lon="-2.659615008160472">
        <ele>1667.5</ele>
        <time>2013-04-13T10:53:31Z</time>
      </trkpt>
      <trkpt lat="37.955620000138879" lon="-2.659939974546433">
        <ele>1670.4000000000001</ele>
        <time>2013-04-13T10:53:34Z</time>
      </trkpt>
      <trkpt lat="37.955550011247396" lon="-2.66016704030335">
        <ele>1672.5999999999999</ele>
        <time>2013-04-13T10:53:36Z</time>
      </trkpt>
      <trkpt lat="37.955423025414348" lon="-2.660459987819195">
        <ele>1676.3</ele>
        <time>2013-04-13T10:53:39Z</time>
      </trkpt>
      <trkpt lat="37.955282963812351" lon="-2.66072703525424">
        <ele>1680.8</ele>
        <time>2013-04-13T10:53:42Z</time>
      </trkpt>
      <trkpt lat="37.955111972987652" lon="-2.66094203107059">
        <ele>1684.5999999999999</ele>
        <time>2013-04-13T10:53:45Z</time>
      </trkpt>
      <trkpt lat="37.954988004639745" lon="-2.661182004958391">
        <ele>1687.7</ele>
        <time>2013-04-13T10:53:48Z</time>
      </trkpt>
      <trkpt lat="37.954933019354939" lon="-2.661466989666224">
        <ele>1690.5999999999999</ele>
        <time>2013-04-13T10:53:51Z</time>
      </trkpt>
      <trkpt lat="37.954927990213037" lon="-2.661769995465875">
        <ele>1693.5</ele>
        <time>2013-04-13T10:53:54Z</time>
      </trkpt>
      <trkpt lat="37.954952968284488" lon="-2.662073001265526">
        <ele>1696.7</ele>
        <time>2013-04-13T10:53:57Z</time>
      </trkpt>
      <trkpt lat="37.954962020739913" lon="-2.662354968488216">
        <ele>1700</ele>
        <time>2013-04-13T10:54:00Z</time>
      </trkpt>
      <trkpt lat="37.954992027953267" lon="-2.662627967074513">
        <ele>1704</ele>
        <time>2013-04-13T10:54:03Z</time>
      </trkpt>
      <trkpt lat="37.955018011853099" lon="-2.66289702616632">
        <ele>1708.5</ele>
        <time>2013-04-13T10:54:06Z</time>
      </trkpt>
      <trkpt lat="37.955051958560944" lon="-2.663168013095856">
        <ele>1713.0999999999999</ele>
        <time>2013-04-13T10:54:09Z</time>
      </trkpt>
      <trkpt lat="37.955090012401342" lon="-2.66343698836863">
        <ele>1717.2</ele>
        <time>2013-04-13T10:54:12Z</time>
      </trkpt>
      <trkpt lat="37.955148015171289" lon="-2.663707975298166">
        <ele>1720.8</ele>
        <time>2013-04-13T10:54:15Z</time>
      </trkpt>
      <trkpt lat="37.95521498657763" lon="-2.66399497166276">
        <ele>1724.0999999999999</ele>
        <time>2013-04-13T10:54:18Z</time>
      </trkpt>
      <trkpt lat="37.955337027087808" lon="-2.664251960813999">
        <ele>1728.5</ele>
        <time>2013-04-13T10:54:21Z</time>
      </trkpt>
      <trkpt lat="37.955469964072108" lon="-2.664482966065407">
        <ele>1733</ele>
        <time>2013-04-13T10:54:24Z</time>
      </trkpt>
      <trkpt lat="37.955653024837375" lon="-2.664627972990274">
        <ele>1737.3</ele>
        <time>2013-04-13T10:54:27Z</time>
      </trkpt>
      <trkpt lat="37.955862991511822" lon="-2.664705002680421">
        <ele>1741.4000000000001</ele>
        <time>2013-04-13T10:54:30Z</time>
      </trkpt>
      <trkpt lat="37.956082010641694" lon="-2.664765017107129">
        <ele>1744.8</ele>
        <time>2013-04-13T10:54:33Z</time>
      </trkpt>
      <trkpt lat="37.956285020336509" lon="-2.664838023483753">
        <ele>1747.2</ele>
        <time>2013-04-13T10:54:36Z</time>
      </trkpt>
      <trkpt lat="37.95641703531146" lon="-2.665037009865046">
        <ele>1748.7</ele>
        <time>2013-04-13T10:54:39Z</time>
      </trkpt>
      <trkpt lat="37.956492975354195" lon="-2.665346972644329">
        <ele>1750.4000000000001</ele>
        <time>2013-04-13T10:54:42Z</time>
      </trkpt>
      <trkpt lat="37.956557013094425" lon="-2.665566997602582">
        <ele>1751.7</ele>
        <time>2013-04-13T10:54:44Z</time>
      </trkpt>
      <trkpt lat="37.956615015864372" lon="-2.665790040045977">
        <ele>1753.5</ele>
        <time>2013-04-13T10:54:46Z</time>
      </trkpt>
      <trkpt lat="37.956667989492416" lon="-2.66612003557384">
        <ele>1756.5</ele>
        <time>2013-04-13T10:54:49Z</time>
      </trkpt>
      <trkpt lat="37.956662038341165" lon="-2.666452964767814">
        <ele>1759.0999999999999</ele>
        <time>2013-04-13T10:54:52Z</time>
      </trkpt>
      <trkpt lat="37.956639993935823" lon="-2.666782038286328">
        <ele>1761.3</ele>
        <time>2013-04-13T10:54:55Z</time>
      </trkpt>
      <trkpt lat="37.956628007814288" lon="-2.667113039642572">
        <ele>1763.7</ele>
        <time>2013-04-13T10:54:58Z</time>
      </trkpt>
      <trkpt lat="37.956606969237328" lon="-2.667442029342055">
        <ele>1766</ele>
        <time>2013-04-13T10:55:01Z</time>
      </trkpt>
      <trkpt lat="37.956566987559199" lon="-2.667742017656565">
        <ele>1768.3</ele>
        <time>2013-04-13T10:55:04Z</time>
      </trkpt>
      <trkpt lat="37.95658802613616" lon="-2.668060027062893">
        <ele>1769.9000000000001</ele>
        <time>2013-04-13T10:55:07Z</time>
      </trkpt>
      <trkpt lat="37.95663203112781" lon="-2.668388010933995">
        <ele>1769.8</ele>
        <time>2013-04-13T10:55:10Z</time>
      </trkpt>
      <trkpt lat="37.956677963957191" lon="-2.668686993420124">
        <ele>1769.0999999999999</ele>
        <time>2013-04-13T10:55:13Z</time>
      </trkpt>
      <trkpt lat="37.95673999004066" lon="-2.668917998671532">
        <ele>1768.0999999999999</ele>
        <time>2013-04-13T10:55:16Z</time>
      </trkpt>
      <trkpt lat="37.95689295977354" lon="-2.669176999479532">
        <ele>1768.5</ele>
        <time>2013-04-13T10:55:19Z</time>
      </trkpt>
      <trkpt lat="37.957036960870028" lon="-2.66940800473094">
        <ele>1771.2</ele>
        <time>2013-04-13T10:55:22Z</time>
      </trkpt>
      <trkpt lat="37.957099992781878" lon="-2.669627023860812">
        <ele>1780.5999999999999</ele>
        <time>2013-04-13T10:55:58Z</time>
      </trkpt>
      <trkpt lat="37.957142991945148" lon="-2.669913014397025">
        <ele>1780.8</ele>
        <time>2013-04-13T10:56:03Z</time>
      </trkpt>
      <trkpt lat="37.957199988886714" lon="-2.670170003548265">
        <ele>1781</ele>
        <time>2013-04-13T10:56:06Z</time>
      </trkpt>
      <trkpt lat="37.957280036062002" lon="-2.670447025448084">
        <ele>1781.2</ele>
        <time>2013-04-13T10:56:09Z</time>
      </trkpt>
      <trkpt lat="37.957387994974852" lon="-2.670727986842394">
        <ele>1782.0999999999999</ele>
        <time>2013-04-13T10:56:12Z</time>
      </trkpt>
      <trkpt lat="37.957497965544462" lon="-2.671010037884116">
        <ele>1783.7</ele>
        <time>2013-04-13T10:56:15Z</time>
      </trkpt>
      <trkpt lat="37.957595027983189" lon="-2.671284964308143">
        <ele>1785.0999999999999</ele>
        <time>2013-04-13T10:56:18Z</time>
      </trkpt>
      <trkpt lat="37.957659987732768" lon="-2.671550000086427">
        <ele>1786.4000000000001</ele>
        <time>2013-04-13T10:56:21Z</time>
      </trkpt>
      <trkpt lat="37.957671973854303" lon="-2.671806989237666">
        <ele>1786.9000000000001</ele>
        <time>2013-04-13T10:56:24Z</time>
      </trkpt>
      <trkpt lat="37.957654958590865" lon="-2.672034977003932">
        <ele>1787.5</ele>
        <time>2013-04-13T10:56:27Z</time>
      </trkpt>
      <trkpt lat="37.957562003284693" lon="-2.672298001125455">
        <ele>1787.0999999999999</ele>
        <time>2013-04-13T10:56:31Z</time>
      </trkpt>
      <trkpt lat="37.957452032715082" lon="-2.672488018870354">
        <ele>1786.4000000000001</ele>
        <time>2013-04-13T10:56:35Z</time>
      </trkpt>
      <trkpt lat="37.957290010526776" lon="-2.67265297472477">
        <ele>1785.7</ele>
        <time>2013-04-13T10:56:40Z</time>
      </trkpt>
      <trkpt lat="37.957178028300405" lon="-2.672847015783191">
        <ele>1790</ele>
        <time>2013-04-13T11:04:33Z</time>
      </trkpt>
      <trkpt lat="37.957088006660342" lon="-2.673112973570824">
        <ele>1791.2</ele>
        <time>2013-04-13T11:04:38Z</time>
      </trkpt>
      <trkpt lat="37.957112984731793" lon="-2.673392007127404">
        <ele>1791.7</ele>
        <time>2013-04-13T11:04:42Z</time>
      </trkpt>
      <trkpt lat="37.957217004150152" lon="-2.673589987680316">
        <ele>1791.7</ele>
        <time>2013-04-13T11:04:45Z</time>
      </trkpt>
      <trkpt lat="37.957367040216923" lon="-2.673772964626551">
        <ele>1791.5999999999999</ele>
        <time>2013-04-13T11:04:48Z</time>
      </trkpt>
      <trkpt lat="37.957539958879352" lon="-2.673959964886308">
        <ele>1791.7</ele>
        <time>2013-04-13T11:04:51Z</time>
      </trkpt>
      <trkpt lat="37.957726959139109" lon="-2.674119975417852">
        <ele>1792</ele>
        <time>2013-04-13T11:04:54Z</time>
      </trkpt>
      <trkpt lat="37.957916976884007" lon="-2.674200022593141">
        <ele>1792.9000000000001</ele>
        <time>2013-04-13T11:04:57Z</time>
      </trkpt>
      <trkpt lat="37.958106994628906" lon="-2.674319967627525">
        <ele>1795.5</ele>
        <time>2013-04-13T11:08:55Z</time>
      </trkpt>
      <trkpt lat="37.958104982972145" lon="-2.674433039501309">
        <ele>1796</ele>
        <time>2013-04-13T11:23:59Z</time>
      </trkpt>
      <trkpt lat="37.958204979076982" lon="-2.674681982025504">
        <ele>1796.3</ele>
        <time>2013-04-13T11:24:03Z</time>
      </trkpt>
      <trkpt lat="37.95828502625227" lon="-2.67493000254035">
        <ele>1797</ele>
        <time>2013-04-13T11:24:07Z</time>
      </trkpt>
      <trkpt lat="37.958187041804194" lon="-2.675142986699939">
        <ele>1799.5</ele>
        <time>2013-04-13T11:24:11Z</time>
      </trkpt>
      <trkpt lat="37.958034994080663" lon="-2.67533702775836">
        <ele>1802.8</ele>
        <time>2013-04-13T11:24:16Z</time>
      </trkpt>
      <trkpt lat="37.95790197327733" lon="-2.675522016361356">
        <ele>1805</ele>
        <time>2013-04-13T11:24:20Z</time>
      </trkpt>
      <trkpt lat="37.95777196995914" lon="-2.675682026892901">
        <ele>1806.3</ele>
        <time>2013-04-13T11:24:23Z</time>
      </trkpt>
      <trkpt lat="37.957607014104724" lon="-2.67583298496902">
        <ele>1807.3</ele>
        <time>2013-04-13T11:24:26Z</time>
      </trkpt>
      <trkpt lat="37.957441974431276" lon="-2.675943039357662">
        <ele>1808.5999999999999</ele>
        <time>2013-04-13T11:24:29Z</time>
      </trkpt>
      <trkpt lat="37.957232007756829" lon="-2.676083017140627">
        <ele>1809.8</ele>
        <time>2013-04-13T11:24:33Z</time>
      </trkpt>
      <trkpt lat="37.957075014710426" lon="-2.67619801685214">
        <ele>1810.5</ele>
        <time>2013-04-13T11:24:36Z</time>
      </trkpt>
      <trkpt lat="37.95689295977354" lon="-2.676331959664822">
        <ele>1810.5999999999999</ele>
        <time>2013-04-13T11:24:40Z</time>
      </trkpt>
      <trkpt lat="37.956764968112111" lon="-2.676517032086849">
        <ele>1809.4000000000001</ele>
        <time>2013-04-13T11:24:46Z</time>
      </trkpt>
      <trkpt lat="37.9569330252707" lon="-2.67664996907115">
        <ele>1807.5</ele>
        <time>2013-04-13T11:24:52Z</time>
      </trkpt>
      <trkpt lat="37.957139974460006" lon="-2.676772009581327">
        <ele>1805</ele>
        <time>2013-04-13T11:24:56Z</time>
      </trkpt>
      <trkpt lat="37.957309959456325" lon="-2.676869994029403">
        <ele>1802.5999999999999</ele>
        <time>2013-04-13T11:24:59Z</time>
      </trkpt>
      <trkpt lat="37.957496959716082" lon="-2.677003014832735">
        <ele>1799.5999999999999</ele>
        <time>2013-04-13T11:25:03Z</time>
      </trkpt>
      <trkpt lat="37.957667028531432" lon="-2.677105022594333">
        <ele>1796.4000000000001</ele>
        <time>2013-04-13T11:25:11Z</time>
      </trkpt>
      <trkpt lat="37.957876995205879" lon="-2.677217004820705">
        <ele>1795.3</ele>
        <time>2013-04-13T11:25:16Z</time>
      </trkpt>
      <trkpt lat="37.95804999768734" lon="-2.677311971783638">
        <ele>1794.3</ele>
        <time>2013-04-13T11:25:19Z</time>
      </trkpt>
      <trkpt lat="37.958242027089" lon="-2.6774019934237">
        <ele>1792.8</ele>
        <time>2013-04-13T11:25:22Z</time>
      </trkpt>
      <trkpt lat="37.958391979336739" lon="-2.677548006176949">
        <ele>1791.3</ele>
        <time>2013-04-13T11:25:26Z</time>
      </trkpt>
      <trkpt lat="37.958185030147433" lon="-2.677650013938546">
        <ele>1785.7</ele>
        <time>2013-04-13T11:26:08Z</time>
      </trkpt>
      <trkpt lat="37.957952013239264" lon="-2.67770298756659">
        <ele>1784.3</ele>
        <time>2013-04-13T11:26:12Z</time>
      </trkpt>
      <trkpt lat="37.957732994109392" lon="-2.677757972851396">
        <ele>1782.5999999999999</ele>
        <time>2013-04-13T11:26:15Z</time>
      </trkpt>
      <trkpt lat="37.957493020221591" lon="-2.677827961742878">
        <ele>1780.5</ele>
        <time>2013-04-13T11:26:18Z</time>
      </trkpt>
      <trkpt lat="37.957297973334789" lon="-2.678017979487777">
        <ele>1778.3</ele>
        <time>2013-04-13T11:26:21Z</time>
      </trkpt>
      <trkpt lat="37.957135029137135" lon="-2.678243033587933">
        <ele>1776.2</ele>
        <time>2013-04-13T11:26:24Z</time>
      </trkpt>
      <trkpt lat="37.957022963091731" lon="-2.678462974727154">
        <ele>1774</ele>
        <time>2013-04-13T11:26:27Z</time>
      </trkpt>
      <trkpt lat="37.956979963928461" lon="-2.678747959434986">
        <ele>1771.3</ele>
        <time>2013-04-13T11:26:30Z</time>
      </trkpt>
      <trkpt lat="37.956924978643656" lon="-2.679045014083386">
        <ele>1769</ele>
        <time>2013-04-13T11:26:33Z</time>
      </trkpt>
      <trkpt lat="37.956882985308766" lon="-2.679302003234625">
        <ele>1766.4000000000001</ele>
        <time>2013-04-13T11:26:36Z</time>
      </trkpt>
      <trkpt lat="37.956849960610271" lon="-2.679567039012909">
        <ele>1763.8</ele>
        <time>2013-04-13T11:26:39Z</time>
      </trkpt>
      <trkpt lat="37.956809978932142" lon="-2.679832996800542">
        <ele>1761.5</ele>
        <time>2013-04-13T11:26:42Z</time>
      </trkpt>
      <trkpt lat="37.95676002278924" lon="-2.680093003436923">
        <ele>1758.9000000000001</ele>
        <time>2013-04-13T11:26:45Z</time>
      </trkpt>
      <trkpt lat="37.956677963957191" lon="-2.680353010073304">
        <ele>1756.7</ele>
        <time>2013-04-13T11:26:48Z</time>
      </trkpt>
      <trkpt lat="37.956594983115792" lon="-2.68060295842588">
        <ele>1754.3</ele>
        <time>2013-04-13T11:26:51Z</time>
      </trkpt>
      <trkpt lat="37.956518037244678" lon="-2.680870005860925">
        <ele>1752</ele>
        <time>2013-04-13T11:26:55Z</time>
      </trkpt>
      <trkpt lat="37.956452993676066" lon="-2.681085001677275">
        <ele>1749.9000000000001</ele>
        <time>2013-04-13T11:27:02Z</time>
      </trkpt>
      <trkpt lat="37.956503033638" lon="-2.681337967514992">
        <ele>1753.8</ele>
        <time>2013-04-13T11:30:43Z</time>
      </trkpt>
      <trkpt lat="37.956558018922806" lon="-2.681578025221825">
        <ele>1752</ele>
        <time>2013-04-13T11:30:48Z</time>
      </trkpt>
      <trkpt lat="37.956592971459031" lon="-2.681817999109626">
        <ele>1750.5999999999999</ele>
        <time>2013-04-13T11:30:53Z</time>
      </trkpt>
      <trkpt lat="37.956496998667717" lon="-2.682067025452852">
        <ele>1749.5999999999999</ele>
        <time>2013-04-13T11:31:03Z</time>
      </trkpt>
      <trkpt lat="37.956455005332828" lon="-2.682368019595742">
        <ele>1749.3</ele>
        <time>2013-04-13T11:31:07Z</time>
      </trkpt>
      <trkpt lat="37.956452993676066" lon="-2.682651998475194">
        <ele>1749.0999999999999</ele>
        <time>2013-04-13T11:31:10Z</time>
      </trkpt>
      <trkpt lat="37.956451987847686" lon="-2.682937989011407">
        <ele>1748.7</ele>
        <time>2013-04-13T11:31:13Z</time>
      </trkpt>
      <trkpt lat="37.956470008939505" lon="-2.683234959840775">
        <ele>1747.7</ele>
        <time>2013-04-13T11:31:16Z</time>
      </trkpt>
      <trkpt lat="37.95648199506104" lon="-2.683542994782329">
        <ele>1746.5</ele>
        <time>2013-04-13T11:31:19Z</time>
      </trkpt>
      <trkpt lat="37.95652499422431" lon="-2.683850023895502">
        <ele>1744.8</ele>
        <time>2013-04-13T11:31:22Z</time>
      </trkpt>
      <trkpt lat="37.956594983115792" lon="-2.684142971411347">
        <ele>1743.2</ele>
        <time>2013-04-13T11:31:25Z</time>
      </trkpt>
      <trkpt lat="37.956636976450682" lon="-2.684432985261083">
        <ele>1741.7</ele>
        <time>2013-04-13T11:31:28Z</time>
      </trkpt>
      <trkpt lat="37.95663203112781" lon="-2.684728028252721">
        <ele>1740.5999999999999</ele>
        <time>2013-04-13T11:31:31Z</time>
      </trkpt>
      <trkpt lat="37.956630019471049" lon="-2.685024999082089">
        <ele>1740.3</ele>
        <time>2013-04-13T11:31:34Z</time>
      </trkpt>
      <trkpt lat="37.956649968400598" lon="-2.685313001275063">
        <ele>1739.9000000000001</ele>
        <time>2013-04-13T11:31:37Z</time>
      </trkpt>
      <trkpt lat="37.95667695812881" lon="-2.685588011518121">
        <ele>1739.3</ele>
        <time>2013-04-13T11:31:40Z</time>
      </trkpt>
      <trkpt lat="37.956700008362532" lon="-2.685854975134134">
        <ele>1738.9000000000001</ele>
        <time>2013-04-13T11:31:43Z</time>
      </trkpt>
      <trkpt lat="37.956769997254014" lon="-2.686105007305741">
        <ele>1739.0999999999999</ele>
        <time>2013-04-13T11:31:46Z</time>
      </trkpt>
      <trkpt lat="37.956872005015612" lon="-2.686335006728768">
        <ele>1738.7</ele>
        <time>2013-04-13T11:31:49Z</time>
      </trkpt>
      <trkpt lat="37.956996979191899" lon="-2.686540028080344">
        <ele>1737.9000000000001</ele>
        <time>2013-04-13T11:31:52Z</time>
      </trkpt>
      <trkpt lat="37.957124970853329" lon="-2.686752006411552">
        <ele>1737.5999999999999</ele>
        <time>2013-04-13T11:31:55Z</time>
      </trkpt>
      <trkpt lat="37.957237958908081" lon="-2.686972031369805">
        <ele>1737.5</ele>
        <time>2013-04-13T11:31:58Z</time>
      </trkpt>
      <trkpt lat="37.957229996100068" lon="-2.687209993600845">
        <ele>1735.3</ele>
        <time>2013-04-13T11:32:31Z</time>
      </trkpt>
      <trkpt lat="37.957111978903413" lon="-2.687385007739067">
        <ele>1735</ele>
        <time>2013-04-13T11:32:36Z</time>
      </trkpt>
      <trkpt lat="37.95697501860559" lon="-2.687594974413514">
        <ele>1736.2</ele>
        <time>2013-04-13T11:32:41Z</time>
      </trkpt>
      <trkpt lat="37.956851972267032" lon="-2.6877770293504">
        <ele>1737.2</ele>
        <time>2013-04-13T11:32:46Z</time>
      </trkpt>
      <trkpt lat="37.956745019182563" lon="-2.687986996024847">
        <ele>1739.4000000000001</ele>
        <time>2013-04-13T11:32:51Z</time>
      </trkpt>
      <trkpt lat="37.956903018057346" lon="-2.688105013221502">
        <ele>1745.3</ele>
        <time>2013-04-13T11:36:29Z</time>
      </trkpt>
      <trkpt lat="37.957035033032298" lon="-2.68827298656106">
        <ele>1747</ele>
        <time>2013-04-13T11:37:20Z</time>
      </trkpt>
      <trkpt lat="37.956930007785559" lon="-2.688471972942352">
        <ele>1748</ele>
        <time>2013-04-13T11:37:42Z</time>
      </trkpt>
      <trkpt lat="37.956790030002594" lon="-2.688642963767052">
        <ele>1747.5999999999999</ele>
        <time>2013-04-13T11:37:51Z</time>
      </trkpt>
      <trkpt lat="37.956979963928461" lon="-2.688744971528649">
        <ele>1742.9000000000001</ele>
        <time>2013-04-13T11:38:05Z</time>
      </trkpt>
      <trkpt lat="37.95714802108705" lon="-2.688846979290247">
        <ele>1742.3</ele>
        <time>2013-04-13T11:38:12Z</time>
      </trkpt>
      <trkpt lat="37.95712798833847" lon="-2.689087959006429">
        <ele>1740.8</ele>
        <time>2013-04-13T11:38:22Z</time>
      </trkpt>
      <trkpt lat="37.95695498585701" lon="-2.689221985638142">
        <ele>1739.5999999999999</ele>
        <time>2013-04-13T11:38:28Z</time>
      </trkpt>
      <trkpt lat="37.956769997254014" lon="-2.689321981742978">
        <ele>1738.3</ele>
        <time>2013-04-13T11:38:33Z</time>
      </trkpt>
      <trkpt lat="37.954432033002377" lon="-2.690908005461097">
        <ele>1732.4000000000001</ele>
        <time>2013-04-13T12:27:44Z</time>
      </trkpt>
      <trkpt lat="37.954588020220399" lon="-2.690771967172623">
        <ele>1731.3</ele>
        <time>2013-04-13T12:27:52Z</time>
      </trkpt>
      <trkpt lat="37.954779965803027" lon="-2.690672976896167">
        <ele>1730.5999999999999</ele>
        <time>2013-04-13T12:27:57Z</time>
      </trkpt>
      <trkpt lat="37.954967971891165" lon="-2.690554959699512">
        <ele>1730.5999999999999</ele>
        <time>2013-04-13T12:28:01Z</time>
      </trkpt>
      <trkpt lat="37.955118007957935" lon="-2.690416993573308">
        <ele>1731.0999999999999</ele>
        <time>2013-04-13T12:28:04Z</time>
      </trkpt>
      <trkpt lat="37.955272989347577" lon="-2.690272992476821">
        <ele>1731.5</ele>
        <time>2013-04-13T12:28:07Z</time>
      </trkpt>
      <trkpt lat="37.955435011535883" lon="-2.690139971673489">
        <ele>1732.0999999999999</ele>
        <time>2013-04-13T12:28:10Z</time>
      </trkpt>
      <trkpt lat="37.955595022067428" lon="-2.690027989447117">
        <ele>1732.9000000000001</ele>
        <time>2013-04-13T12:28:13Z</time>
      </trkpt>
      <trkpt lat="37.955750003457069" lon="-2.689909972250462">
        <ele>1733.9000000000001</ele>
        <time>2013-04-13T12:28:16Z</time>
      </trkpt>
      <trkpt lat="37.955946978181601" lon="-2.689772006124258">
        <ele>1735.5</ele>
        <time>2013-04-13T12:28:20Z</time>
      </trkpt>
      <trkpt lat="37.9561179690063" lon="-2.689663041383028">
        <ele>1736.2</ele>
        <time>2013-04-13T12:28:24Z</time>
      </trkpt>
      <trkpt lat="37.956258030608296" lon="-2.689830008894205">
        <ele>1733.8</ele>
        <time>2013-04-13T12:28:31Z</time>
      </trkpt>
      <trkpt lat="37.956336988136172" lon="-2.690037963911891">
        <ele>1731.3</ele>
        <time>2013-04-13T12:28:35Z</time>
      </trkpt>
      <trkpt lat="37.95650202780962" lon="-2.690211972221732">
        <ele>1729.0999999999999</ele>
        <time>2013-04-13T12:28:39Z</time>
      </trkpt>
      <trkpt lat="37.956666983664036" lon="-2.690347004681826">
        <ele>1725.7</ele>
        <time>2013-04-13T12:28:43Z</time>
      </trkpt>
      <trkpt lat="37.956845015287399" lon="-2.690495029091835">
        <ele>1723.7</ele>
        <time>2013-04-13T12:28:47Z</time>
      </trkpt>
      <trkpt lat="37.957012988626957" lon="-2.690632995218039">
        <ele>1721.5</ele>
        <time>2013-04-13T12:28:51Z</time>
      </trkpt>
      <trkpt lat="37.957196971401572" lon="-2.690737014636397">
        <ele>1719</ele>
        <time>2013-04-13T12:28:55Z</time>
      </trkpt>
      <trkpt lat="37.957378020510077" lon="-2.69082996994257">
        <ele>1716.5</ele>
        <time>2013-04-13T12:28:59Z</time>
      </trkpt>
      <trkpt lat="37.95753501355648" lon="-2.690987968817353">
        <ele>1714.3</ele>
        <time>2013-04-13T12:29:03Z</time>
      </trkpt>
      <trkpt lat="37.957735005766153" lon="-2.691143034026027">
        <ele>1712.5999999999999</ele>
        <time>2013-04-13T12:29:07Z</time>
      </trkpt>
      <trkpt lat="37.957955030724406" lon="-2.691197013482451">
        <ele>1708.8</ele>
        <time>2013-04-13T12:29:11Z</time>
      </trkpt>
      <trkpt lat="37.958149993792176" lon="-2.691368004307151">
        <ele>1703.8</ele>
        <time>2013-04-13T12:29:15Z</time>
      </trkpt>
      <trkpt lat="37.958272034302354" lon="-2.691545030102134">
        <ele>1700.5</ele>
        <time>2013-04-13T12:29:18Z</time>
      </trkpt>
      <trkpt lat="37.958412012085319" lon="-2.691702023148537">
        <ele>1697.7</ele>
        <time>2013-04-13T12:29:21Z</time>
      </trkpt>
      <trkpt lat="37.958576967939734" lon="-2.691890029236674">
        <ele>1694.0999999999999</ele>
        <time>2013-04-13T12:29:25Z</time>
      </trkpt>
      <trkpt lat="37.958676964044571" lon="-2.692099995911121">
        <ele>1690.8</ele>
        <time>2013-04-13T12:29:28Z</time>
      </trkpt>
      <trkpt lat="37.958777965977788" lon="-2.692309962585568">
        <ele>1687.4000000000001</ele>
        <time>2013-04-13T12:29:31Z</time>
      </trkpt>
      <trkpt lat="37.958885002881289" lon="-2.692578015848994">
        <ele>1683.5</ele>
        <time>2013-04-13T12:29:35Z</time>
      </trkpt>
      <trkpt lat="37.958782995119691" lon="-2.692808015272021">
        <ele>1681.5999999999999</ele>
        <time>2013-04-13T12:29:39Z</time>
      </trkpt>
      <trkpt lat="37.958594989031553" lon="-2.692867023870349">
        <ele>1681.3</ele>
        <time>2013-04-13T12:29:42Z</time>
      </trkpt>
      <trkpt lat="37.958389967679977" lon="-2.692919997498393">
        <ele>1680.5</ele>
        <time>2013-04-13T12:29:45Z</time>
      </trkpt>
      <trkpt lat="37.958210008218884" lon="-2.692947993054986">
        <ele>1679</ele>
        <time>2013-04-13T12:29:48Z</time>
      </trkpt>
      <trkpt lat="37.958142030984163" lon="-2.693204982206225">
        <ele>1676.3</ele>
        <time>2013-04-13T12:29:53Z</time>
      </trkpt>
      <trkpt lat="37.958095008507371" lon="-2.693425007164478">
        <ele>1675.0999999999999</ele>
        <time>2013-04-13T12:29:56Z</time>
      </trkpt>
      <trkpt lat="37.958062989637256" lon="-2.693666992709041">
        <ele>1674.2</ele>
        <time>2013-04-13T12:29:59Z</time>
      </trkpt>
      <trkpt lat="37.958077993243933" lon="-2.693906966596842">
        <ele>1672.8</ele>
        <time>2013-04-13T12:30:02Z</time>
      </trkpt>
      <trkpt lat="37.958032982423902" lon="-2.694151969626546">
        <ele>1671.5999999999999</ele>
        <time>2013-04-13T12:30:05Z</time>
      </trkpt>
      <trkpt lat="37.957929968833923" lon="-2.694363025948405">
        <ele>1670.5</ele>
        <time>2013-04-13T12:30:08Z</time>
      </trkpt>
      <trkpt lat="37.957831984385848" lon="-2.694562012329698">
        <ele>1669.0999999999999</ele>
        <time>2013-04-13T12:30:11Z</time>
      </trkpt>
      <trkpt lat="37.957716984674335" lon="-2.694767033681274">
        <ele>1667.8</ele>
        <time>2013-04-13T12:30:14Z</time>
      </trkpt>
      <trkpt lat="37.957574995234609" lon="-2.694959985092282">
        <ele>1666.8</ele>
        <time>2013-04-13T12:30:17Z</time>
      </trkpt>
      <trkpt lat="37.957459995523095" lon="-2.695219991728663">
        <ele>1666.2</ele>
        <time>2013-04-13T12:30:21Z</time>
      </trkpt>
      <trkpt lat="37.957437029108405" lon="-2.695487961173058">
        <ele>1665.5999999999999</ele>
        <time>2013-04-13T12:30:24Z</time>
      </trkpt>
      <trkpt lat="37.957367962226272" lon="-2.695764983072877">
        <ele>1665.4000000000001</ele>
        <time>2013-04-13T12:30:27Z</time>
      </trkpt>
      <trkpt lat="37.957257991656661" lon="-2.696015015244484">
        <ele>1665.3</ele>
        <time>2013-04-13T12:30:30Z</time>
      </trkpt>
      <trkpt lat="37.957107033580542" lon="-2.696257000789046">
        <ele>1664.8</ele>
        <time>2013-04-13T12:30:33Z</time>
      </trkpt>
      <trkpt lat="37.956967977806926" lon="-2.696493035182357">
        <ele>1664.4000000000001</ele>
        <time>2013-04-13T12:30:36Z</time>
      </trkpt>
      <trkpt lat="37.956858007237315" lon="-2.696742983534932">
        <ele>1664.4000000000001</ele>
        <time>2013-04-13T12:30:39Z</time>
      </trkpt>
      <trkpt lat="37.956747030839324" lon="-2.696980023756623">
        <ele>1664.5</ele>
        <time>2013-04-13T12:30:42Z</time>
      </trkpt>
      <trkpt lat="37.956594983115792" lon="-2.69716702401638">
        <ele>1665.3</ele>
        <time>2013-04-13T12:30:46Z</time>
      </trkpt>
      <trkpt lat="37.956407982856035" lon="-2.697067027911544">
        <ele>1665.5</ele>
        <time>2013-04-13T12:30:50Z</time>
      </trkpt>
      <trkpt lat="37.956264987587929" lon="-2.696892013773322">
        <ele>1666</ele>
        <time>2013-04-13T12:30:53Z</time>
      </trkpt>
      <trkpt lat="37.956136995926499" lon="-2.696729991585016">
        <ele>1666.0999999999999</ele>
        <time>2013-04-13T12:30:56Z</time>
      </trkpt>
      <trkpt lat="37.956006992608309" lon="-2.69656696356833">
        <ele>1664.9000000000001</ele>
        <time>2013-04-13T12:30:59Z</time>
      </trkpt>
      <trkpt lat="37.955870032310486" lon="-2.696321960538626">
        <ele>1662.7</ele>
        <time>2013-04-13T12:31:03Z</time>
      </trkpt>
      <trkpt lat="37.955767018720508" lon="-2.696134960278869">
        <ele>1660.9000000000001</ele>
        <time>2013-04-13T12:31:06Z</time>
      </trkpt>
      <trkpt lat="37.955574989318848" lon="-2.696082992479205">
        <ele>1660.3</ele>
        <time>2013-04-13T12:31:10Z</time>
      </trkpt>
      <trkpt lat="37.955538025125861" lon="-2.696324978023768">
        <ele>1660.5</ele>
        <time>2013-04-13T12:31:15Z</time>
      </trkpt>
      <trkpt lat="37.955587981268764" lon="-2.696596970781684">
        <ele>1660.0999999999999</ele>
        <time>2013-04-13T12:31:19Z</time>
      </trkpt>
      <trkpt lat="37.955616982653737" lon="-2.696847002953291">
        <ele>1659.5999999999999</ele>
        <time>2013-04-13T12:31:23Z</time>
      </trkpt>
      <trkpt lat="37.955650007352233" lon="-2.697108015418053">
        <ele>1659.7</ele>
        <time>2013-04-13T12:31:27Z</time>
      </trkpt>
      <trkpt lat="37.9556879773736" lon="-2.697355030104518">
        <ele>1659.4000000000001</ele>
        <time>2013-04-13T12:31:30Z</time>
      </trkpt>
      <trkpt lat="37.955710021778941" lon="-2.697604978457093">
        <ele>1659.3</ele>
        <time>2013-04-13T12:31:33Z</time>
      </trkpt>
      <trkpt lat="37.955734999850392" lon="-2.697862973436713">
        <ele>1658.7</ele>
        <time>2013-04-13T12:31:36Z</time>
      </trkpt>
      <trkpt lat="37.955725025385618" lon="-2.69811199977994">
        <ele>1658.5999999999999</ele>
        <time>2013-04-13T12:31:39Z</time>
      </trkpt>
      <trkpt lat="37.95560197904706" lon="-2.698332024738193">
        <ele>1657.7</ele>
        <time>2013-04-13T12:31:43Z</time>
      </trkpt>
      <trkpt lat="37.955537019297481" lon="-2.6985630299896">
        <ele>1657.5</ele>
        <time>2013-04-13T12:31:47Z</time>
      </trkpt>
      <trkpt lat="37.955486979335546" lon="-2.698829993605614">
        <ele>1657.7</ele>
        <time>2013-04-13T12:31:52Z</time>
      </trkpt>
      <trkpt lat="37.955353036522865" lon="-2.699041971936822">
        <ele>1656.2</ele>
        <time>2013-04-13T12:31:56Z</time>
      </trkpt>
      <trkpt lat="37.955181961879134" lon="-2.699256967753172">
        <ele>1653.4000000000001</ele>
        <time>2013-04-13T12:32:00Z</time>
      </trkpt>
      <trkpt lat="37.955035027116537" lon="-2.699431981891394">
        <ele>1650.4000000000001</ele>
        <time>2013-04-13T12:32:03Z</time>
      </trkpt>
      <trkpt lat="37.954852972179651" lon="-2.699601966887713">
        <ele>1647.8</ele>
        <time>2013-04-13T12:32:06Z</time>
      </trkpt>
      <trkpt lat="37.954692039638758" lon="-2.699736999347806">
        <ele>1645.7</ele>
        <time>2013-04-13T12:32:09Z</time>
      </trkpt>
      <trkpt lat="37.954509984701872" lon="-2.699912013486028">
        <ele>1643</ele>
        <time>2013-04-13T12:32:13Z</time>
      </trkpt>
      <trkpt lat="37.954351985827088" lon="-2.700122985988855">
        <ele>1639.5999999999999</ele>
        <time>2013-04-13T12:32:17Z</time>
      </trkpt>
      <trkpt lat="37.95424503274262" lon="-2.700337981805205">
        <ele>1637</ele>
        <time>2013-04-13T12:32:20Z</time>
      </trkpt>
      <trkpt lat="37.95416004024446" lon="-2.700600000098348">
        <ele>1636.3</ele>
        <time>2013-04-13T12:32:23Z</time>
      </trkpt>
      <trkpt lat="37.954088039696217" lon="-2.700933013111353">
        <ele>1636.5</ele>
        <time>2013-04-13T12:32:26Z</time>
      </trkpt>
      <trkpt lat="37.954037999734282" lon="-2.701154965907335">
        <ele>1637.0999999999999</ele>
        <time>2013-04-13T12:32:28Z</time>
      </trkpt>
      <trkpt lat="37.953931968659163" lon="-2.701447997242212">
        <ele>1637.8</ele>
        <time>2013-04-13T12:32:31Z</time>
      </trkpt>
      <trkpt lat="37.953780004754663" lon="-2.701693000271916">
        <ele>1636.7</ele>
        <time>2013-04-13T12:32:34Z</time>
      </trkpt>
      <trkpt lat="37.953614965081215" lon="-2.701855022460222">
        <ele>1635</ele>
        <time>2013-04-13T12:32:37Z</time>
      </trkpt>
      <trkpt lat="37.953440034762025" lon="-2.702025007456541">
        <ele>1633.5999999999999</ele>
        <time>2013-04-13T12:32:41Z</time>
      </trkpt>
      <trkpt lat="37.953268038108945" lon="-2.702204966917634">
        <ele>1633</ele>
        <time>2013-04-13T12:32:46Z</time>
      </trkpt>
      <trkpt lat="37.953081959858537" lon="-2.702319966629148">
        <ele>1632.9000000000001</ele>
        <time>2013-04-13T12:32:49Z</time>
      </trkpt>
      <trkpt lat="37.95289202593267" lon="-2.702436977997422">
        <ele>1631.9000000000001</ele>
        <time>2013-04-13T12:32:52Z</time>
      </trkpt>
      <trkpt lat="37.952697984874249" lon="-2.702547032386065">
        <ele>1630.9000000000001</ele>
        <time>2013-04-13T12:32:55Z</time>
      </trkpt>
      <trkpt lat="37.952541997656226" lon="-2.70271198824048">
        <ele>1629.3</ele>
        <time>2013-04-13T12:32:58Z</time>
      </trkpt>
      <trkpt lat="37.952407971024513" lon="-2.702918015420437">
        <ele>1627.3</ele>
        <time>2013-04-13T12:33:01Z</time>
      </trkpt>
      <trkpt lat="37.952243015170097" lon="-2.703084982931614">
        <ele>1625.7</ele>
        <time>2013-04-13T12:33:04Z</time>
      </trkpt>
      <trkpt lat="37.952070012688637" lon="-2.70326997153461">
        <ele>1624</ele>
        <time>2013-04-13T12:33:07Z</time>
      </trkpt>
      <trkpt lat="37.951919976621866" lon="-2.703478010371327">
        <ele>1623</ele>
        <time>2013-04-13T12:33:10Z</time>
      </trkpt>
      <trkpt lat="37.95177698135376" lon="-2.703644977882505">
        <ele>1624</ele>
        <time>2013-04-13T12:33:13Z</time>
      </trkpt>
      <trkpt lat="37.951801959425211" lon="-2.70389199256897">
        <ele>1626.9000000000001</ele>
        <time>2013-04-13T12:33:19Z</time>
      </trkpt>
      <trkpt lat="37.951877983286977" lon="-2.704162979498506">
        <ele>1628.5999999999999</ele>
        <time>2013-04-13T12:33:23Z</time>
      </trkpt>
      <trkpt lat="37.951925005763769" lon="-2.704383004456759">
        <ele>1630</ele>
        <time>2013-04-13T12:33:26Z</time>
      </trkpt>
      <trkpt lat="37.951887035742402" lon="-2.704654997214675">
        <ele>1629.5999999999999</ele>
        <time>2013-04-13T12:33:30Z</time>
      </trkpt>
      <trkpt lat="37.951832972466946" lon="-2.704930007457733">
        <ele>1627.0999999999999</ele>
        <time>2013-04-13T12:33:34Z</time>
      </trkpt>
      <trkpt lat="37.951795002445579" lon="-2.70518196746707">
        <ele>1622.9000000000001</ele>
        <time>2013-04-13T12:33:38Z</time>
      </trkpt>
      <trkpt lat="37.951759966090322" lon="-2.70543996244669">
        <ele>1617.9000000000001</ele>
        <time>2013-04-13T12:33:45Z</time>
      </trkpt>
      <trkpt lat="37.951672961935401" lon="-2.705684965476394">
        <ele>1616.4000000000001</ele>
        <time>2013-04-13T12:33:49Z</time>
      </trkpt>
      <trkpt lat="37.951646978035569" lon="-2.705923011526465">
        <ele>1615</ele>
        <time>2013-04-13T12:33:52Z</time>
      </trkpt>
      <trkpt lat="37.951595010235906" lon="-2.706164997071028">
        <ele>1614.2</ele>
        <time>2013-04-13T12:33:55Z</time>
      </trkpt>
      <trkpt lat="37.951527033001184" lon="-2.706412011757493">
        <ele>1614.5999999999999</ele>
        <time>2013-04-13T12:33:59Z</time>
      </trkpt>
      <trkpt lat="37.951446985825896" lon="-2.706643017008901">
        <ele>1616.4000000000001</ele>
        <time>2013-04-13T12:34:08Z</time>
      </trkpt>
      <trkpt lat="37.951267026364803" lon="-2.70679296925664">
        <ele>1616.4000000000001</ele>
        <time>2013-04-13T12:34:13Z</time>
      </trkpt>
      <trkpt lat="37.951117996126413" lon="-2.706936970353127">
        <ele>1615.8</ele>
        <time>2013-04-13T12:34:17Z</time>
      </trkpt>
      <trkpt lat="37.950965026393533" lon="-2.707079965621233">
        <ele>1615.4000000000001</ele>
        <time>2013-04-13T12:34:22Z</time>
      </trkpt>
      <trkpt lat="37.950766962021589" lon="-2.707156995311379">
        <ele>1614.5</ele>
        <time>2013-04-13T12:34:27Z</time>
      </trkpt>
      <trkpt lat="37.950597982853651" lon="-2.707248022779822">
        <ele>1614.0999999999999</ele>
        <time>2013-04-13T12:34:32Z</time>
      </trkpt>
      <trkpt lat="37.950692027807236" lon="-2.707477016374469">
        <ele>1613.5</ele>
        <time>2013-04-13T12:34:38Z</time>
      </trkpt>
      <trkpt lat="37.950866958126426" lon="-2.707601990550757">
        <ele>1613.9000000000001</ele>
        <time>2013-04-13T12:34:43Z</time>
      </trkpt>
      <trkpt lat="37.951018000021577" lon="-2.707763006910682">
        <ele>1616.3</ele>
        <time>2013-04-13T12:34:49Z</time>
      </trkpt>
      <trkpt lat="37.9511549603194" lon="-2.707925029098988">
        <ele>1616.2</ele>
        <time>2013-04-13T12:34:58Z</time>
      </trkpt>
      <trkpt lat="37.951271971687675" lon="-2.708108006045222">
        <ele>1615.9000000000001</ele>
        <time>2013-04-13T12:35:02Z</time>
      </trkpt>
      <trkpt lat="37.951398035511374" lon="-2.708291988819838">
        <ele>1616.4000000000001</ele>
        <time>2013-04-13T12:35:06Z</time>
      </trkpt>
      <trkpt lat="37.95158302411437" lon="-2.708312021568418">
        <ele>1617.0999999999999</ele>
        <time>2013-04-13T12:35:11Z</time>
      </trkpt>
      <trkpt lat="37.951787039637566" lon="-2.708301963284612">
        <ele>1618.0999999999999</ele>
        <time>2013-04-13T12:35:15Z</time>
      </trkpt>
      <trkpt lat="37.952037993818521" lon="-2.708315039053559">
        <ele>1619.2</ele>
        <time>2013-04-13T12:35:19Z</time>
      </trkpt>
      <trkpt lat="37.95222700573504" lon="-2.708243038505316">
        <ele>1620.0999999999999</ele>
        <time>2013-04-13T12:35:22Z</time>
      </trkpt>
      <trkpt lat="37.952417023479939" lon="-2.708195010200143">
        <ele>1621.4000000000001</ele>
        <time>2013-04-13T12:35:25Z</time>
      </trkpt>
      <trkpt lat="37.952592959627509" lon="-2.708071963861585">
        <ele>1622.9000000000001</ele>
        <time>2013-04-13T12:35:28Z</time>
      </trkpt>
      <trkpt lat="37.952752970159054" lon="-2.707883035764098">
        <ele>1623.7</ele>
        <time>2013-04-13T12:35:31Z</time>
      </trkpt>
      <trkpt lat="37.952912980690598" lon="-2.707723025232554">
        <ele>1624.3</ele>
        <time>2013-04-13T12:35:34Z</time>
      </trkpt>
      <trkpt lat="37.953062010928988" lon="-2.707578018307686">
        <ele>1624.8</ele>
        <time>2013-04-13T12:35:37Z</time>
      </trkpt>
      <trkpt lat="37.953257979825139" lon="-2.707577012479305">
        <ele>1625.5999999999999</ele>
        <time>2013-04-13T12:35:40Z</time>
      </trkpt>
      <trkpt lat="37.953435005620122" lon="-2.707659993320704">
        <ele>1625.9000000000001</ele>
        <time>2013-04-13T12:35:43Z</time>
      </trkpt>
      <trkpt lat="37.95360297895968" lon="-2.707757977768779">
        <ele>1626.3</ele>
        <time>2013-04-13T12:35:46Z</time>
      </trkpt>
      <trkpt lat="37.953787967562675" lon="-2.707827966660261">
        <ele>1627</ele>
        <time>2013-04-13T12:35:49Z</time>
      </trkpt>
      <trkpt lat="37.953983014449477" lon="-2.707880018278956">
        <ele>1629</ele>
        <time>2013-04-13T12:35:52Z</time>
      </trkpt>
      <trkpt lat="37.954134978353977" lon="-2.708012033253908">
        <ele>1631.5</ele>
        <time>2013-04-13T12:35:57Z</time>
      </trkpt>
      <trkpt lat="37.954285014420748" lon="-2.708201967179775">
        <ele>1633.9000000000001</ele>
        <time>2013-04-13T12:36:04Z</time>
      </trkpt>
      <trkpt lat="37.95437696389854" lon="-2.708419980481267">
        <ele>1637.8</ele>
        <time>2013-04-13T12:36:10Z</time>
      </trkpt>
      <trkpt lat="37.95459195971489" lon="-2.70846800878644">
        <ele>1640.0999999999999</ele>
        <time>2013-04-13T12:36:18Z</time>
      </trkpt>
      <trkpt lat="37.954802010208368" lon="-2.708421992138028">
        <ele>1642.9000000000001</ele>
        <time>2013-04-13T12:36:22Z</time>
      </trkpt>
      <trkpt lat="37.954948022961617" lon="-2.708272039890289">
        <ele>1652.3</ele>
        <time>2013-04-13T12:36:46Z</time>
      </trkpt>
      <trkpt lat="37.955124964937568" lon="-2.70816701464355">
        <ele>1654.2</ele>
        <time>2013-04-13T12:36:54Z</time>
      </trkpt>
      <trkpt lat="37.955275001004338" lon="-2.70801798440516">
        <ele>1653.5999999999999</ele>
        <time>2013-04-13T12:37:01Z</time>
      </trkpt>
      <trkpt lat="37.955478010699153" lon="-2.707902984693646">
        <ele>1653.3</ele>
        <time>2013-04-13T12:37:10Z</time>
      </trkpt>
      <trkpt lat="37.955697029829025" lon="-2.707812963053584">
        <ele>1652.5999999999999</ele>
        <time>2013-04-13T12:37:14Z</time>
      </trkpt>
      <trkpt lat="37.955883024260402" lon="-2.707720007747412">
        <ele>1651.3</ele>
        <time>2013-04-13T12:37:19Z</time>
      </trkpt>
      <trkpt lat="37.956044962629676" lon="-2.707612970843911">
        <ele>1647.9000000000001</ele>
        <time>2013-04-13T12:37:26Z</time>
      </trkpt>
      <trkpt lat="37.956236992031336" lon="-2.70756796002388">
        <ele>1644.5</ele>
        <time>2013-04-13T12:37:32Z</time>
      </trkpt>
      <trkpt lat="37.956432960927486" lon="-2.707492019981146">
        <ele>1643.5999999999999</ele>
        <time>2013-04-13T12:37:37Z</time>
      </trkpt>
      <trkpt lat="37.956607975065708" lon="-2.70739302970469">
        <ele>1644.3</ele>
        <time>2013-04-13T12:37:41Z</time>
      </trkpt>
      <trkpt lat="37.956796986982226" lon="-2.707294961437583">
        <ele>1645.5</ele>
        <time>2013-04-13T12:37:44Z</time>
      </trkpt>
      <trkpt lat="37.956977030262351" lon="-2.707196976989508">
        <ele>1647.5999999999999</ele>
        <time>2013-04-13T12:37:47Z</time>
      </trkpt>
      <trkpt lat="37.957178028300405" lon="-2.707152971997857">
        <ele>1649.2</ele>
        <time>2013-04-13T12:37:50Z</time>
      </trkpt>
      <trkpt lat="37.957392018288374" lon="-2.707111984491348">
        <ele>1651</ele>
        <time>2013-04-13T12:37:53Z</time>
      </trkpt>
      <trkpt lat="37.957567032426596" lon="-2.707056999206543">
        <ele>1652</ele>
        <time>2013-04-13T12:37:56Z</time>
      </trkpt>
      <trkpt lat="37.957759983837605" lon="-2.706975024193525">
        <ele>1652.8</ele>
        <time>2013-04-13T12:37:59Z</time>
      </trkpt>
      <trkpt lat="37.95796500518918" lon="-2.706885002553463">
        <ele>1653.5</ele>
        <time>2013-04-13T12:38:02Z</time>
      </trkpt>
      <trkpt lat="37.958167009055614" lon="-2.706802021712065">
        <ele>1654.7</ele>
        <time>2013-04-13T12:38:05Z</time>
      </trkpt>
      <trkpt lat="37.958353003486991" lon="-2.706704959273338">
        <ele>1655.9000000000001</ele>
        <time>2013-04-13T12:38:08Z</time>
      </trkpt>
      <trkpt lat="37.958534974604845" lon="-2.706619966775179">
        <ele>1656.5999999999999</ele>
        <time>2013-04-13T12:38:11Z</time>
      </trkpt>
      <trkpt lat="37.958757011219859" lon="-2.706600017845631">
        <ele>1657.5999999999999</ele>
        <time>2013-04-13T12:38:15Z</time>
      </trkpt>
      <trkpt lat="37.958958009257913" lon="-2.706673024222255">
        <ele>1658.4000000000001</ele>
        <time>2013-04-13T12:38:19Z</time>
      </trkpt>
      <trkpt lat="37.959139980375767" lon="-2.706721974536777">
        <ele>1658.8</ele>
        <time>2013-04-13T12:38:22Z</time>
      </trkpt>
      <trkpt lat="37.959347013384104" lon="-2.706742007285357">
        <ele>1659.9000000000001</ele>
        <time>2013-04-13T12:38:25Z</time>
      </trkpt>
      <trkpt lat="37.959544993937016" lon="-2.706772014498711">
        <ele>1661.2</ele>
        <time>2013-04-13T12:38:28Z</time>
      </trkpt>
      <trkpt lat="37.959741968661547" lon="-2.706849966198206">
        <ele>1662.9000000000001</ele>
        <time>2013-04-13T12:38:31Z</time>
      </trkpt>
      <trkpt lat="37.959925029426813" lon="-2.706881985068321">
        <ele>1664.2</ele>
        <time>2013-04-13T12:38:34Z</time>
      </trkpt>
      <trkpt lat="37.960119992494583" lon="-2.706917021423578">
        <ele>1665.2</ele>
        <time>2013-04-13T12:38:37Z</time>
      </trkpt>
      <trkpt lat="37.960340017452836" lon="-2.706960020586848">
        <ele>1666.4000000000001</ele>
        <time>2013-04-13T12:38:40Z</time>
      </trkpt>
      <trkpt lat="37.960540009662509" lon="-2.707005031406879">
        <ele>1668.0999999999999</ele>
        <time>2013-04-13T12:38:43Z</time>
      </trkpt>
      <trkpt lat="37.960706977173686" lon="-2.707107039168477">
        <ele>1669.8</ele>
        <time>2013-04-13T12:38:46Z</time>
      </trkpt>
      <trkpt lat="37.960867993533611" lon="-2.707220027223229">
        <ele>1670.2</ele>
        <time>2013-04-13T12:38:49Z</time>
      </trkpt>
      <trkpt lat="37.96105801127851" lon="-2.707318011671305">
        <ele>1670.9000000000001</ele>
        <time>2013-04-13T12:38:52Z</time>
      </trkpt>
      <trkpt lat="37.961239982396364" lon="-2.707380037754774">
        <ele>1671.4000000000001</ele>
        <time>2013-04-13T12:38:55Z</time>
      </trkpt>
      <trkpt lat="37.961414996534586" lon="-2.707439968362451">
        <ele>1671.7</ele>
        <time>2013-04-13T12:38:58Z</time>
      </trkpt>
      <trkpt lat="37.961590010672808" lon="-2.70750199444592">
        <ele>1672.7</ele>
        <time>2013-04-13T12:39:01Z</time>
      </trkpt>
      <trkpt lat="37.961799977347255" lon="-2.707503000274301">
        <ele>1674.0999999999999</ele>
        <time>2013-04-13T12:39:05Z</time>
      </trkpt>
      <trkpt lat="37.962035005912185" lon="-2.707439968362451">
        <ele>1675.7</ele>
        <time>2013-04-13T12:39:09Z</time>
      </trkpt>
      <trkpt lat="37.962242038920522" lon="-2.707423036918044">
        <ele>1676.5999999999999</ele>
        <time>2013-04-13T12:39:12Z</time>
      </trkpt>
      <trkpt lat="37.962453011423349" lon="-2.707382971420884">
        <ele>1677.4000000000001</ele>
        <time>2013-04-13T12:39:16Z</time>
      </trkpt>
      <trkpt lat="37.962683010846376" lon="-2.707351958379149">
        <ele>1678</ele>
        <time>2013-04-13T12:39:20Z</time>
      </trkpt>
      <trkpt lat="37.962900018319488" lon="-2.707427982240915">
        <ele>1678.5</ele>
        <time>2013-04-13T12:39:24Z</time>
      </trkpt>
      <trkpt lat="37.963077966123819" lon="-2.707537030801177">
        <ele>1678.9000000000001</ele>
        <time>2013-04-13T12:39:29Z</time>
      </trkpt>
      <trkpt lat="37.963257003575563" lon="-2.707607019692659">
        <ele>1679.7</ele>
        <time>2013-04-13T12:39:35Z</time>
      </trkpt>
      <trkpt lat="37.963326992467046" lon="-2.707840036600828">
        <ele>1681.8</ele>
        <time>2013-04-13T12:39:39Z</time>
      </trkpt>
      <trkpt lat="37.963381977751851" lon="-2.708114963024855">
        <ele>1683</ele>
        <time>2013-04-13T12:39:43Z</time>
      </trkpt>
      <trkpt lat="37.963462024927139" lon="-2.708343034610152">
        <ele>1684.7</ele>
        <time>2013-04-13T12:39:47Z</time>
      </trkpt>
      <trkpt lat="37.963663022965193" lon="-2.708491981029511">
        <ele>1686.4000000000001</ele>
        <time>2013-04-13T12:39:51Z</time>
      </trkpt>
      <trkpt lat="37.963856980204582" lon="-2.708522994071245">
        <ele>1688</ele>
        <time>2013-04-13T12:39:54Z</time>
      </trkpt>
      <trkpt lat="37.964072981849313" lon="-2.708543026819825">
        <ele>1691.2</ele>
        <time>2013-04-13T12:39:58Z</time>
      </trkpt>
      <trkpt lat="37.964284960180521" lon="-2.708546966314316">
        <ele>1695.2</ele>
        <time>2013-04-13T12:40:03Z</time>
      </trkpt>
      <trkpt lat="37.964465003460646" lon="-2.708612009882927">
        <ele>1697.0999999999999</ele>
        <time>2013-04-13T12:40:07Z</time>
      </trkpt>
      <trkpt lat="37.964637000113726" lon="-2.708732960745692">
        <ele>1696.8</ele>
        <time>2013-04-13T12:40:13Z</time>
      </trkpt>
      <trkpt lat="37.964847972616553" lon="-2.708736984059215">
        <ele>1698.0999999999999</ele>
        <time>2013-04-13T12:40:18Z</time>
      </trkpt>
      <trkpt lat="37.965043019503355" lon="-2.708715023472905">
        <ele>1701.3</ele>
        <time>2013-04-13T12:40:23Z</time>
      </trkpt>
      <trkpt lat="37.965224990621209" lon="-2.708709994331002">
        <ele>1704</ele>
        <time>2013-04-13T12:40:27Z</time>
      </trkpt>
      <trkpt lat="37.965428000316024" lon="-2.708713011816144">
        <ele>1706.0999999999999</ele>
        <time>2013-04-13T12:40:31Z</time>
      </trkpt>
      <trkpt lat="37.965637966990471" lon="-2.708755005151033">
        <ele>1707.0999999999999</ele>
        <time>2013-04-13T12:40:35Z</time>
      </trkpt>
      <trkpt lat="37.96582798473537" lon="-2.708764979615808">
        <ele>1707.2</ele>
        <time>2013-04-13T12:40:39Z</time>
      </trkpt>
      <trkpt lat="37.966027976945043" lon="-2.708700019866228">
        <ele>1707.7</ele>
        <time>2013-04-13T12:40:43Z</time>
      </trkpt>
      <trkpt lat="37.966241966933012" lon="-2.708612009882927">
        <ele>1707.2</ele>
        <time>2013-04-13T12:40:47Z</time>
      </trkpt>
      <trkpt lat="37.966427961364388" lon="-2.708592982962728">
        <ele>1707.4000000000001</ele>
        <time>2013-04-13T12:40:52Z</time>
      </trkpt>
      <trkpt lat="37.966629965230823" lon="-2.708598012104631">
        <ele>1706.0999999999999</ele>
        <time>2013-04-13T12:40:58Z</time>
      </trkpt>
      <trkpt lat="37.96683699823916" lon="-2.708625001832843">
        <ele>1702.8</ele>
        <time>2013-04-13T12:41:13Z</time>
      </trkpt>
      <trkpt lat="37.967064986005425" lon="-2.708679987117648">
        <ele>1700.2</ele>
        <time>2013-04-13T12:41:18Z</time>
      </trkpt>
      <trkpt lat="37.967258021235466" lon="-2.708718040958047">
        <ele>1697.4000000000001</ele>
        <time>2013-04-13T12:41:22Z</time>
      </trkpt>
      <trkpt lat="37.967492965981364" lon="-2.708681998774409">
        <ele>1694.8</ele>
        <time>2013-04-13T12:41:26Z</time>
      </trkpt>
      <trkpt lat="37.967679966241121" lon="-2.708646962419152">
        <ele>1692.8</ele>
        <time>2013-04-13T12:41:29Z</time>
      </trkpt>
      <trkpt lat="37.96791298314929" lon="-2.708607986569405">
        <ele>1689.5</ele>
        <time>2013-04-13T12:41:33Z</time>
      </trkpt>
      <trkpt lat="37.968108030036092" lon="-2.708583008497953">
        <ele>1685.3</ele>
        <time>2013-04-13T12:41:37Z</time>
      </trkpt>
      <trkpt lat="37.968316990882158" lon="-2.708564987406135">
        <ele>1679.4000000000001</ele>
        <time>2013-04-13T12:41:42Z</time>
      </trkpt>
      <trkpt lat="37.968527041375637" lon="-2.708513019606471">
        <ele>1678</ele>
        <time>2013-04-13T12:41:45Z</time>
      </trkpt>
      <trkpt lat="37.968759974464774" lon="-2.708464991301298">
        <ele>1678.2</ele>
        <time>2013-04-13T12:41:48Z</time>
      </trkpt>
      <trkpt lat="37.968946974724531" lon="-2.708442024886608">
        <ele>1679.3</ele>
        <time>2013-04-13T12:41:51Z</time>
      </trkpt>
      <trkpt lat="37.969153001904488" lon="-2.708430038765073">
        <ele>1679.3</ele>
        <time>2013-04-13T12:41:55Z</time>
      </trkpt>
      <trkpt lat="37.969343019649386" lon="-2.708417968824506">
        <ele>1679.3</ele>
        <time>2013-04-13T12:41:59Z</time>
      </trkpt>
      <trkpt lat="37.969547035172582" lon="-2.708389973267913">
        <ele>1679.4000000000001</ele>
        <time>2013-04-13T12:42:04Z</time>
      </trkpt>
      <trkpt lat="37.969769993796945" lon="-2.708331970497966">
        <ele>1678.8</ele>
        <time>2013-04-13T12:42:10Z</time>
      </trkpt>
      <trkpt lat="37.969965040683746" lon="-2.708270028233528">
        <ele>1679</ele>
        <time>2013-04-13T12:42:14Z</time>
      </trkpt>
      <trkpt lat="37.970180036500096" lon="-2.708237003535032">
        <ele>1678.3</ele>
        <time>2013-04-13T12:42:18Z</time>
      </trkpt>
      <trkpt lat="37.970401989296079" lon="-2.708176989108324">
        <ele>1677.9000000000001</ele>
        <time>2013-04-13T12:42:22Z</time>
      </trkpt>
      <trkpt lat="37.9705770034343" lon="-2.708117980509996">
        <ele>1678.0999999999999</ele>
        <time>2013-04-13T12:42:26Z</time>
      </trkpt>
      <trkpt lat="37.970770038664341" lon="-2.708055032417178">
        <ele>1677.3</ele>
        <time>2013-04-13T12:42:31Z</time>
      </trkpt>
      <trkpt lat="37.970977993682027" lon="-2.707987977191806">
        <ele>1676.9000000000001</ele>
        <time>2013-04-13T12:42:35Z</time>
      </trkpt>
      <trkpt lat="37.971159964799881" lon="-2.707929974421859">
        <ele>1677</ele>
        <time>2013-04-13T12:42:38Z</time>
      </trkpt>
      <trkpt lat="37.971388036385179" lon="-2.707868032157421">
        <ele>1677.7</ele>
        <time>2013-04-13T12:42:42Z</time>
      </trkpt>
      <trkpt lat="37.971596997231245" lon="-2.707863003015518">
        <ele>1677.5</ele>
        <time>2013-04-13T12:42:46Z</time>
      </trkpt>
      <trkpt lat="37.971805036067963" lon="-2.707847999408841">
        <ele>1676.7</ele>
        <time>2013-04-13T12:42:51Z</time>
      </trkpt>
      <trkpt lat="37.972027994692326" lon="-2.707782033830881">
        <ele>1676.8</ele>
        <time>2013-04-13T12:42:57Z</time>
      </trkpt>
      <trkpt lat="37.97222999855876" lon="-2.707707015797496">
        <ele>1678.0999999999999</ele>
        <time>2013-04-13T12:43:01Z</time>
      </trkpt>
      <trkpt lat="37.972456980496645" lon="-2.707627974450588">
        <ele>1678.2</ele>
        <time>2013-04-13T12:43:05Z</time>
      </trkpt>
      <trkpt lat="37.972668036818504" lon="-2.707539964467287">
        <ele>1678.2</ele>
        <time>2013-04-13T12:43:09Z</time>
      </trkpt>
      <trkpt lat="37.972844978794456" lon="-2.707462012767792">
        <ele>1678.3</ele>
        <time>2013-04-13T12:43:12Z</time>
      </trkpt>
      <trkpt lat="37.973040025681257" lon="-2.707377020269632">
        <ele>1678.2</ele>
        <time>2013-04-13T12:43:15Z</time>
      </trkpt>
      <trkpt lat="37.973227025941014" lon="-2.707294961437583">
        <ele>1678</ele>
        <time>2013-04-13T12:43:18Z</time>
      </trkpt>
      <trkpt lat="37.973394999280572" lon="-2.707194965332747">
        <ele>1678</ele>
        <time>2013-04-13T12:43:21Z</time>
      </trkpt>
      <trkpt lat="37.973549980670214" lon="-2.707067979499698">
        <ele>1678.0999999999999</ele>
        <time>2013-04-13T12:43:24Z</time>
      </trkpt>
      <trkpt lat="37.973745027557015" lon="-2.706912998110056">
        <ele>1678.2</ele>
        <time>2013-04-13T12:43:28Z</time>
      </trkpt>
      <trkpt lat="37.973936973139644" lon="-2.706767991185188">
        <ele>1678.5999999999999</ele>
        <time>2013-04-13T12:43:32Z</time>
      </trkpt>
      <trkpt lat="37.974162027239799" lon="-2.706692973151803">
        <ele>1678</ele>
        <time>2013-04-13T12:43:36Z</time>
      </trkpt>
      <trkpt lat="37.974341986700892" lon="-2.706591971218586">
        <ele>1677.9000000000001</ele>
        <time>2013-04-13T12:43:40Z</time>
      </trkpt>
      <trkpt lat="37.974501997232437" lon="-2.706479988992214">
        <ele>1678.5</ele>
        <time>2013-04-13T12:43:43Z</time>
      </trkpt>
      <trkpt lat="37.974677011370659" lon="-2.706361971795559">
        <ele>1679.4000000000001</ele>
        <time>2013-04-13T12:43:46Z</time>
      </trkpt>
      <trkpt lat="37.974878009408712" lon="-2.706253007054329">
        <ele>1681.9000000000001</ele>
        <time>2013-04-13T12:43:50Z</time>
      </trkpt>
      <trkpt lat="37.975070038810372" lon="-2.706200033426285">
        <ele>1682.9000000000001</ele>
        <time>2013-04-13T12:43:54Z</time>
      </trkpt>
      <trkpt lat="37.975261984393001" lon="-2.706116968765855">
        <ele>1683.4000000000001</ele>
        <time>2013-04-13T12:43:58Z</time>
      </trkpt>
      <trkpt lat="37.975476980209351" lon="-2.706068018451333">
        <ele>1683.5</ele>
        <time>2013-04-13T12:44:02Z</time>
      </trkpt>
      <trkpt lat="37.975691976025701" lon="-2.70601999014616">
        <ele>1684.5</ele>
        <time>2013-04-13T12:44:06Z</time>
      </trkpt>
      <trkpt lat="37.975917030125856" lon="-2.705928040668368">
        <ele>1685.5</ele>
        <time>2013-04-13T12:44:10Z</time>
      </trkpt>
      <trkpt lat="37.976143006235361" lon="-2.705844976007938">
        <ele>1686.5999999999999</ele>
        <time>2013-04-13T12:44:14Z</time>
      </trkpt>
      <trkpt lat="37.976354984566569" lon="-2.705772975459695">
        <ele>1687.7</ele>
        <time>2013-04-13T12:44:18Z</time>
      </trkpt>
      <trkpt lat="37.976563023403287" lon="-2.7056950237602">
        <ele>1688.4000000000001</ele>
        <time>2013-04-13T12:44:22Z</time>
      </trkpt>
      <trkpt lat="37.976778019219637" lon="-2.705620005726814">
        <ele>1689</ele>
        <time>2013-04-13T12:44:26Z</time>
      </trkpt>
      <trkpt lat="37.976977005600929" lon="-2.705541970208287">
        <ele>1689.4000000000001</ele>
        <time>2013-04-13T12:44:30Z</time>
      </trkpt>
      <trkpt lat="37.977152019739151" lon="-2.705463012680411">
        <ele>1689.4000000000001</ele>
        <time>2013-04-13T12:44:34Z</time>
      </trkpt>
      <trkpt lat="37.977352011948824" lon="-2.70543803460896">
        <ele>1689.2</ele>
        <time>2013-04-13T12:44:38Z</time>
      </trkpt>
      <trkpt lat="37.977572958916426" lon="-2.705453038215637">
        <ele>1689.3</ele>
        <time>2013-04-13T12:44:42Z</time>
      </trkpt>
      <trkpt lat="37.97777496278286" lon="-2.705468041822314">
        <ele>1689.0999999999999</ele>
        <time>2013-04-13T12:44:46Z</time>
      </trkpt>
      <trkpt lat="37.977994987741113" lon="-2.705435017123818">
        <ele>1689.0999999999999</ele>
        <time>2013-04-13T12:44:50Z</time>
      </trkpt>
      <trkpt lat="37.978207971900702" lon="-2.705372991040349">
        <ele>1689.7</ele>
        <time>2013-04-13T12:44:54Z</time>
      </trkpt>
      <trkpt lat="37.978415004909039" lon="-2.705468041822314">
        <ele>1690.0999999999999</ele>
        <time>2013-04-13T12:44:58Z</time>
      </trkpt>
      <trkpt lat="37.978537967428565" lon="-2.705635009333491">
        <ele>1690.0999999999999</ele>
        <time>2013-04-13T12:45:01Z</time>
      </trkpt>
      <trkpt lat="37.978672999888659" lon="-2.705798037350178">
        <ele>1690</ele>
        <time>2013-04-13T12:45:04Z</time>
      </trkpt>
      <trkpt lat="37.97880501486361" lon="-2.705965004861355">
        <ele>1689.7</ele>
        <time>2013-04-13T12:45:07Z</time>
      </trkpt>
      <trkpt lat="37.978944992646575" lon="-2.706142030656338">
        <ele>1689.3</ele>
        <time>2013-04-13T12:45:10Z</time>
      </trkpt>
      <trkpt lat="37.97908203676343" lon="-2.70636297762394">
        <ele>1689.0999999999999</ele>
        <time>2013-04-13T12:45:14Z</time>
      </trkpt>
      <trkpt lat="37.979204999282956" lon="-2.706551989540458">
        <ele>1688.5999999999999</ele>
        <time>2013-04-13T12:45:18Z</time>
      </trkpt>
      <trkpt lat="37.979259984567761" lon="-2.706830017268658">
        <ele>1687</ele>
        <time>2013-04-13T12:45:22Z</time>
      </trkpt>
      <trkpt lat="37.979357969015837" lon="-2.707093041390181">
        <ele>1685.3</ele>
        <time>2013-04-13T12:45:25Z</time>
      </trkpt>
      <trkpt lat="37.979447990655899" lon="-2.707388000562787">
        <ele>1683.4000000000001</ele>
        <time>2013-04-13T12:45:28Z</time>
      </trkpt>
      <trkpt lat="37.979543041437864" lon="-2.707690000534058">
        <ele>1682</ele>
        <time>2013-04-13T12:45:31Z</time>
      </trkpt>
      <trkpt lat="37.979700034484267" lon="-2.70793198607862">
        <ele>1681.0999999999999</ele>
        <time>2013-04-13T12:45:34Z</time>
      </trkpt>
      <trkpt lat="37.979862978681922" lon="-2.708177994936705">
        <ele>1680.2</ele>
        <time>2013-04-13T12:45:37Z</time>
      </trkpt>
      <trkpt lat="37.979982001706958" lon="-2.708438001573086">
        <ele>1679.7</ele>
        <time>2013-04-13T12:45:40Z</time>
      </trkpt>
      <trkpt lat="37.980083003640175" lon="-2.708704965189099">
        <ele>1679.0999999999999</ele>
        <time>2013-04-13T12:45:43Z</time>
      </trkpt>
      <trkpt lat="37.980209989473224" lon="-2.708988022059202">
        <ele>1678.3</ele>
        <time>2013-04-13T12:45:46Z</time>
      </trkpt>
      <trkpt lat="37.980332029983401" lon="-2.709278035908938">
        <ele>1677.3</ele>
        <time>2013-04-13T12:45:49Z</time>
      </trkpt>
      <trkpt lat="37.980460021644831" lon="-2.709505017846823">
        <ele>1676.7</ele>
        <time>2013-04-13T12:45:52Z</time>
      </trkpt>
      <trkpt lat="37.980618020519614" lon="-2.709675002843142">
        <ele>1676.2</ele>
        <time>2013-04-13T12:45:55Z</time>
      </trkpt>
      <trkpt lat="37.980751963332295" lon="-2.709897039458156">
        <ele>1676.0999999999999</ele>
        <time>2013-04-13T12:45:59Z</time>
      </trkpt>
      <trkpt lat="37.980937035754323" lon="-2.709963005036116">
        <ele>1676.5999999999999</ele>
        <time>2013-04-13T12:46:03Z</time>
      </trkpt>
      <trkpt lat="37.981110038235784" lon="-2.709882035851479">
        <ele>1676.7</ele>
        <time>2013-04-13T12:46:09Z</time>
      </trkpt>
      <trkpt lat="37.980948016047478" lon="-2.710050009191036">
        <ele>1679.2</ele>
        <time>2013-04-13T12:50:18Z</time>
      </trkpt>
      <trkpt lat="37.980733020231128" lon="-2.71008001640439">
        <ele>1679.8</ele>
        <time>2013-04-13T12:50:22Z</time>
      </trkpt>
      <trkpt lat="37.980536967515945" lon="-2.710168026387692">
        <ele>1680.0999999999999</ele>
        <time>2013-04-13T12:50:26Z</time>
      </trkpt>
      <trkpt lat="37.980479970574379" lon="-2.710432978346944">
        <ele>1680.2</ele>
        <time>2013-04-13T12:50:30Z</time>
      </trkpt>
      <trkpt lat="37.980522969737649" lon="-2.710702959448099">
        <ele>1679.5</ele>
        <time>2013-04-13T12:50:33Z</time>
      </trkpt>
      <trkpt lat="37.980572003871202" lon="-2.710951985791326">
        <ele>1678.4000000000001</ele>
        <time>2013-04-13T12:50:37Z</time>
      </trkpt>
      <trkpt lat="37.980656996369362" lon="-2.71119698882103">
        <ele>1677.8</ele>
        <time>2013-04-13T12:50:41Z</time>
      </trkpt>
      <trkpt lat="37.980751963332295" lon="-2.711421959102154">
        <ele>1677.2</ele>
        <time>2013-04-13T12:50:45Z</time>
      </trkpt>
      <trkpt lat="37.980875009670854" lon="-2.711663022637367">
        <ele>1677</ele>
        <time>2013-04-13T12:50:50Z</time>
      </trkpt>
      <trkpt lat="37.980999983847141" lon="-2.711856979876757">
        <ele>1677.4000000000001</ele>
        <time>2013-04-13T12:50:53Z</time>
      </trkpt>
      <trkpt lat="37.981129987165332" lon="-2.712102988734841">
        <ele>1677.5</ele>
        <time>2013-04-13T12:50:56Z</time>
      </trkpt>
      <trkpt lat="37.981201987713575" lon="-2.712346985936165">
        <ele>1676.8</ele>
        <time>2013-04-13T12:50:59Z</time>
      </trkpt>
      <trkpt lat="37.981231994926929" lon="-2.712585031986237">
        <ele>1675</ele>
        <time>2013-04-13T12:51:02Z</time>
      </trkpt>
      <trkpt lat="37.981174997985363" lon="-2.71287496201694">
        <ele>1672.4000000000001</ele>
        <time>2013-04-13T12:51:06Z</time>
      </trkpt>
      <trkpt lat="37.981129987165332" lon="-2.713161958381534">
        <ele>1670.3</ele>
        <time>2013-04-13T12:51:10Z</time>
      </trkpt>
      <trkpt lat="37.981205005198717" lon="-2.713377960026264">
        <ele>1668.3</ele>
        <time>2013-04-13T12:51:18Z</time>
      </trkpt>
      <trkpt lat="37.981367027387023" lon="-2.713524978607893">
        <ele>1666.2</ele>
        <time>2013-04-13T12:52:11Z</time>
      </trkpt>
      <trkpt lat="37.981559978798032" lon="-2.713630003854632">
        <ele>1665.4000000000001</ele>
        <time>2013-04-13T12:52:14Z</time>
      </trkpt>
      <trkpt lat="37.981819985434413" lon="-2.713665040209889">
        <ele>1664.8</ele>
        <time>2013-04-13T12:52:17Z</time>
      </trkpt>
      <trkpt lat="37.982019977644086" lon="-2.713657999411225">
        <ele>1664.9000000000001</ele>
        <time>2013-04-13T12:52:19Z</time>
      </trkpt>
      <trkpt lat="37.982228016480803" lon="-2.713648024946451">
        <ele>1665</ele>
        <time>2013-04-13T12:52:21Z</time>
      </trkpt>
      <trkpt lat="37.982433037832379" lon="-2.713627992197871">
        <ele>1665.0999999999999</ele>
        <time>2013-04-13T12:52:23Z</time>
      </trkpt>
      <trkpt lat="37.982632024213672" lon="-2.71358298137784">
        <ele>1665.3</ele>
        <time>2013-04-13T12:52:25Z</time>
      </trkpt>
      <trkpt lat="37.982836961746216" lon="-2.713530007749796">
        <ele>1665.7</ele>
        <time>2013-04-13T12:52:27Z</time>
      </trkpt>
      <trkpt lat="37.983037959784269" lon="-2.713469993323088">
        <ele>1666.0999999999999</ele>
        <time>2013-04-13T12:52:29Z</time>
      </trkpt>
      <trkpt lat="37.983218003064394" lon="-2.713392963632941">
        <ele>1666.0999999999999</ele>
        <time>2013-04-13T12:52:31Z</time>
      </trkpt>
      <trkpt lat="37.983393017202616" lon="-2.713311994448304">
        <ele>1665.8</ele>
        <time>2013-04-13T12:52:33Z</time>
      </trkpt>
      <trkpt lat="37.983627961948514" lon="-2.713192971423268">
        <ele>1664.9000000000001</ele>
        <time>2013-04-13T12:52:36Z</time>
      </trkpt>
      <trkpt lat="37.983791995793581" lon="-2.712951991707087">
        <ele>1663.5999999999999</ele>
        <time>2013-04-13T12:52:39Z</time>
      </trkpt>
      <trkpt lat="37.983927028253675" lon="-2.712794998660684">
        <ele>1662.4000000000001</ele>
        <time>2013-04-13T12:52:41Z</time>
      </trkpt>
      <trkpt lat="37.984100030735135" lon="-2.712677987292409">
        <ele>1661.2</ele>
        <time>2013-04-13T12:52:43Z</time>
      </trkpt>
      <trkpt lat="37.984291976317763" lon="-2.712604980915785">
        <ele>1660.0999999999999</ele>
        <time>2013-04-13T12:52:45Z</time>
      </trkpt>
      <trkpt lat="37.984481994062662" lon="-2.712534992024303">
        <ele>1659.5999999999999</ele>
        <time>2013-04-13T12:52:47Z</time>
      </trkpt>
      <trkpt lat="37.984666982665658" lon="-2.712483024224639">
        <ele>1659.4000000000001</ele>
        <time>2013-04-13T12:52:49Z</time>
      </trkpt>
      <trkpt lat="37.984857000410557" lon="-2.712434995919466">
        <ele>1659.0999999999999</ele>
        <time>2013-04-13T12:52:51Z</time>
      </trkpt>
      <trkpt lat="37.98505699262023" lon="-2.71240197122097">
        <ele>1658.7</ele>
        <time>2013-04-13T12:52:53Z</time>
      </trkpt>
      <trkpt lat="37.985266959294677" lon="-2.712382022291422">
        <ele>1658.4000000000001</ele>
        <time>2013-04-13T12:52:55Z</time>
      </trkpt>
      <trkpt lat="37.985472986474633" lon="-2.712368024513125">
        <ele>1658.2</ele>
        <time>2013-04-13T12:52:57Z</time>
      </trkpt>
      <trkpt lat="37.985686976462603" lon="-2.712347991764545">
        <ele>1658.0999999999999</ele>
        <time>2013-04-13T12:52:59Z</time>
      </trkpt>
      <trkpt lat="37.985908007249236" lon="-2.712337011471391">
        <ele>1657.8</ele>
        <time>2013-04-13T12:53:01Z</time>
      </trkpt>
      <trkpt lat="37.986134989187121" lon="-2.712325025349855">
        <ele>1657.5</ele>
        <time>2013-04-13T12:53:03Z</time>
      </trkpt>
      <trkpt lat="37.986361971125007" lon="-2.712337011471391">
        <ele>1657.2</ele>
        <time>2013-04-13T12:53:05Z</time>
      </trkpt>
      <trkpt lat="37.986587025225163" lon="-2.712353020906448">
        <ele>1656.8</ele>
        <time>2013-04-13T12:53:07Z</time>
      </trkpt>
      <trkpt lat="37.98681803047657" lon="-2.712361989542842">
        <ele>1656.5</ele>
        <time>2013-04-13T12:53:09Z</time>
      </trkpt>
      <trkpt lat="37.987048029899597" lon="-2.712365007027984">
        <ele>1656.2</ele>
        <time>2013-04-13T12:53:11Z</time>
      </trkpt>
      <trkpt lat="37.987273000180721" lon="-2.712353020906448">
        <ele>1655.7</ele>
        <time>2013-04-13T12:53:13Z</time>
      </trkpt>
      <trkpt lat="37.987496964633465" lon="-2.712340028956533">
        <ele>1655.5</ele>
        <time>2013-04-13T12:53:15Z</time>
      </trkpt>
      <trkpt lat="37.987716989591718" lon="-2.71231203339994">
        <ele>1655</ele>
        <time>2013-04-13T12:53:17Z</time>
      </trkpt>
      <trkpt lat="37.987940032035112" lon="-2.71227004006505">
        <ele>1654.3</ele>
        <time>2013-04-13T12:53:19Z</time>
      </trkpt>
      <trkpt lat="37.988165002316236" lon="-2.712222011759877">
        <ele>1653.9000000000001</ele>
        <time>2013-04-13T12:53:21Z</time>
      </trkpt>
      <trkpt lat="37.988391984254122" lon="-2.712177000939846">
        <ele>1653.5999999999999</ele>
        <time>2013-04-13T12:53:23Z</time>
      </trkpt>
      <trkpt lat="37.988628018647432" lon="-2.712144982069731">
        <ele>1653.5</ele>
        <time>2013-04-13T12:53:25Z</time>
      </trkpt>
      <trkpt lat="37.988867992535233" lon="-2.712112963199616">
        <ele>1653.3</ele>
        <time>2013-04-13T12:53:27Z</time>
      </trkpt>
      <trkpt lat="37.989107966423035" lon="-2.712107012048364">
        <ele>1652.7</ele>
        <time>2013-04-13T12:53:29Z</time>
      </trkpt>
      <trkpt lat="37.989348024129868" lon="-2.712101982906461">
        <ele>1652.3</ele>
        <time>2013-04-13T12:53:31Z</time>
      </trkpt>
      <trkpt lat="37.989587998017669" lon="-2.712083039805293">
        <ele>1652</ele>
        <time>2013-04-13T12:53:33Z</time>
      </trkpt>
      <trkpt lat="37.98982797190547" lon="-2.71205797791481">
        <ele>1651.3</ele>
        <time>2013-04-13T12:53:35Z</time>
      </trkpt>
      <trkpt lat="37.990070041269064" lon="-2.712040040642023">
        <ele>1650.9000000000001</ele>
        <time>2013-04-13T12:53:37Z</time>
      </trkpt>
      <trkpt lat="37.990317977964878" lon="-2.712025037035346">
        <ele>1650.5</ele>
        <time>2013-04-13T12:53:39Z</time>
      </trkpt>
      <trkpt lat="37.990570021793246" lon="-2.712010033428669">
        <ele>1650.0999999999999</ele>
        <time>2013-04-13T12:53:41Z</time>
      </trkpt>
      <trkpt lat="37.990819970145822" lon="-2.711990000680089">
        <ele>1650</ele>
        <time>2013-04-13T12:53:43Z</time>
      </trkpt>
      <trkpt lat="37.991076959297061" lon="-2.711957981809974">
        <ele>1650</ele>
        <time>2013-04-13T12:53:45Z</time>
      </trkpt>
      <trkpt lat="37.99133000895381" lon="-2.711923029273748">
        <ele>1649.5</ele>
        <time>2013-04-13T12:53:47Z</time>
      </trkpt>
      <trkpt lat="37.991586998105049" lon="-2.711899979040027">
        <ele>1649</ele>
        <time>2013-04-13T12:53:49Z</time>
      </trkpt>
      <trkpt lat="37.991816997528076" lon="-2.711886987090111">
        <ele>1648.5</ele>
        <time>2013-04-13T12:53:51Z</time>
      </trkpt>
      <trkpt lat="37.992016989737749" lon="-2.711869971826673">
        <ele>1647.7</ele>
        <time>2013-04-13T12:53:53Z</time>
      </trkpt>
      <trkpt lat="37.992199966683984" lon="-2.711859997361898">
        <ele>1646.9000000000001</ele>
        <time>2013-04-13T12:53:55Z</time>
      </trkpt>
      <trkpt lat="37.992386966943741" lon="-2.711857985705137">
        <ele>1645.2</ele>
        <time>2013-04-13T12:53:57Z</time>
      </trkpt>
      <trkpt lat="37.992592994123697" lon="-2.711871983483434">
        <ele>1643.4000000000001</ele>
        <time>2013-04-13T12:53:59Z</time>
      </trkpt>
      <trkpt lat="37.992789968848228" lon="-2.711912970989943">
        <ele>1641.8</ele>
        <time>2013-04-13T12:54:01Z</time>
      </trkpt>
      <trkpt lat="37.992992978543043" lon="-2.711926968768239">
        <ele>1640</ele>
        <time>2013-04-13T12:54:03Z</time>
      </trkpt>
      <trkpt lat="37.993202023208141" lon="-2.711912970989943">
        <ele>1638.4000000000001</ele>
        <time>2013-04-13T12:54:05Z</time>
      </trkpt>
      <trkpt lat="37.993403021246195" lon="-2.711890004575253">
        <ele>1637.2</ele>
        <time>2013-04-13T12:54:07Z</time>
      </trkpt>
      <trkpt lat="37.993594966828823" lon="-2.71184298209846">
        <ele>1636.4000000000001</ele>
        <time>2013-04-13T12:54:09Z</time>
      </trkpt>
      <trkpt lat="37.99378196708858" lon="-2.711812974885106">
        <ele>1635.4000000000001</ele>
        <time>2013-04-13T12:54:11Z</time>
      </trkpt>
      <trkpt lat="37.993969973176718" lon="-2.711801994591951">
        <ele>1634.0999999999999</ele>
        <time>2013-04-13T12:54:13Z</time>
      </trkpt>
      <trkpt lat="37.994159990921617" lon="-2.71179998293519">
        <ele>1632.8</ele>
        <time>2013-04-13T12:54:15Z</time>
      </trkpt>
      <trkpt lat="37.994346991181374" lon="-2.711780034005642">
        <ele>1631.4000000000001</ele>
        <time>2013-04-13T12:54:17Z</time>
      </trkpt>
      <trkpt lat="37.994576990604401" lon="-2.711665034294128">
        <ele>1629.3</ele>
        <time>2013-04-13T12:54:20Z</time>
      </trkpt>
      <trkpt lat="37.994721997529268" lon="-2.711517009884119">
        <ele>1627.5999999999999</ele>
        <time>2013-04-13T12:54:23Z</time>
      </trkpt>
      <trkpt lat="37.994912015274167" lon="-2.711675008758903">
        <ele>1625.3</ele>
        <time>2013-04-13T12:54:27Z</time>
      </trkpt>
      <trkpt lat="37.995066996663809" lon="-2.711875000968576">
        <ele>1623.0999999999999</ele>
        <time>2013-04-13T12:54:30Z</time>
      </trkpt>
      <trkpt lat="37.995277969166636" lon="-2.712022019550204">
        <ele>1620.3</ele>
        <time>2013-04-13T12:54:33Z</time>
      </trkpt>
      <trkpt lat="37.995503023266792" lon="-2.712155040353537">
        <ele>1617.9000000000001</ele>
        <time>2013-04-13T12:54:36Z</time>
      </trkpt>
      <trkpt lat="37.995741991326213" lon="-2.712289988994598">
        <ele>1616.3</ele>
        <time>2013-04-13T12:54:39Z</time>
      </trkpt>
      <trkpt lat="37.995980037376285" lon="-2.712419992312789">
        <ele>1614.7</ele>
        <time>2013-04-13T12:54:42Z</time>
      </trkpt>
      <trkpt lat="37.99620802514255" lon="-2.712531974539161">
        <ele>1613.7</ele>
        <time>2013-04-13T12:54:45Z</time>
      </trkpt>
      <trkpt lat="37.996408017352223" lon="-2.712638005614281">
        <ele>1612.9000000000001</ele>
        <time>2013-04-13T12:54:48Z</time>
      </trkpt>
      <trkpt lat="37.996582025662065" lon="-2.712731966748834">
        <ele>1612.5</ele>
        <time>2013-04-13T12:54:51Z</time>
      </trkpt>
      <trkpt lat="37.996782017871737" lon="-2.712747976183891">
        <ele>1611.5</ele>
        <time>2013-04-13T12:54:58Z</time>
      </trkpt>
      <trkpt lat="37.996974969282746" lon="-2.712713023647666">
        <ele>1611</ele>
        <time>2013-04-13T12:55:03Z</time>
      </trkpt>
      <trkpt lat="37.997188037261367" lon="-2.712677987292409">
        <ele>1610.9000000000001</ele>
        <time>2013-04-13T12:55:08Z</time>
      </trkpt>
      <trkpt lat="37.997392974793911" lon="-2.712668012827635">
        <ele>1610.8</ele>
        <time>2013-04-13T12:55:12Z</time>
      </trkpt>
      <trkpt lat="37.997602019459009" lon="-2.712687039747834">
        <ele>1610.5999999999999</ele>
        <time>2013-04-13T12:55:16Z</time>
      </trkpt>
      <trkpt lat="37.997758006677032" lon="-2.712815031409264">
        <ele>1611</ele>
        <time>2013-04-13T12:55:22Z</time>
      </trkpt>
      <trkpt lat="37.997896978631616" lon="-2.712987028062344">
        <ele>1613.3</ele>
        <time>2013-04-13T12:55:30Z</time>
      </trkpt>
      <trkpt lat="37.998097976669669" lon="-2.71308702416718">
        <ele>1614.5</ele>
        <time>2013-04-13T12:55:36Z</time>
      </trkpt>
      <trkpt lat="37.998301992192864" lon="-2.713112002238631">
        <ele>1614</ele>
        <time>2013-04-13T12:55:39Z</time>
      </trkpt>
      <trkpt lat="37.998563004657626" lon="-2.713162964209914">
        <ele>1613.3</ele>
        <time>2013-04-13T12:55:42Z</time>
      </trkpt>
      <trkpt lat="37.998791998252273" lon="-2.713239993900061">
        <ele>1612.7</ele>
        <time>2013-04-13T12:55:45Z</time>
      </trkpt>
      <trkpt lat="37.999012023210526" lon="-2.713270001113415">
        <ele>1612.0999999999999</ele>
        <time>2013-04-13T12:55:48Z</time>
      </trkpt>
      <trkpt lat="37.999227019026875" lon="-2.713227001950145">
        <ele>1611.5</ele>
        <time>2013-04-13T12:55:51Z</time>
      </trkpt>
      <trkpt lat="37.999436985701323" lon="-2.713142009451985">
        <ele>1611.0999999999999</ele>
        <time>2013-04-13T12:55:54Z</time>
      </trkpt>
      <trkpt lat="37.99964502453804" lon="-2.713036984205246">
        <ele>1610.5999999999999</ele>
        <time>2013-04-13T12:55:57Z</time>
      </trkpt>
      <trkpt lat="37.999857002869248" lon="-2.712961966171861">
        <ele>1609.8</ele>
        <time>2013-04-13T12:56:00Z</time>
      </trkpt>
      <trkpt lat="38.000103011727333" lon="-2.712994990870357">
        <ele>1609.3</ele>
        <time>2013-04-13T12:56:03Z</time>
      </trkpt>
      <trkpt lat="38.000341979786754" lon="-2.713058022782207">
        <ele>1608.9000000000001</ele>
        <time>2013-04-13T12:56:06Z</time>
      </trkpt>
      <trkpt lat="38.000562004745007" lon="-2.713136980310082">
        <ele>1608.0999999999999</ele>
        <time>2013-04-13T12:56:09Z</time>
      </trkpt>
      <trkpt lat="38.00078496336937" lon="-2.71321501582861">
        <ele>1607.8</ele>
        <time>2013-04-13T12:56:12Z</time>
      </trkpt>
      <trkpt lat="38.000980010256171" lon="-2.713272012770176">
        <ele>1607.5</ele>
        <time>2013-04-13T12:56:16Z</time>
      </trkpt>
      <trkpt lat="38.00117002800107" lon="-2.713303025811911">
        <ele>1605.5</ele>
        <time>2013-04-13T12:56:22Z</time>
      </trkpt>
      <trkpt lat="38.001397009938955" lon="-2.713339990004897">
        <ele>1605</ele>
        <time>2013-04-13T12:56:26Z</time>
      </trkpt>
      <trkpt lat="38.001640001311898" lon="-2.713360022753477">
        <ele>1605</ele>
        <time>2013-04-13T12:56:29Z</time>
      </trkpt>
      <trkpt lat="38.001892967149615" lon="-2.713394975289702">
        <ele>1604.8</ele>
        <time>2013-04-13T12:56:32Z</time>
      </trkpt>
      <trkpt lat="38.002147022634745" lon="-2.713449960574508">
        <ele>1604.4000000000001</ele>
        <time>2013-04-13T12:56:35Z</time>
      </trkpt>
      <trkpt lat="38.002329999580979" lon="-2.713460018858314">
        <ele>1604.5</ele>
        <time>2013-04-13T12:56:37Z</time>
      </trkpt>
      <trkpt lat="38.002520017325878" lon="-2.713447026908398">
        <ele>1604.8</ele>
        <time>2013-04-13T12:56:39Z</time>
      </trkpt>
      <trkpt lat="38.002722021192312" lon="-2.713426994159818">
        <ele>1604.9000000000001</ele>
        <time>2013-04-13T12:56:41Z</time>
      </trkpt>
      <trkpt lat="38.002923019230366" lon="-2.713406961411238">
        <ele>1605.0999999999999</ele>
        <time>2013-04-13T12:56:43Z</time>
      </trkpt>
      <trkpt lat="38.003127034753561" lon="-2.71338701248169">
        <ele>1605.0999999999999</ele>
        <time>2013-04-13T12:56:45Z</time>
      </trkpt>
      <trkpt lat="38.003331972286105" lon="-2.713360022753477">
        <ele>1605.0999999999999</ele>
        <time>2013-04-13T12:56:47Z</time>
      </trkpt>
      <trkpt lat="38.003543028607965" lon="-2.713343007490039">
        <ele>1605</ele>
        <time>2013-04-13T12:56:49Z</time>
      </trkpt>
      <trkpt lat="38.003758024424314" lon="-2.713320041075349">
        <ele>1604.7</ele>
        <time>2013-04-13T12:56:51Z</time>
      </trkpt>
      <trkpt lat="38.003982994705439" lon="-2.713290033861995">
        <ele>1604.0999999999999</ele>
        <time>2013-04-13T12:56:53Z</time>
      </trkpt>
      <trkpt lat="38.004202013835311" lon="-2.713262960314751">
        <ele>1603.7</ele>
        <time>2013-04-13T12:56:55Z</time>
      </trkpt>
      <trkpt lat="38.004417009651661" lon="-2.713236976414919">
        <ele>1603.3</ele>
        <time>2013-04-13T12:56:57Z</time>
      </trkpt>
      <trkpt lat="38.004624964669347" lon="-2.713217027485371">
        <ele>1602.8</ele>
        <time>2013-04-13T12:56:59Z</time>
      </trkpt>
      <trkpt lat="38.0048449896276" lon="-2.713205041363835">
        <ele>1602.5999999999999</ele>
        <time>2013-04-13T12:57:01Z</time>
      </trkpt>
      <trkpt lat="38.005061997100711" lon="-2.713187020272017">
        <ele>1602</ele>
        <time>2013-04-13T12:57:03Z</time>
      </trkpt>
      <trkpt lat="38.005282022058964" lon="-2.713162964209914">
        <ele>1601.0999999999999</ele>
        <time>2013-04-13T12:57:05Z</time>
      </trkpt>
      <trkpt lat="38.005500035360456" lon="-2.713137986138463">
        <ele>1600.7</ele>
        <time>2013-04-13T12:57:07Z</time>
      </trkpt>
      <trkpt lat="38.005713019520044" lon="-2.713119965046644">
        <ele>1600.2</ele>
        <time>2013-04-13T12:57:09Z</time>
      </trkpt>
      <trkpt lat="38.005924997851253" lon="-2.713119965046644">
        <ele>1599.8</ele>
        <time>2013-04-13T12:57:11Z</time>
      </trkpt>
      <trkpt lat="38.00611300393939" lon="-2.713149972259998">
        <ele>1599.5</ele>
        <time>2013-04-13T12:57:13Z</time>
      </trkpt>
      <trkpt lat="38.006300004199147" lon="-2.713157013058662">
        <ele>1599.2</ele>
        <time>2013-04-13T12:57:15Z</time>
      </trkpt>
      <trkpt lat="38.006488010287285" lon="-2.713160030543804">
        <ele>1598.5999999999999</ele>
        <time>2013-04-13T12:57:17Z</time>
      </trkpt>
      <trkpt lat="38.006744999438524" lon="-2.713119965046644">
        <ele>1597.8</ele>
        <time>2013-04-13T12:57:20Z</time>
      </trkpt>
      <trkpt lat="38.00699201412499" lon="-2.713058022782207">
        <ele>1597.4000000000001</ele>
        <time>2013-04-13T12:57:23Z</time>
      </trkpt>
      <trkpt lat="38.007237017154694" lon="-2.712997002527118">
        <ele>1597.3</ele>
        <time>2013-04-13T12:57:26Z</time>
      </trkpt>
      <trkpt lat="38.007476991042495" lon="-2.712943023070693">
        <ele>1597</ele>
        <time>2013-04-13T12:57:29Z</time>
      </trkpt>
      <trkpt lat="38.007717970758677" lon="-2.712891977280378">
        <ele>1596.4000000000001</ele>
        <time>2013-04-13T12:57:32Z</time>
      </trkpt>
      <trkpt lat="38.007966997101903" lon="-2.712791981175542">
        <ele>1595.5999999999999</ele>
        <time>2013-04-13T12:57:35Z</time>
      </trkpt>
      <trkpt lat="38.008139999583364" lon="-2.712712017819285">
        <ele>1594.9000000000001</ele>
        <time>2013-04-13T12:57:37Z</time>
      </trkpt>
      <trkpt lat="38.008311996236444" lon="-2.712642028927803">
        <ele>1594.0999999999999</ele>
        <time>2013-04-13T12:57:39Z</time>
      </trkpt>
      <trkpt lat="38.008554987609386" lon="-2.712534992024303">
        <ele>1593.8</ele>
        <time>2013-04-13T12:57:42Z</time>
      </trkpt>
      <trkpt lat="38.008726984262466" lon="-2.712442958727479">
        <ele>1594</ele>
        <time>2013-04-13T12:57:44Z</time>
      </trkpt>
      <trkpt lat="38.00888498313725" lon="-2.712322007864714">
        <ele>1593.9000000000001</ele>
        <time>2013-04-13T12:57:46Z</time>
      </trkpt>
      <trkpt lat="38.009038036689162" lon="-2.712192004546523">
        <ele>1593.9000000000001</ele>
        <time>2013-04-13T12:57:48Z</time>
      </trkpt>
      <trkpt lat="38.009205004200339" lon="-2.712083039805293">
        <ele>1593.8</ele>
        <time>2013-04-13T12:57:50Z</time>
      </trkpt>
      <trkpt lat="38.009387981146574" lon="-2.712010033428669">
        <ele>1593.9000000000001</ele>
        <time>2013-04-13T12:57:52Z</time>
      </trkpt>
      <trkpt lat="38.009567018598318" lon="-2.711939960718155">
        <ele>1594.0999999999999</ele>
        <time>2013-04-13T12:57:54Z</time>
      </trkpt>
      <trkpt lat="38.009738009423018" lon="-2.711856979876757">
        <ele>1594.4000000000001</ele>
        <time>2013-04-13T12:57:56Z</time>
      </trkpt>
      <trkpt lat="38.009898019954562" lon="-2.711742985993624">
        <ele>1594.4000000000001</ele>
        <time>2013-04-13T12:57:58Z</time>
      </trkpt>
      <trkpt lat="38.01004302687943" lon="-2.711596973240376">
        <ele>1593.9000000000001</ele>
        <time>2013-04-13T12:58:00Z</time>
      </trkpt>
      <trkpt lat="38.010198008269072" lon="-2.711463030427694">
        <ele>1593.5</ele>
        <time>2013-04-13T12:58:02Z</time>
      </trkpt>
      <trkpt lat="38.010364975780249" lon="-2.711322968825698">
        <ele>1593.3</ele>
        <time>2013-04-13T12:58:04Z</time>
      </trkpt>
      <trkpt lat="38.010545019060373" lon="-2.711202017962933">
        <ele>1593.0999999999999</ele>
        <time>2013-04-13T12:58:06Z</time>
      </trkpt>
      <trkpt lat="38.01073201932013" lon="-2.711094981059432">
        <ele>1592.5999999999999</ele>
        <time>2013-04-13T12:58:08Z</time>
      </trkpt>
      <trkpt lat="38.010918013751507" lon="-2.711000014096499">
        <ele>1592</ele>
        <time>2013-04-13T12:58:10Z</time>
      </trkpt>
      <trkpt lat="38.011107025668025" lon="-2.710907980799675">
        <ele>1591.4000000000001</ele>
        <time>2013-04-13T12:58:12Z</time>
      </trkpt>
      <trkpt lat="38.011296959593892" lon="-2.7108099963516">
        <ele>1590.8</ele>
        <time>2013-04-13T12:58:14Z</time>
      </trkpt>
      <trkpt lat="38.011501980945468" lon="-2.710713017731905">
        <ele>1590.2</ele>
        <time>2013-04-13T12:58:16Z</time>
      </trkpt>
      <trkpt lat="38.011722005903721" lon="-2.710630036890507">
        <ele>1589.7</ele>
        <time>2013-04-13T12:58:18Z</time>
      </trkpt>
      <trkpt lat="38.011946976184845" lon="-2.710577985271812">
        <ele>1589.0999999999999</ele>
        <time>2013-04-13T12:58:20Z</time>
      </trkpt>
      <trkpt lat="38.012174963951111" lon="-2.710546972230077">
        <ele>1588.5</ele>
        <time>2013-04-13T12:58:22Z</time>
      </trkpt>
      <trkpt lat="38.012409992516041" lon="-2.710542026907206">
        <ele>1588</ele>
        <time>2013-04-13T12:58:24Z</time>
      </trkpt>
      <trkpt lat="38.012645021080971" lon="-2.710570022463799">
        <ele>1587.3</ele>
        <time>2013-04-13T12:58:26Z</time>
      </trkpt>
      <trkpt lat="38.012872003018856" lon="-2.710627019405365">
        <ele>1586.5999999999999</ele>
        <time>2013-04-13T12:58:28Z</time>
      </trkpt>
      <trkpt lat="38.013094961643219" lon="-2.710687033832073">
        <ele>1586.0999999999999</ele>
        <time>2013-04-13T12:58:30Z</time>
      </trkpt>
      <trkpt lat="38.013320015743375" lon="-2.710713017731905">
        <ele>1585.5999999999999</ele>
        <time>2013-04-13T12:58:32Z</time>
      </trkpt>
      <trkpt lat="38.013541968539357" lon="-2.710717963054776">
        <ele>1585.5999999999999</ele>
        <time>2013-04-13T12:58:34Z</time>
      </trkpt>
      <trkpt lat="38.013768028467894" lon="-2.710732966661453">
        <ele>1585.8</ele>
        <time>2013-04-13T12:58:36Z</time>
      </trkpt>
      <trkpt lat="38.013987969607115" lon="-2.710728021338582">
        <ele>1585.8</ele>
        <time>2013-04-13T12:58:38Z</time>
      </trkpt>
      <trkpt lat="38.014200031757355" lon="-2.710734978318214">
        <ele>1586</ele>
        <time>2013-04-13T12:58:40Z</time>
      </trkpt>
      <trkpt lat="38.014417961239815" lon="-2.710737995803356">
        <ele>1585.9000000000001</ele>
        <time>2013-04-13T12:58:42Z</time>
      </trkpt>
      <trkpt lat="38.01462197676301" lon="-2.710691979154944">
        <ele>1585.7</ele>
        <time>2013-04-13T12:58:44Z</time>
      </trkpt>
      <trkpt lat="38.014877960085869" lon="-2.710589971393347">
        <ele>1585.7</ele>
        <time>2013-04-13T12:58:47Z</time>
      </trkpt>
      <trkpt lat="38.015073006972671" lon="-2.71057496778667">
        <ele>1585.4000000000001</ele>
        <time>2013-04-13T12:58:49Z</time>
      </trkpt>
      <trkpt lat="38.015294959768653" lon="-2.7105319686234">
        <ele>1584.7</ele>
        <time>2013-04-13T12:58:51Z</time>
      </trkpt>
      <trkpt lat="38.015518002212048" lon="-2.710476983338594">
        <ele>1584.2</ele>
        <time>2013-04-13T12:58:53Z</time>
      </trkpt>
      <trkpt lat="38.01573702134192" lon="-2.710412023589015">
        <ele>1583.9000000000001</ele>
        <time>2013-04-13T12:58:55Z</time>
      </trkpt>
      <trkpt lat="38.015946988016367" lon="-2.710334993898869">
        <ele>1583.7</ele>
        <time>2013-04-13T12:58:57Z</time>
      </trkpt>
      <trkpt lat="38.016143040731549" lon="-2.710261987522245">
        <ele>1583.7</ele>
        <time>2013-04-13T12:58:59Z</time>
      </trkpt>
      <trkpt lat="38.016323000192642" lon="-2.710135001689196">
        <ele>1583.2</ele>
        <time>2013-04-13T12:59:01Z</time>
      </trkpt>
      <trkpt lat="38.016489967703819" lon="-2.709987983107567">
        <ele>1582.5999999999999</ele>
        <time>2013-04-13T12:59:03Z</time>
      </trkpt>
      <trkpt lat="38.016649978235364" lon="-2.709868038073182">
        <ele>1582.0999999999999</ele>
        <time>2013-04-13T12:59:05Z</time>
      </trkpt>
      <trkpt lat="38.016852987930179" lon="-2.709722025319934">
        <ele>1581.5</ele>
        <time>2013-04-13T12:59:08Z</time>
      </trkpt>
      <trkpt lat="38.017015010118484" lon="-2.70960995927453">
        <ele>1581.3</ele>
        <time>2013-04-13T12:59:11Z</time>
      </trkpt>
      <trkpt lat="38.017178038135171" lon="-2.709466964006424">
        <ele>1581.3</ele>
        <time>2013-04-13T12:59:14Z</time>
      </trkpt>
      <trkpt lat="38.017360009253025" lon="-2.709233025088906">
        <ele>1581.9000000000001</ele>
        <time>2013-04-13T12:59:17Z</time>
      </trkpt>
      <trkpt lat="38.017524965107441" lon="-2.708966983482242">
        <ele>1582.5999999999999</ele>
        <time>2013-04-13T12:59:20Z</time>
      </trkpt>
      <trkpt lat="38.017632002010942" lon="-2.708773026242852">
        <ele>1582.8</ele>
        <time>2013-04-13T12:59:22Z</time>
      </trkpt>
      <trkpt lat="38.017738033086061" lon="-2.708583008497953">
        <ele>1582.5999999999999</ele>
        <time>2013-04-13T12:59:24Z</time>
      </trkpt>
      <trkpt lat="38.017856972292066" lon="-2.708391984924674">
        <ele>1582.3</ele>
        <time>2013-04-13T12:59:26Z</time>
      </trkpt>
      <trkpt lat="38.017982030287385" lon="-2.708187969401479">
        <ele>1581.5999999999999</ele>
        <time>2013-04-13T12:59:28Z</time>
      </trkpt>
      <trkpt lat="38.01812200807035" lon="-2.708007004112005">
        <ele>1580.8</ele>
        <time>2013-04-13T12:59:30Z</time>
      </trkpt>
      <trkpt lat="38.018312025815248" lon="-2.707855040207505">
        <ele>1580.5999999999999</ele>
        <time>2013-04-13T12:59:32Z</time>
      </trkpt>
      <trkpt lat="38.018506988883018" lon="-2.707763006910682">
        <ele>1580.4000000000001</ele>
        <time>2013-04-13T12:59:34Z</time>
      </trkpt>
      <trkpt lat="38.018676973879337" lon="-2.707665022462606">
        <ele>1579.9000000000001</ele>
        <time>2013-04-13T12:59:36Z</time>
      </trkpt>
      <trkpt lat="38.01883296109736" lon="-2.707526972517371">
        <ele>1579.5</ele>
        <time>2013-04-13T12:59:38Z</time>
      </trkpt>
      <trkpt lat="38.01898199133575" lon="-2.707382971420884">
        <ele>1579</ele>
        <time>2013-04-13T12:59:40Z</time>
      </trkpt>
      <trkpt lat="38.019162034615874" lon="-2.70713503472507">
        <ele>1578.4000000000001</ele>
        <time>2013-04-13T12:59:43Z</time>
      </trkpt>
      <trkpt lat="38.019354986026883" lon="-2.706915009766817">
        <ele>1577.8</ele>
        <time>2013-04-13T12:59:46Z</time>
      </trkpt>
      <trkpt lat="38.01951801404357" lon="-2.706794980913401">
        <ele>1577.2</ele>
        <time>2013-04-13T12:59:48Z</time>
      </trkpt>
      <trkpt lat="38.019687999039888" lon="-2.706651985645294">
        <ele>1576.2</ele>
        <time>2013-04-13T12:59:50Z</time>
      </trkpt>
      <trkpt lat="38.019853038713336" lon="-2.706476971507072">
        <ele>1575.0999999999999</ele>
        <time>2013-04-13T12:59:52Z</time>
      </trkpt>
      <trkpt lat="38.020005002617836" lon="-2.706279996782541">
        <ele>1574.8</ele>
        <time>2013-04-13T12:59:54Z</time>
      </trkpt>
      <trkpt lat="38.020169958472252" lon="-2.706101965159178">
        <ele>1574.5999999999999</ele>
        <time>2013-04-13T12:59:56Z</time>
      </trkpt>
      <trkpt lat="38.020342960953712" lon="-2.705968022346497">
        <ele>1573.8</ele>
        <time>2013-04-13T12:59:58Z</time>
      </trkpt>
      <trkpt lat="38.020492997020483" lon="-2.705835001543164">
        <ele>1573</ele>
        <time>2013-04-13T13:00:00Z</time>
      </trkpt>
      <trkpt lat="38.020621994510293" lon="-2.705597961321473">
        <ele>1571.9000000000001</ele>
        <time>2013-04-13T13:00:03Z</time>
      </trkpt>
      <trkpt lat="38.020653007552028" lon="-2.705335021018982">
        <ele>1571.7</ele>
        <time>2013-04-13T13:00:06Z</time>
      </trkpt>
      <trkpt lat="38.020674968138337" lon="-2.705092029646039">
        <ele>1571.2</ele>
        <time>2013-04-13T13:00:09Z</time>
      </trkpt>
      <trkpt lat="38.020691983401775" lon="-2.704796986654401">
        <ele>1569.9000000000001</ele>
        <time>2013-04-13T13:00:13Z</time>
      </trkpt>
      <trkpt lat="38.020810000598431" lon="-2.704581990838051">
        <ele>1569</ele>
        <time>2013-04-13T13:00:16Z</time>
      </trkpt>
      <trkpt lat="38.020925000309944" lon="-2.704403037205339">
        <ele>1568.3</ele>
        <time>2013-04-13T13:00:18Z</time>
      </trkpt>
      <trkpt lat="38.021040000021458" lon="-2.704212013632059">
        <ele>1567.8</ele>
        <time>2013-04-13T13:00:20Z</time>
      </trkpt>
      <trkpt lat="38.021115018054843" lon="-2.704002968966961">
        <ele>1567.8</ele>
        <time>2013-04-13T13:00:22Z</time>
      </trkpt>
      <trkpt lat="38.021233035251498" lon="-2.703738017007709">
        <ele>1567.3</ele>
        <time>2013-04-13T13:00:25Z</time>
      </trkpt>
      <trkpt lat="38.021366978064179" lon="-2.703582029789686">
        <ele>1566.4000000000001</ele>
        <time>2013-04-13T13:00:27Z</time>
      </trkpt>
      <trkpt lat="38.021512990817428" lon="-2.703407015651465">
        <ele>1565.8</ele>
        <time>2013-04-13T13:00:29Z</time>
      </trkpt>
      <trkpt lat="38.021652968600392" lon="-2.703235018998385">
        <ele>1565.4000000000001</ele>
        <time>2013-04-13T13:00:31Z</time>
      </trkpt>
      <trkpt lat="38.021778026595712" lon="-2.703066961839795">
        <ele>1564.5999999999999</ele>
        <time>2013-04-13T13:00:33Z</time>
      </trkpt>
      <trkpt lat="38.021857989951968" lon="-2.702854983508587">
        <ele>1564.3</ele>
        <time>2013-04-13T13:00:35Z</time>
      </trkpt>
      <trkpt lat="38.021905012428761" lon="-2.702609980478883">
        <ele>1563.7</ele>
        <time>2013-04-13T13:00:37Z</time>
      </trkpt>
      <trkpt lat="38.021954968571663" lon="-2.702358020469546">
        <ele>1563</ele>
        <time>2013-04-13T13:00:39Z</time>
      </trkpt>
      <trkpt lat="38.022011965513229" lon="-2.702128021046519">
        <ele>1562.4000000000001</ele>
        <time>2013-04-13T13:00:41Z</time>
      </trkpt>
      <trkpt lat="38.022080026566982" lon="-2.70191696472466">
        <ele>1563</ele>
        <time>2013-04-13T13:00:43Z</time>
      </trkpt>
      <trkpt lat="38.022172981873155" lon="-2.701700041070581">
        <ele>1563.4000000000001</ele>
        <time>2013-04-13T13:00:46Z</time>
      </trkpt>
      <trkpt lat="38.022201983258128" lon="-2.701407009735704">
        <ele>1563.5</ele>
        <time>2013-04-13T13:00:51Z</time>
      </trkpt>
      <trkpt lat="38.022212963551283" lon="-2.701118001714349">
        <ele>1563.5</ele>
        <time>2013-04-13T13:00:54Z</time>
      </trkpt>
      <trkpt lat="38.022192008793354" lon="-2.700790017843247">
        <ele>1563.3</ele>
        <time>2013-04-13T13:00:57Z</time>
      </trkpt>
      <trkpt lat="38.022174993529916" lon="-2.700562030076981">
        <ele>1562.9000000000001</ele>
        <time>2013-04-13T13:00:59Z</time>
      </trkpt>
      <trkpt lat="38.022195026278496" lon="-2.700221976265311">
        <ele>1561.7</ele>
        <time>2013-04-13T13:01:02Z</time>
      </trkpt>
      <trkpt lat="38.022280018776655" lon="-2.699907990172505">
        <ele>1560.3</ele>
        <time>2013-04-13T13:01:05Z</time>
      </trkpt>
      <trkpt lat="38.022342966869473" lon="-2.699586963281035">
        <ele>1559.9000000000001</ele>
        <time>2013-04-13T13:01:08Z</time>
      </trkpt>
      <trkpt lat="38.022368028759956" lon="-2.699256967753172">
        <ele>1559.5</ele>
        <time>2013-04-13T13:01:11Z</time>
      </trkpt>
      <trkpt lat="38.022404992952943" lon="-2.698938036337495">
        <ele>1559.0999999999999</ele>
        <time>2013-04-13T13:01:14Z</time>
      </trkpt>
      <trkpt lat="38.0224400293082" lon="-2.698609968647361">
        <ele>1559.2</ele>
        <time>2013-04-13T13:01:17Z</time>
      </trkpt>
      <trkpt lat="38.022474981844425" lon="-2.698315009474754">
        <ele>1559.8</ele>
        <time>2013-04-13T13:01:20Z</time>
      </trkpt>
      <trkpt lat="38.02244296297431" lon="-2.698021978139877">
        <ele>1560.0999999999999</ele>
        <time>2013-04-13T13:01:23Z</time>
      </trkpt>
      <trkpt lat="38.022457966580987" lon="-2.697716960683465">
        <ele>1559.7</ele>
        <time>2013-04-13T13:01:26Z</time>
      </trkpt>
      <trkpt lat="38.022582018747926" lon="-2.697457037866116">
        <ele>1558.7</ele>
        <time>2013-04-13T13:01:29Z</time>
      </trkpt>
      <trkpt lat="38.02278502844274" lon="-2.697268025949597">
        <ele>1557.3</ele>
        <time>2013-04-13T13:01:32Z</time>
      </trkpt>
      <trkpt lat="38.0230219848454" lon="-2.697117989882827">
        <ele>1555.7</ele>
        <time>2013-04-13T13:01:35Z</time>
      </trkpt>
      <trkpt lat="38.023243015632033" lon="-2.696929983794689">
        <ele>1554.4000000000001</ele>
        <time>2013-04-13T13:01:38Z</time>
      </trkpt>
      <trkpt lat="38.023396991193295" lon="-2.696795035153627">
        <ele>1553.7</ele>
        <time>2013-04-13T13:01:40Z</time>
      </trkpt>
      <trkpt lat="38.023552978411317" lon="-2.696654973551631">
        <ele>1553</ele>
        <time>2013-04-13T13:01:42Z</time>
      </trkpt>
      <trkpt lat="38.023724975064397" lon="-2.696541985496879">
        <ele>1552.7</ele>
        <time>2013-04-13T13:01:44Z</time>
      </trkpt>
      <trkpt lat="38.023899989202619" lon="-2.696452969685197">
        <ele>1552.5999999999999</ele>
        <time>2013-04-13T13:01:46Z</time>
      </trkpt>
      <trkpt lat="38.024067962542176" lon="-2.696366971358657">
        <ele>1552.7</ele>
        <time>2013-04-13T13:01:48Z</time>
      </trkpt>
      <trkpt lat="38.024307014420629" lon="-2.696215007454157">
        <ele>1552.5</ele>
        <time>2013-04-13T13:01:51Z</time>
      </trkpt>
      <trkpt lat="38.02448202855885" lon="-2.695982996374369">
        <ele>1552.5</ele>
        <time>2013-04-13T13:01:54Z</time>
      </trkpt>
      <trkpt lat="38.024637009948492" lon="-2.695702034980059">
        <ele>1551.4000000000001</ele>
        <time>2013-04-13T13:01:57Z</time>
      </trkpt>
      <trkpt lat="38.024700041860342" lon="-2.695487039163709">
        <ele>1550.5</ele>
        <time>2013-04-13T13:01:59Z</time>
      </trkpt>
      <trkpt lat="38.024723008275032" lon="-2.695249998942018">
        <ele>1549.8</ele>
        <time>2013-04-13T13:02:01Z</time>
      </trkpt>
      <trkpt lat="38.024706998839974" lon="-2.694922015070915">
        <ele>1548.4000000000001</ele>
        <time>2013-04-13T13:02:04Z</time>
      </trkpt>
      <trkpt lat="38.02463298663497" lon="-2.694644993171096">
        <ele>1546.5</ele>
        <time>2013-04-13T13:02:07Z</time>
      </trkpt>
      <trkpt lat="38.024537013843656" lon="-2.694342993199825">
        <ele>1543.7</ele>
        <time>2013-04-13T13:02:10Z</time>
      </trkpt>
      <trkpt lat="38.02450499497354" lon="-2.694022972136736">
        <ele>1542.0999999999999</ele>
        <time>2013-04-13T13:02:13Z</time>
      </trkpt>
      <trkpt lat="38.024512035772204" lon="-2.693790039047599">
        <ele>1542</ele>
        <time>2013-04-13T13:02:15Z</time>
      </trkpt>
      <trkpt lat="38.024456966668367" lon="-2.693477980792522">
        <ele>1541.5</ele>
        <time>2013-04-13T13:02:18Z</time>
      </trkpt>
      <trkpt lat="38.024408016353846" lon="-2.693217974156141">
        <ele>1541.8</ele>
        <time>2013-04-13T13:02:21Z</time>
      </trkpt>
      <trkpt lat="38.024377003312111" lon="-2.69295796751976">
        <ele>1543.4000000000001</ele>
        <time>2013-04-13T13:02:24Z</time>
      </trkpt>
      <trkpt lat="38.024387983605266" lon="-2.69269703887403">
        <ele>1544.8</ele>
        <time>2013-04-13T13:02:27Z</time>
      </trkpt>
      <trkpt lat="38.024455038830638" lon="-2.692447006702423">
        <ele>1545.4000000000001</ele>
        <time>2013-04-13T13:02:30Z</time>
      </trkpt>
      <trkpt lat="38.024576995521784" lon="-2.692194962874055">
        <ele>1545.3</ele>
        <time>2013-04-13T13:02:33Z</time>
      </trkpt>
      <trkpt lat="38.024683026596904" lon="-2.691999999806285">
        <ele>1545.3</ele>
        <time>2013-04-13T13:02:35Z</time>
      </trkpt>
      <trkpt lat="38.024800037965178" lon="-2.691792966797948">
        <ele>1545.8</ele>
        <time>2013-04-13T13:02:37Z</time>
      </trkpt>
      <trkpt lat="38.024923000484705" lon="-2.6916020270437">
        <ele>1546.9000000000001</ele>
        <time>2013-04-13T13:02:39Z</time>
      </trkpt>
      <trkpt lat="38.025045040994883" lon="-2.691425001248717">
        <ele>1548.2</ele>
        <time>2013-04-13T13:02:41Z</time>
      </trkpt>
      <trkpt lat="38.025194993242621" lon="-2.691157031804323">
        <ele>1549.0999999999999</ele>
        <time>2013-04-13T13:02:44Z</time>
      </trkpt>
      <trkpt lat="38.025366989895701" lon="-2.690925020724535">
        <ele>1548.0999999999999</ele>
        <time>2013-04-13T13:02:47Z</time>
      </trkpt>
      <trkpt lat="38.025522977113724" lon="-2.690767021849752">
        <ele>1546.9000000000001</ele>
        <time>2013-04-13T13:02:49Z</time>
      </trkpt>
      <trkpt lat="38.025681981816888" lon="-2.690589996054769">
        <ele>1546</ele>
        <time>2013-04-13T13:02:51Z</time>
      </trkpt>
      <trkpt lat="38.025821959599853" lon="-2.690410036593676">
        <ele>1544.8</ele>
        <time>2013-04-13T13:02:53Z</time>
      </trkpt>
      <trkpt lat="38.025927990674973" lon="-2.690117005258799">
        <ele>1542.2</ele>
        <time>2013-04-13T13:02:56Z</time>
      </trkpt>
      <trkpt lat="38.025935031473637" lon="-2.689826991409063">
        <ele>1539.7</ele>
        <time>2013-04-13T13:02:59Z</time>
      </trkpt>
      <trkpt lat="38.025930002331734" lon="-2.689528008922935">
        <ele>1537.5999999999999</ele>
        <time>2013-04-13T13:03:02Z</time>
      </trkpt>
      <trkpt lat="38.025950035080314" lon="-2.689252998679876">
        <ele>1535.4000000000001</ele>
        <time>2013-04-13T13:03:05Z</time>
      </trkpt>
      <trkpt lat="38.02600703202188" lon="-2.688982011750341">
        <ele>1533.2</ele>
        <time>2013-04-13T13:03:08Z</time>
      </trkpt>
      <trkpt lat="38.026048019528389" lon="-2.688704989850521">
        <ele>1531.5</ele>
        <time>2013-04-13T13:03:11Z</time>
      </trkpt>
      <trkpt lat="38.02605195902288" lon="-2.68846501596272">
        <ele>1530</ele>
        <time>2013-04-13T13:03:14Z</time>
      </trkpt>
      <trkpt lat="38.025993034243584" lon="-2.688233004882932">
        <ele>1528.5999999999999</ele>
        <time>2013-04-13T13:03:17Z</time>
      </trkpt>
      <trkpt lat="38.02587803453207" lon="-2.688047010451555">
        <ele>1527.4000000000001</ele>
        <time>2013-04-13T13:03:20Z</time>
      </trkpt>
      <trkpt lat="38.025766974315047" lon="-2.68782296217978">
        <ele>1526.4000000000001</ele>
        <time>2013-04-13T13:03:23Z</time>
      </trkpt>
      <trkpt lat="38.025697991251945" lon="-2.687588017433882">
        <ele>1525.7</ele>
        <time>2013-04-13T13:03:26Z</time>
      </trkpt>
      <trkpt lat="38.02568499930203" lon="-2.687342008575797">
        <ele>1524.4000000000001</ele>
        <time>2013-04-13T13:03:30Z</time>
      </trkpt>
      <trkpt lat="38.02564300596714" lon="-2.687034979462624">
        <ele>1522.2</ele>
        <time>2013-04-13T13:03:34Z</time>
      </trkpt>
      <trkpt lat="38.025549966841936" lon="-2.686819983646274">
        <ele>1520.4000000000001</ele>
        <time>2013-04-13T13:03:37Z</time>
      </trkpt>
      <trkpt lat="38.025452988222241" lon="-2.686597025021911">
        <ele>1518.5</ele>
        <time>2013-04-13T13:03:40Z</time>
      </trkpt>
      <trkpt lat="38.025375036522746" lon="-2.68633802421391">
        <ele>1516.7</ele>
        <time>2013-04-13T13:03:43Z</time>
      </trkpt>
      <trkpt lat="38.025303035974503" lon="-2.686084974557161">
        <ele>1515.0999999999999</ele>
        <time>2013-04-13T13:03:46Z</time>
      </trkpt>
      <trkpt lat="38.025273028761148" lon="-2.685797978192568">
        <ele>1513</ele>
        <time>2013-04-13T13:03:50Z</time>
      </trkpt>
      <trkpt lat="38.02527504041791" lon="-2.685506958514452">
        <ele>1510.8</ele>
        <time>2013-04-13T13:03:54Z</time>
      </trkpt>
      <trkpt lat="38.025273028761148" lon="-2.685262961313129">
        <ele>1509</ele>
        <time>2013-04-13T13:03:57Z</time>
      </trkpt>
      <trkpt lat="38.025237992405891" lon="-2.685021981596947">
        <ele>1507</ele>
        <time>2013-04-13T13:04:00Z</time>
      </trkpt>
      <trkpt lat="38.02517001517117" lon="-2.684787036851049">
        <ele>1505.4000000000001</ele>
        <time>2013-04-13T13:04:03Z</time>
      </trkpt>
      <trkpt lat="38.025091979652643" lon="-2.684572963044047">
        <ele>1504</ele>
        <time>2013-04-13T13:04:06Z</time>
      </trkpt>
      <trkpt lat="38.024961976334453" lon="-2.684317985549569">
        <ele>1502.7</ele>
        <time>2013-04-13T13:04:10Z</time>
      </trkpt>
      <trkpt lat="38.024838007986546" lon="-2.684152023866773">
        <ele>1501.8</ele>
        <time>2013-04-13T13:04:13Z</time>
      </trkpt>
      <trkpt lat="38.024704987183213" lon="-2.683987990021706">
        <ele>1500.5</ele>
        <time>2013-04-13T13:04:19Z</time>
      </trkpt>
      <trkpt lat="38.024523016065359" lon="-2.683865027502179">
        <ele>1501.0999999999999</ele>
        <time>2013-04-13T13:04:24Z</time>
      </trkpt>
      <trkpt lat="38.024365017190576" lon="-2.683722032234073">
        <ele>1500.3</ele>
        <time>2013-04-13T13:04:27Z</time>
      </trkpt>
      <trkpt lat="38.02420299500227" lon="-2.683579958975315">
        <ele>1498.3</ele>
        <time>2013-04-13T13:04:30Z</time>
      </trkpt>
      <trkpt lat="38.024071985855699" lon="-2.683407962322235">
        <ele>1496.7</ele>
        <time>2013-04-13T13:04:33Z</time>
      </trkpt>
      <trkpt lat="38.023932008072734" lon="-2.683166982606053">
        <ele>1495</ele>
        <time>2013-04-13T13:04:37Z</time>
      </trkpt>
      <trkpt lat="38.023792030289769" lon="-2.68294301815331">
        <ele>1495.2</ele>
        <time>2013-04-13T13:04:41Z</time>
      </trkpt>
      <trkpt lat="38.023637970909476" lon="-2.682803040370345">
        <ele>1495</ele>
        <time>2013-04-13T13:04:44Z</time>
      </trkpt>
      <trkpt lat="38.023466980084777" lon="-2.682630037888885">
        <ele>1493.5999999999999</ele>
        <time>2013-04-13T13:04:48Z</time>
      </trkpt>
      <trkpt lat="38.023324990645051" lon="-2.682482013478875">
        <ele>1493</ele>
        <time>2013-04-13T13:04:55Z</time>
      </trkpt>
      <trkpt lat="38.023155005648732" lon="-2.682316973805428">
        <ele>1493.9000000000001</ele>
        <time>2013-04-13T13:05:00Z</time>
      </trkpt>
      <trkpt lat="38.023081999272108" lon="-2.682074988260865">
        <ele>1493.5999999999999</ele>
        <time>2013-04-13T13:05:04Z</time>
      </trkpt>
      <trkpt lat="38.02300002425909" lon="-2.681854963302612">
        <ele>1492.0999999999999</ele>
        <time>2013-04-13T13:05:10Z</time>
      </trkpt>
      <trkpt lat="38.022838002070785" lon="-2.681735018268228">
        <ele>1492.9000000000001</ele>
        <time>2013-04-13T13:05:19Z</time>
      </trkpt>
      <trkpt lat="38.02265502512455" lon="-2.681667041033506">
        <ele>1492.9000000000001</ele>
        <time>2013-04-13T13:05:23Z</time>
      </trkpt>
      <trkpt lat="38.022442040964961" lon="-2.681554974988103">
        <ele>1493</ele>
        <time>2013-04-13T13:05:28Z</time>
      </trkpt>
      <trkpt lat="38.022283036261797" lon="-2.681409968063235">
        <ele>1492.5999999999999</ele>
        <time>2013-04-13T13:05:32Z</time>
      </trkpt>
      <trkpt lat="38.022199971601367" lon="-2.681192960590124">
        <ele>1490.5999999999999</ele>
        <time>2013-04-13T13:05:36Z</time>
      </trkpt>
      <trkpt lat="38.022123025730252" lon="-2.680987017229199">
        <ele>1487.8</ele>
        <time>2013-04-13T13:05:41Z</time>
      </trkpt>
      <trkpt lat="38.022074997425079" lon="-2.680691974237561">
        <ele>1487</ele>
        <time>2013-04-13T13:05:46Z</time>
      </trkpt>
      <trkpt lat="38.022042978554964" lon="-2.680432973429561">
        <ele>1486.5999999999999</ele>
        <time>2013-04-13T13:05:49Z</time>
      </trkpt>
      <trkpt lat="38.021982964128256" lon="-2.680159974843264">
        <ele>1485.5</ele>
        <time>2013-04-13T13:05:52Z</time>
      </trkpt>
      <trkpt lat="38.021896965801716" lon="-2.679910026490688">
        <ele>1484.5</ele>
        <time>2013-04-13T13:05:55Z</time>
      </trkpt>
      <trkpt lat="38.021856984123588" lon="-2.679639961570501">
        <ele>1483.0999999999999</ele>
        <time>2013-04-13T13:05:58Z</time>
      </trkpt>
      <trkpt lat="38.021872993558645" lon="-2.6793999876827">
        <ele>1481.4000000000001</ele>
        <time>2013-04-13T13:06:02Z</time>
      </trkpt>
      <trkpt lat="38.021866958588362" lon="-2.679124977439642">
        <ele>1479.3</ele>
        <time>2013-04-13T13:06:07Z</time>
      </trkpt>
      <trkpt lat="38.02179797552526" lon="-2.678885003551841">
        <ele>1478.5</ele>
        <time>2013-04-13T13:06:11Z</time>
      </trkpt>
      <trkpt lat="38.021611981093884" lon="-2.678745025768876">
        <ele>1477.5999999999999</ele>
        <time>2013-04-13T13:06:18Z</time>
      </trkpt>
      <trkpt lat="38.021472003310919" lon="-2.678585015237331">
        <ele>1476.9000000000001</ele>
        <time>2013-04-13T13:06:25Z</time>
      </trkpt>
      <trkpt lat="38.021320039406419" lon="-2.678338000550866">
        <ele>1477</ele>
        <time>2013-04-13T13:06:29Z</time>
      </trkpt>
      <trkpt lat="38.021211996674538" lon="-2.678057039156556">
        <ele>1476.4000000000001</ele>
        <time>2013-04-13T13:06:32Z</time>
      </trkpt>
      <trkpt lat="38.021142007783055" lon="-2.677727965638042">
        <ele>1475.4000000000001</ele>
        <time>2013-04-13T13:06:35Z</time>
      </trkpt>
      <trkpt lat="38.021090039983392" lon="-2.677505007013679">
        <ele>1474.3</ele>
        <time>2013-04-13T13:06:37Z</time>
      </trkpt>
      <trkpt lat="38.021019967272878" lon="-2.677281964570284">
        <ele>1473.0999999999999</ele>
        <time>2013-04-13T13:06:39Z</time>
      </trkpt>
      <trkpt lat="38.020934974774718" lon="-2.677067974582315">
        <ele>1472.0999999999999</ele>
        <time>2013-04-13T13:06:41Z</time>
      </trkpt>
      <trkpt lat="38.020857023075223" lon="-2.67686203122139">
        <ele>1471.0999999999999</ele>
        <time>2013-04-13T13:06:43Z</time>
      </trkpt>
      <trkpt lat="38.020777981728315" lon="-2.676534969359636">
        <ele>1470</ele>
        <time>2013-04-13T13:06:46Z</time>
      </trkpt>
      <trkpt lat="38.020732970908284" lon="-2.676300024613738">
        <ele>1469.3</ele>
        <time>2013-04-13T13:06:48Z</time>
      </trkpt>
      <trkpt lat="38.020683014765382" lon="-2.676053009927273">
        <ele>1469</ele>
        <time>2013-04-13T13:06:50Z</time>
      </trkpt>
      <trkpt lat="38.020642027258873" lon="-2.675802977755666">
        <ele>1468.4000000000001</ele>
        <time>2013-04-13T13:06:52Z</time>
      </trkpt>
      <trkpt lat="38.020606990903616" lon="-2.675569960847497">
        <ele>1468.4000000000001</ele>
        <time>2013-04-13T13:06:54Z</time>
      </trkpt>
      <trkpt lat="38.020567009225488" lon="-2.675338033586741">
        <ele>1469</ele>
        <time>2013-04-13T13:06:56Z</time>
      </trkpt>
      <trkpt lat="38.0204869620502" lon="-2.675062017515302">
        <ele>1468.9000000000001</ele>
        <time>2013-04-13T13:06:59Z</time>
      </trkpt>
      <trkpt lat="38.020389983430505" lon="-2.674835035577416">
        <ele>1468.4000000000001</ele>
        <time>2013-04-13T13:07:04Z</time>
      </trkpt>
      <trkpt lat="38.02027297206223" lon="-2.674658009782434">
        <ele>1469</ele>
        <time>2013-04-13T13:07:09Z</time>
      </trkpt>
      <trkpt lat="38.020156966522336" lon="-2.674473021179438">
        <ele>1469.9000000000001</ele>
        <time>2013-04-13T13:07:12Z</time>
      </trkpt>
      <trkpt lat="38.020026963204145" lon="-2.674281997606158">
        <ele>1470.4000000000001</ele>
        <time>2013-04-13T13:07:15Z</time>
      </trkpt>
      <trkpt lat="38.019953034818172" lon="-2.674047974869609">
        <ele>1470.5999999999999</ele>
        <time>2013-04-13T13:07:18Z</time>
      </trkpt>
      <trkpt lat="38.019922021776438" lon="-2.67377195879817">
        <ele>1470.3</ele>
        <time>2013-04-13T13:07:21Z</time>
      </trkpt>
      <trkpt lat="38.019837029278278" lon="-2.673531984910369">
        <ele>1469.4000000000001</ele>
        <time>2013-04-13T13:07:24Z</time>
      </trkpt>
      <trkpt lat="38.019767040386796" lon="-2.673280024901032">
        <ele>1467.7</ele>
        <time>2013-04-13T13:07:29Z</time>
      </trkpt>
      <trkpt lat="38.019838035106659" lon="-2.673012977465987">
        <ele>1467</ele>
        <time>2013-04-13T13:07:34Z</time>
      </trkpt>
      <trkpt lat="38.019939959049225" lon="-2.672796975821257">
        <ele>1466.5</ele>
        <time>2013-04-13T13:07:37Z</time>
      </trkpt>
      <trkpt lat="38.020054958760738" lon="-2.67258801497519">
        <ele>1465.4000000000001</ele>
        <time>2013-04-13T13:07:40Z</time>
      </trkpt>
      <trkpt lat="38.020231984555721" lon="-2.672443008050323">
        <ele>1464.7</ele>
        <time>2013-04-13T13:07:43Z</time>
      </trkpt>
      <trkpt lat="38.020362993702292" lon="-2.672262964770198">
        <ele>1463.7</ele>
        <time>2013-04-13T13:07:46Z</time>
      </trkpt>
      <trkpt lat="38.020482016727328" lon="-2.672046963125467">
        <ele>1462.9000000000001</ele>
        <time>2013-04-13T13:07:50Z</time>
      </trkpt>
      <trkpt lat="38.020586958155036" lon="-2.671834984794259">
        <ele>1461</ele>
        <time>2013-04-13T13:08:00Z</time>
      </trkpt>
      <trkpt lat="38.020707992836833" lon="-2.671595010906458">
        <ele>1460.3</ele>
        <time>2013-04-13T13:08:05Z</time>
      </trkpt>
      <trkpt lat="38.020767001435161" lon="-2.671378003433347">
        <ele>1460.0999999999999</ele>
        <time>2013-04-13T13:08:08Z</time>
      </trkpt>
      <trkpt lat="38.020768007263541" lon="-2.671140041202307">
        <ele>1460</ele>
        <time>2013-04-13T13:08:11Z</time>
      </trkpt>
      <trkpt lat="38.020725008100271" lon="-2.670918004587293">
        <ele>1459.4000000000001</ele>
        <time>2013-04-13T13:08:14Z</time>
      </trkpt>
      <trkpt lat="38.020706987008452" lon="-2.670660009607673">
        <ele>1457</ele>
        <time>2013-04-13T13:08:20Z</time>
      </trkpt>
      <trkpt lat="38.020604979246855" lon="-2.670437972992659">
        <ele>1456</ele>
        <time>2013-04-13T13:08:24Z</time>
      </trkpt>
      <trkpt lat="38.020474975928664" lon="-2.670205039903522">
        <ele>1455.0999999999999</ele>
        <time>2013-04-13T13:08:27Z</time>
      </trkpt>
      <trkpt lat="38.020367017015815" lon="-2.669977974146605">
        <ele>1454.2</ele>
        <time>2013-04-13T13:08:30Z</time>
      </trkpt>
      <trkpt lat="38.020299961790442" lon="-2.669734982773662">
        <ele>1454</ele>
        <time>2013-04-13T13:08:33Z</time>
      </trkpt>
      <trkpt lat="38.020208012312651" lon="-2.669474976137281">
        <ele>1454.5</ele>
        <time>2013-04-13T13:08:37Z</time>
      </trkpt>
      <trkpt lat="38.020102987065911" lon="-2.669252017512918">
        <ele>1456.4000000000001</ele>
        <time>2013-04-13T13:08:42Z</time>
      </trkpt>
      <trkpt lat="38.019982958212495" lon="-2.669046996161342">
        <ele>1457.0999999999999</ele>
        <time>2013-04-13T13:08:46Z</time>
      </trkpt>
      <trkpt lat="38.019916992634535" lon="-2.668781960383058">
        <ele>1457.0999999999999</ele>
        <time>2013-04-13T13:08:50Z</time>
      </trkpt>
      <trkpt lat="38.019959991797805" lon="-2.668535029515624">
        <ele>1455.5</ele>
        <time>2013-04-13T13:08:54Z</time>
      </trkpt>
      <trkpt lat="38.020089995115995" lon="-2.668318022042513">
        <ele>1452.8</ele>
        <time>2013-04-13T13:09:02Z</time>
      </trkpt>
      <trkpt lat="38.02018697373569" lon="-2.668124986812472">
        <ele>1452.3</ele>
        <time>2013-04-13T13:09:07Z</time>
      </trkpt>
      <trkpt lat="38.020244976505637" lon="-2.667896999046207">
        <ele>1451.8</ele>
        <time>2013-04-13T13:09:13Z</time>
      </trkpt>
      <trkpt lat="38.020280012860894" lon="-2.667640009894967">
        <ele>1451.9000000000001</ele>
        <time>2013-04-13T13:09:17Z</time>
      </trkpt>
      <trkpt lat="38.020302979275584" lon="-2.667406992986798">
        <ele>1452.2</ele>
        <time>2013-04-13T13:09:20Z</time>
      </trkpt>
      <trkpt lat="38.020319994539022" lon="-2.667122008278966">
        <ele>1451.9000000000001</ele>
        <time>2013-04-13T13:09:24Z</time>
      </trkpt>
      <trkpt lat="38.020319994539022" lon="-2.666878011077642">
        <ele>1451.4000000000001</ele>
        <time>2013-04-13T13:09:28Z</time>
      </trkpt>
      <trkpt lat="38.020256962627172" lon="-2.666623033583164">
        <ele>1451.3</ele>
        <time>2013-04-13T13:09:31Z</time>
      </trkpt>
      <trkpt lat="38.020176999270916" lon="-2.666345005854964">
        <ele>1451.4000000000001</ele>
        <time>2013-04-13T13:09:34Z</time>
      </trkpt>
      <trkpt lat="38.020080020651221" lon="-2.66610000282526">
        <ele>1451.9000000000001</ele>
        <time>2013-04-13T13:09:37Z</time>
      </trkpt>
      <trkpt lat="38.01996803842485" lon="-2.665854999795556">
        <ele>1452.3</ele>
        <time>2013-04-13T13:09:40Z</time>
      </trkpt>
      <trkpt lat="38.019890002906322" lon="-2.665589964017272">
        <ele>1452.9000000000001</ele>
        <time>2013-04-13T13:09:43Z</time>
      </trkpt>
      <trkpt lat="38.019839962944388" lon="-2.665295004844666">
        <ele>1453</ele>
        <time>2013-04-13T13:09:46Z</time>
      </trkpt>
      <trkpt lat="38.019832000136375" lon="-2.664989987388253">
        <ele>1452.9000000000001</ele>
        <time>2013-04-13T13:09:49Z</time>
      </trkpt>
      <trkpt lat="38.019812973216176" lon="-2.66468295827508">
        <ele>1452.7</ele>
        <time>2013-04-13T13:09:52Z</time>
      </trkpt>
      <trkpt lat="38.019762011244893" lon="-2.66440199688077">
        <ele>1452.5</ele>
        <time>2013-04-13T13:09:55Z</time>
      </trkpt>
      <trkpt lat="38.019657991826534" lon="-2.664112988859415">
        <ele>1452.4000000000001</ele>
        <time>2013-04-13T13:09:58Z</time>
      </trkpt>
      <trkpt lat="38.019484989345074" lon="-2.663888018578291">
        <ele>1452.0999999999999</ele>
        <time>2013-04-13T13:10:01Z</time>
      </trkpt>
      <trkpt lat="38.019330007955432" lon="-2.663700012490153">
        <ele>1451.3</ele>
        <time>2013-04-13T13:10:04Z</time>
      </trkpt>
      <trkpt lat="38.019224982708693" lon="-2.66350002028048">
        <ele>1450.4000000000001</ele>
        <time>2013-04-13T13:10:08Z</time>
      </trkpt>
      <trkpt lat="38.019187012687325" lon="-2.66324495896697">
        <ele>1450.5</ele>
        <time>2013-04-13T13:10:12Z</time>
      </trkpt>
      <trkpt lat="38.019245015457273" lon="-2.66291999258101">
        <ele>1450.3</ele>
        <time>2013-04-13T13:10:15Z</time>
      </trkpt>
      <trkpt lat="38.019290026277304" lon="-2.662693010643125">
        <ele>1449.7</ele>
        <time>2013-04-13T13:10:17Z</time>
      </trkpt>
      <trkpt lat="38.019332019612193" lon="-2.662448007613421">
        <ele>1448.4000000000001</ele>
        <time>2013-04-13T13:10:20Z</time>
      </trkpt>
      <trkpt lat="38.019309975206852" lon="-2.662166962400079">
        <ele>1447.3</ele>
        <time>2013-04-13T13:10:28Z</time>
      </trkpt>
      <trkpt lat="38.019350040704012" lon="-2.661892035976052">
        <ele>1447.5999999999999</ele>
        <time>2013-04-13T13:10:32Z</time>
      </trkpt>
      <trkpt lat="38.019481971859932" lon="-2.661692965775728">
        <ele>1446.9000000000001</ele>
        <time>2013-04-13T13:10:37Z</time>
      </trkpt>
      <trkpt lat="38.019637959077954" lon="-2.661558017134666">
        <ele>1446.9000000000001</ele>
        <time>2013-04-13T13:10:43Z</time>
      </trkpt>
      <trkpt lat="38.01984197460115" lon="-2.661370011046529">
        <ele>1446.8</ele>
        <time>2013-04-13T13:10:47Z</time>
      </trkpt>
      <trkpt lat="38.0200569704175" lon="-2.661262974143028">
        <ele>1446</ele>
        <time>2013-04-13T13:10:50Z</time>
      </trkpt>
      <trkpt lat="38.020282024517655" lon="-2.661217963322997">
        <ele>1444.3</ele>
        <time>2013-04-13T13:10:53Z</time>
      </trkpt>
      <trkpt lat="38.020453015342355" lon="-2.661110004410148">
        <ele>1442.0999999999999</ele>
        <time>2013-04-13T13:10:56Z</time>
      </trkpt>
      <trkpt lat="38.020574972033501" lon="-2.660897020250559">
        <ele>1438.3</ele>
        <time>2013-04-13T13:11:02Z</time>
      </trkpt>
      <trkpt lat="38.02067999728024" lon="-2.660691998898983">
        <ele>1438</ele>
        <time>2013-04-13T13:11:06Z</time>
      </trkpt>
      <trkpt lat="38.020768007263541" lon="-2.660486977547407">
        <ele>1437.2</ele>
        <time>2013-04-13T13:11:11Z</time>
      </trkpt>
      <trkpt lat="38.020887030288577" lon="-2.660267958417535">
        <ele>1439.8</ele>
        <time>2013-04-13T13:15:29Z</time>
      </trkpt>
      <trkpt lat="38.020892981439829" lon="-2.660008035600185">
        <ele>1439.5999999999999</ele>
        <time>2013-04-13T13:15:33Z</time>
      </trkpt>
      <trkpt lat="38.02087496034801" lon="-2.659778036177158">
        <ele>1439.5</ele>
        <time>2013-04-13T13:15:36Z</time>
      </trkpt>
      <trkpt lat="38.020846964791417" lon="-2.659522974863648">
        <ele>1439.4000000000001</ele>
        <time>2013-04-13T13:15:39Z</time>
      </trkpt>
      <trkpt lat="38.020855011418462" lon="-2.65924503095448">
        <ele>1438.9000000000001</ele>
        <time>2013-04-13T13:15:42Z</time>
      </trkpt>
      <trkpt lat="38.020921982824802" lon="-2.658976977691054">
        <ele>1438.5999999999999</ele>
        <time>2013-04-13T13:15:45Z</time>
      </trkpt>
      <trkpt lat="38.020998006686568" lon="-2.658692998811603">
        <ele>1438.2</ele>
        <time>2013-04-13T13:15:48Z</time>
      </trkpt>
      <trkpt lat="38.021042011678219" lon="-2.658404996618629">
        <ele>1438.4000000000001</ele>
        <time>2013-04-13T13:15:51Z</time>
      </trkpt>
      <trkpt lat="38.021055003628135" lon="-2.658147001639009">
        <ele>1439</ele>
        <time>2013-04-13T13:15:54Z</time>
      </trkpt>
      <trkpt lat="38.021082999184728" lon="-2.657863022759557">
        <ele>1439.2</ele>
        <time>2013-04-13T13:15:58Z</time>
      </trkpt>
      <trkpt lat="38.021167991682887" lon="-2.657621959224343">
        <ele>1439.0999999999999</ele>
        <time>2013-04-13T13:16:02Z</time>
      </trkpt>
      <trkpt lat="38.021243009716272" lon="-2.657407969236374">
        <ele>1438.9000000000001</ele>
        <time>2013-04-13T13:16:05Z</time>
      </trkpt>
      <trkpt lat="38.021333031356335" lon="-2.656994992867112">
        <ele>1439.4000000000001</ele>
        <time>2013-04-13T13:17:46Z</time>
      </trkpt>
      <trkpt lat="38.021537968888879" lon="-2.656825007870793">
        <ele>1440.8</ele>
        <time>2013-04-13T13:17:49Z</time>
      </trkpt>
      <trkpt lat="38.021742990240455" lon="-2.656623004004359">
        <ele>1442.7</ele>
        <time>2013-04-13T13:17:52Z</time>
      </trkpt>
      <trkpt lat="38.021963015198708" lon="-2.656592996791005">
        <ele>1444.4000000000001</ele>
        <time>2013-04-13T13:17:55Z</time>
      </trkpt>
      <trkpt lat="38.02209704183042" lon="-2.656789971515536">
        <ele>1444.8</ele>
        <time>2013-04-13T13:17:58Z</time>
      </trkpt>
      <trkpt lat="38.02222796715796" lon="-2.656972026452422">
        <ele>1445.5999999999999</ele>
        <time>2013-04-13T13:18:01Z</time>
      </trkpt>
      <trkpt lat="38.022361993789673" lon="-2.656770022585988">
        <ele>1446.0999999999999</ele>
        <time>2013-04-13T13:18:05Z</time>
      </trkpt>
      <trkpt lat="38.022295022383332" lon="-2.656485037878156">
        <ele>1447</ele>
        <time>2013-04-13T13:18:08Z</time>
      </trkpt>
      <trkpt lat="38.02224799990654" lon="-2.656167028471828">
        <ele>1448.8</ele>
        <time>2013-04-13T13:18:11Z</time>
      </trkpt>
      <trkpt lat="38.022201983258128" lon="-2.655833009630442">
        <ele>1450.8</ele>
        <time>2013-04-13T13:18:14Z</time>
      </trkpt>
      <trkpt lat="38.02218203432858" lon="-2.65559496358037">
        <ele>1452.5</ele>
        <time>2013-04-13T13:18:16Z</time>
      </trkpt>
      <trkpt lat="38.022178011015058" lon="-2.655348032712936">
        <ele>1454.4000000000001</ele>
        <time>2013-04-13T13:18:18Z</time>
      </trkpt>
      <trkpt lat="38.022202989086509" lon="-2.655106969177723">
        <ele>1455.9000000000001</ele>
        <time>2013-04-13T13:18:20Z</time>
      </trkpt>
      <trkpt lat="38.022263003513217" lon="-2.654883004724979">
        <ele>1457</ele>
        <time>2013-04-13T13:18:22Z</time>
      </trkpt>
      <trkpt lat="38.022362999618053" lon="-2.654683012515307">
        <ele>1458.3</ele>
        <time>2013-04-13T13:18:24Z</time>
      </trkpt>
      <trkpt lat="38.022472970187664" lon="-2.654492994770408">
        <ele>1460.0999999999999</ele>
        <time>2013-04-13T13:18:26Z</time>
      </trkpt>
      <trkpt lat="38.022631974890828" lon="-2.654247991740704">
        <ele>1463.0999999999999</ele>
        <time>2013-04-13T13:18:29Z</time>
      </trkpt>
      <trkpt lat="38.022851999849081" lon="-2.654237011447549">
        <ele>1465.8</ele>
        <time>2013-04-13T13:18:33Z</time>
      </trkpt>
      <trkpt lat="38.02295702509582" lon="-2.654425017535687">
        <ele>1467.2</ele>
        <time>2013-04-13T13:18:36Z</time>
      </trkpt>
      <trkpt lat="38.023032965138555" lon="-2.654631966724992">
        <ele>1470.3</ele>
        <time>2013-04-13T13:18:40Z</time>
      </trkpt>
      <trkpt lat="38.023136984556913" lon="-2.654832964763045">
        <ele>1477.5999999999999</ele>
        <time>2013-04-13T13:18:50Z</time>
      </trkpt>
      <trkpt lat="38.023270005360246" lon="-2.655003033578396">
        <ele>1479.9000000000001</ele>
        <time>2013-04-13T13:18:54Z</time>
      </trkpt>
      <trkpt lat="38.023437978699803" lon="-2.655100012198091">
        <ele>1480.8</ele>
        <time>2013-04-13T13:18:57Z</time>
      </trkpt>
      <trkpt lat="38.023612992838025" lon="-2.65516203828156">
        <ele>1482</ele>
        <time>2013-04-13T13:19:00Z</time>
      </trkpt>
      <trkpt lat="38.023827988654375" lon="-2.655192967504263">
        <ele>1483.7</ele>
        <time>2013-04-13T13:19:04Z</time>
      </trkpt>
      <trkpt lat="38.024014988914132" lon="-2.655191961675882">
        <ele>1485.5999999999999</ele>
        <time>2013-04-13T13:19:07Z</time>
      </trkpt>
      <trkpt lat="38.024211963638663" lon="-2.655236972495914">
        <ele>1487.5</ele>
        <time>2013-04-13T13:19:10Z</time>
      </trkpt>
      <trkpt lat="38.024401981383562" lon="-2.655312996357679">
        <ele>1488.0999999999999</ele>
        <time>2013-04-13T13:19:13Z</time>
      </trkpt>
      <trkpt lat="38.024601973593235" lon="-2.655352978035808">
        <ele>1488.9000000000001</ele>
        <time>2013-04-13T13:19:16Z</time>
      </trkpt>
      <trkpt lat="38.024831973016262" lon="-2.655348032712936">
        <ele>1489.5</ele>
        <time>2013-04-13T13:19:21Z</time>
      </trkpt>
      <trkpt lat="38.025067001581192" lon="-2.655324982479215">
        <ele>1490.0999999999999</ele>
        <time>2013-04-13T13:19:25Z</time>
      </trkpt>
      <trkpt lat="38.025273028761148" lon="-2.655327999964356">
        <ele>1490.7</ele>
        <time>2013-04-13T13:19:28Z</time>
      </trkpt>
      <trkpt lat="38.025479977950454" lon="-2.655324982479215">
        <ele>1491.2</ele>
        <time>2013-04-13T13:19:31Z</time>
      </trkpt>
      <trkpt lat="38.025677958503366" lon="-2.655326994135976">
        <ele>1492</ele>
        <time>2013-04-13T13:19:34Z</time>
      </trkpt>
      <trkpt lat="38.025869987905025" lon="-2.655315008014441">
        <ele>1492.8</ele>
        <time>2013-04-13T13:19:37Z</time>
      </trkpt>
      <trkpt lat="38.026074003428221" lon="-2.655311990529299">
        <ele>1493.8</ele>
        <time>2013-04-13T13:19:40Z</time>
      </trkpt>
      <trkpt lat="38.026284975931048" lon="-2.655292041599751">
        <ele>1494.8</ele>
        <time>2013-04-13T13:19:43Z</time>
      </trkpt>
      <trkpt lat="38.026505000889301" lon="-2.655277960002422">
        <ele>1495.5999999999999</ele>
        <time>2013-04-13T13:19:46Z</time>
      </trkpt>
      <trkpt lat="38.026742041110992" lon="-2.655243007466197">
        <ele>1495.9000000000001</ele>
        <time>2013-04-13T13:19:49Z</time>
      </trkpt>
      <trkpt lat="38.026923006400466" lon="-2.655221968889237">
        <ele>1496.3</ele>
        <time>2013-04-13T13:19:51Z</time>
      </trkpt>
      <trkpt lat="38.027182007208467" lon="-2.655177041888237">
        <ele>1496.9000000000001</ele>
        <time>2013-04-13T13:19:54Z</time>
      </trkpt>
      <trkpt lat="38.027440002188087" lon="-2.655145023018122">
        <ele>1498.0999999999999</ele>
        <time>2013-04-13T13:19:57Z</time>
      </trkpt>
      <trkpt lat="38.027697997167706" lon="-2.655115015804768">
        <ele>1499.9000000000001</ele>
        <time>2013-04-13T13:20:00Z</time>
      </trkpt>
      <trkpt lat="38.027958003804088" lon="-2.655066987499595">
        <ele>1501.2</ele>
        <time>2013-04-13T13:20:03Z</time>
      </trkpt>
      <trkpt lat="38.028197977691889" lon="-2.655009990558028">
        <ele>1501.8</ele>
        <time>2013-04-13T13:20:06Z</time>
      </trkpt>
      <trkpt lat="38.028401993215084" lon="-2.654957016929984">
        <ele>1502.4000000000001</ele>
        <time>2013-04-13T13:20:09Z</time>
      </trkpt>
      <trkpt lat="38.028625035658479" lon="-2.654889961704612">
        <ele>1502.0999999999999</ele>
        <time>2013-04-13T13:20:12Z</time>
      </trkpt>
      <trkpt lat="38.028827961534262" lon="-2.654791977256537">
        <ele>1501.2</ele>
        <time>2013-04-13T13:20:15Z</time>
      </trkpt>
      <trkpt lat="38.028998030349612" lon="-2.654640013352037">
        <ele>1499.7</ele>
        <time>2013-04-13T13:20:18Z</time>
      </trkpt>
      <trkpt lat="38.029149994254112" lon="-2.654434992000461">
        <ele>1498.2</ele>
        <time>2013-04-13T13:20:21Z</time>
      </trkpt>
      <trkpt lat="38.029298018664122" lon="-2.654232988134027">
        <ele>1496.8</ele>
        <time>2013-04-13T13:20:24Z</time>
      </trkpt>
      <trkpt lat="38.029443025588989" lon="-2.65402302145958">
        <ele>1495.9000000000001</ele>
        <time>2013-04-13T13:20:27Z</time>
      </trkpt>
      <trkpt lat="38.029583003371954" lon="-2.653797967359424">
        <ele>1495.2</ele>
        <time>2013-04-13T13:20:30Z</time>
      </trkpt>
      <trkpt lat="38.029707977548242" lon="-2.65359302982688">
        <ele>1495.0999999999999</ele>
        <time>2013-04-13T13:20:33Z</time>
      </trkpt>
      <trkpt lat="38.029806967824697" lon="-2.653399994596839">
        <ele>1494.3</ele>
        <time>2013-04-13T13:20:36Z</time>
      </trkpt>
      <trkpt lat="38.030024981126189" lon="-2.653356995433569">
        <ele>1494.0999999999999</ele>
        <time>2013-04-13T13:20:43Z</time>
      </trkpt>
      <trkpt lat="38.030256992205977" lon="-2.65338197350502">
        <ele>1496.2</ele>
        <time>2013-04-13T13:20:48Z</time>
      </trkpt>
      <trkpt lat="38.030450027436018" lon="-2.65337803401053">
        <ele>1497.9000000000001</ele>
        <time>2013-04-13T13:20:51Z</time>
      </trkpt>
      <trkpt lat="38.030682960525155" lon="-2.653373004868627">
        <ele>1500</ele>
        <time>2013-04-13T13:20:54Z</time>
      </trkpt>
      <trkpt lat="38.030937016010284" lon="-2.653360012918711">
        <ele>1502.0999999999999</ele>
        <time>2013-04-13T13:20:57Z</time>
      </trkpt>
      <trkpt lat="38.03118696436286" lon="-2.653348026797175">
        <ele>1504.5</ele>
        <time>2013-04-13T13:21:00Z</time>
      </trkpt>
      <trkpt lat="38.031431967392564" lon="-2.653405023738742">
        <ele>1505.8</ele>
        <time>2013-04-13T13:21:03Z</time>
      </trkpt>
      <trkpt lat="38.031676970422268" lon="-2.653437964618206">
        <ele>1507.3</ele>
        <time>2013-04-13T13:21:06Z</time>
      </trkpt>
      <trkpt lat="38.031911998987198" lon="-2.653348026797175">
        <ele>1509.3</ele>
        <time>2013-04-13T13:21:09Z</time>
      </trkpt>
      <trkpt lat="38.032122971490026" lon="-2.65333503484726">
        <ele>1510.4000000000001</ele>
        <time>2013-04-13T13:21:12Z</time>
      </trkpt>
      <trkpt lat="38.032105034217238" lon="-2.653588000684977">
        <ele>1511</ele>
        <time>2013-04-13T13:21:16Z</time>
      </trkpt>
      <trkpt lat="38.031891966238618" lon="-2.653729990124703">
        <ele>1510.4000000000001</ele>
        <time>2013-04-13T13:21:19Z</time>
      </trkpt>
      <trkpt lat="38.031736984848976" lon="-2.653956972062588">
        <ele>1509.3</ele>
        <time>2013-04-13T13:21:22Z</time>
      </trkpt>
      <trkpt lat="38.031570017337799" lon="-2.654193006455898">
        <ele>1509.3</ele>
        <time>2013-04-13T13:21:25Z</time>
      </trkpt>
      <trkpt lat="38.031412018463016" lon="-2.654425017535687">
        <ele>1509</ele>
        <time>2013-04-13T13:21:28Z</time>
      </trkpt>
      <trkpt lat="38.031282015144825" lon="-2.654625009745359">
        <ele>1508.2</ele>
        <time>2013-04-13T13:21:32Z</time>
      </trkpt>
      <trkpt lat="38.031268017366529" lon="-2.654957016929984">
        <ele>1508.9000000000001</ele>
        <time>2013-04-13T13:21:35Z</time>
      </trkpt>
      <trkpt lat="38.031267011538148" lon="-2.655206965282559">
        <ele>1510.4000000000001</ele>
        <time>2013-04-13T13:21:37Z</time>
      </trkpt>
      <trkpt lat="38.031253013759851" lon="-2.655447022989392">
        <ele>1513.0999999999999</ele>
        <time>2013-04-13T13:21:39Z</time>
      </trkpt>
      <trkpt lat="38.031244967132807" lon="-2.655778024345636">
        <ele>1517.9000000000001</ele>
        <time>2013-04-13T13:21:42Z</time>
      </trkpt>
      <trkpt lat="38.031310010701418" lon="-2.656084969639778">
        <ele>1522.5</ele>
        <time>2013-04-13T13:21:45Z</time>
      </trkpt>
      <trkpt lat="38.031453005969524" lon="-2.656327039003372">
        <ele>1526.2</ele>
        <time>2013-04-13T13:21:48Z</time>
      </trkpt>
      <trkpt lat="38.031602958217263" lon="-2.656544968485832">
        <ele>1530</ele>
        <time>2013-04-13T13:21:51Z</time>
      </trkpt>
      <trkpt lat="38.031713012605906" lon="-2.656802041456103">
        <ele>1533.3</ele>
        <time>2013-04-13T13:21:54Z</time>
      </trkpt>
      <trkpt lat="38.031855002045631" lon="-2.657037992030382">
        <ele>1536.8</ele>
        <time>2013-04-13T13:21:57Z</time>
      </trkpt>
      <trkpt lat="38.031988022848964" lon="-2.657258016988635">
        <ele>1540.5</ele>
        <time>2013-04-13T13:22:00Z</time>
      </trkpt>
      <trkpt lat="38.032117020338774" lon="-2.657467983663082">
        <ele>1543.7</ele>
        <time>2013-04-13T13:22:03Z</time>
      </trkpt>
      <trkpt lat="38.032251968979836" lon="-2.657678034156561">
        <ele>1545.9000000000001</ele>
        <time>2013-04-13T13:22:06Z</time>
      </trkpt>
      <trkpt lat="38.032396975904703" lon="-2.657895041629672">
        <ele>1547.5</ele>
        <time>2013-04-13T13:22:09Z</time>
      </trkpt>
      <trkpt lat="38.032533014193177" lon="-2.65810701996088">
        <ele>1548.7</ele>
        <time>2013-04-13T13:22:12Z</time>
      </trkpt>
      <trkpt lat="38.032681960612535" lon="-2.658314974978566">
        <ele>1549.8</ele>
        <time>2013-04-13T13:22:15Z</time>
      </trkpt>
      <trkpt lat="38.032829985022545" lon="-2.658542040735483">
        <ele>1550.9000000000001</ele>
        <time>2013-04-13T13:22:18Z</time>
      </trkpt>
      <trkpt lat="38.032938027754426" lon="-2.658759970217943">
        <ele>1552</ele>
        <time>2013-04-13T13:22:21Z</time>
      </trkpt>
      <trkpt lat="38.032993013039231" lon="-2.659025005996227">
        <ele>1551.0999999999999</ele>
        <time>2013-04-13T13:22:24Z</time>
      </trkpt>
      <trkpt lat="38.033035006374121" lon="-2.659302027896047">
        <ele>1548.7</ele>
        <time>2013-04-13T13:22:27Z</time>
      </trkpt>
      <trkpt lat="38.03314003162086" lon="-2.659549964591861">
        <ele>1546.7</ele>
        <time>2013-04-13T13:22:30Z</time>
      </trkpt>
      <trkpt lat="38.03331202827394" lon="-2.659730007871985">
        <ele>1545.3</ele>
        <time>2013-04-13T13:22:33Z</time>
      </trkpt>
      <trkpt lat="38.033504979684949" lon="-2.659914996474981">
        <ele>1545</ele>
        <time>2013-04-13T13:22:36Z</time>
      </trkpt>
      <trkpt lat="38.033694997429848" lon="-2.660090010613203">
        <ele>1545.2</ele>
        <time>2013-04-13T13:22:39Z</time>
      </trkpt>
      <trkpt lat="38.033897001296282" lon="-2.660252032801509">
        <ele>1545.3</ele>
        <time>2013-04-13T13:22:42Z</time>
      </trkpt>
      <trkpt lat="38.034124989062548" lon="-2.660386981442571">
        <ele>1546.5999999999999</ele>
        <time>2013-04-13T13:22:45Z</time>
      </trkpt>
      <trkpt lat="38.034357000142336" lon="-2.660483038052917">
        <ele>1547.7</ele>
        <time>2013-04-13T13:22:48Z</time>
      </trkpt>
      <trkpt lat="38.034594962373376" lon="-2.660508016124368">
        <ele>1549.3</ele>
        <time>2013-04-13T13:22:51Z</time>
      </trkpt>
      <trkpt lat="38.034771988168359" lon="-2.660435009747744">
        <ele>1551.0999999999999</ele>
        <time>2013-04-13T13:22:54Z</time>
      </trkpt>
      <trkpt lat="38.034956976771355" lon="-2.660402990877628">
        <ele>1553.5</ele>
        <time>2013-04-13T13:22:59Z</time>
      </trkpt>
      <trkpt lat="38.035183036699891" lon="-2.660393016412854">
        <ele>1555.0999999999999</ele>
        <time>2013-04-13T13:23:03Z</time>
      </trkpt>
      <trkpt lat="38.035401972010732" lon="-2.660437021404505">
        <ele>1557.2</ele>
        <time>2013-04-13T13:23:06Z</time>
      </trkpt>
      <trkpt lat="38.035592995584011" lon="-2.660571970045567">
        <ele>1559.3</ele>
        <time>2013-04-13T13:23:09Z</time>
      </trkpt>
      <trkpt lat="38.035730039700866" lon="-2.66077296808362">
        <ele>1561.2</ele>
        <time>2013-04-13T13:23:12Z</time>
      </trkpt>
      <trkpt lat="38.03584998473525" lon="-2.661010008305311">
        <ele>1564.3</ele>
        <time>2013-04-13T13:23:15Z</time>
      </trkpt>
      <trkpt lat="38.035909999161959" lon="-2.661288036033511">
        <ele>1567.7</ele>
        <time>2013-04-13T13:23:18Z</time>
      </trkpt>
      <trkpt lat="38.035897007212043" lon="-2.661596992984414">
        <ele>1569.8</ele>
        <time>2013-04-13T13:23:21Z</time>
      </trkpt>
      <trkpt lat="38.035836992785335" lon="-2.661882983520627">
        <ele>1571.3</ele>
        <time>2013-04-13T13:23:24Z</time>
      </trkpt>
      <trkpt lat="38.035817965865135" lon="-2.662178026512265">
        <ele>1573.2</ele>
        <time>2013-04-13T13:23:27Z</time>
      </trkpt>
      <trkpt lat="38.035942018032074" lon="-2.662397967651486">
        <ele>1575.4000000000001</ele>
        <time>2013-04-13T13:23:30Z</time>
      </trkpt>
      <trkpt lat="38.03619003854692" lon="-2.662505004554987">
        <ele>1577.0999999999999</ele>
        <time>2013-04-13T13:23:33Z</time>
      </trkpt>
      <trkpt lat="38.036388019099832" lon="-2.662487989291549">
        <ele>1578.2</ele>
        <time>2013-04-13T13:23:35Z</time>
      </trkpt>
      <trkpt lat="38.036569990217686" lon="-2.662439960986376">
        <ele>1580.0999999999999</ele>
        <time>2013-04-13T13:23:37Z</time>
      </trkpt>
      <trkpt lat="38.036767970770597" lon="-2.662393022328615">
        <ele>1583.4000000000001</ele>
        <time>2013-04-13T13:23:40Z</time>
      </trkpt>
      <trkpt lat="38.03698698990047" lon="-2.662433004006743">
        <ele>1585.4000000000001</ele>
        <time>2013-04-13T13:23:43Z</time>
      </trkpt>
      <trkpt lat="38.037163009867072" lon="-2.662656968459487">
        <ele>1584.7</ele>
        <time>2013-04-13T13:23:47Z</time>
      </trkpt>
      <trkpt lat="38.03939200937748" lon="-2.665521986782551">
        <ele>1581.5999999999999</ele>
        <time>2013-04-13T13:24:32Z</time>
      </trkpt>
      <trkpt lat="38.039489993825555" lon="-2.665719967335463">
        <ele>1580.5</ele>
        <time>2013-04-13T13:24:35Z</time>
      </trkpt>
      <trkpt lat="38.039483036845922" lon="-2.665985003113747">
        <ele>1578.9000000000001</ele>
        <time>2013-04-13T13:24:38Z</time>
      </trkpt>
      <trkpt lat="38.039459986612201" lon="-2.666277028620243">
        <ele>1577.8</ele>
        <time>2013-04-13T13:24:41Z</time>
      </trkpt>
      <trkpt lat="38.039448000490665" lon="-2.66655002720654">
        <ele>1576.5999999999999</ele>
        <time>2013-04-13T13:24:44Z</time>
      </trkpt>
      <trkpt lat="38.039368037134409" lon="-2.666817996650934">
        <ele>1576.3</ele>
        <time>2013-04-13T13:24:47Z</time>
      </trkpt>
      <trkpt lat="38.039171984419227" lon="-2.666993010789156">
        <ele>1577</ele>
        <time>2013-04-13T13:24:50Z</time>
      </trkpt>
      <trkpt lat="38.039008034393191" lon="-2.667092001065612">
        <ele>1577.8</ele>
        <time>2013-04-13T13:24:52Z</time>
      </trkpt>
      <trkpt lat="38.038841988891363" lon="-2.667189985513687">
        <ele>1578.5999999999999</ele>
        <time>2013-04-13T13:24:54Z</time>
      </trkpt>
      <trkpt lat="38.038606960326433" lon="-2.667317977175117">
        <ele>1579.4000000000001</ele>
        <time>2013-04-13T13:24:57Z</time>
      </trkpt>
      <trkpt lat="38.038445021957159" lon="-2.667472958564758">
        <ele>1580.5</ele>
        <time>2013-04-13T13:25:00Z</time>
      </trkpt>
      <trkpt lat="38.038520039990544" lon="-2.667727014049888">
        <ele>1581.9000000000001</ele>
        <time>2013-04-13T13:25:04Z</time>
      </trkpt>
      <trkpt lat="38.038688013330102" lon="-2.667972017079592">
        <ele>1582.8</ele>
        <time>2013-04-13T13:25:07Z</time>
      </trkpt>
      <trkpt lat="38.038826985284686" lon="-2.66814099624753">
        <ele>1583.4000000000001</ele>
        <time>2013-04-13T13:25:09Z</time>
      </trkpt>
      <trkpt lat="38.038978027179837" lon="-2.668305030092597">
        <ele>1583.9000000000001</ele>
        <time>2013-04-13T13:25:11Z</time>
      </trkpt>
      <trkpt lat="38.039138037711382" lon="-2.668436961248517">
        <ele>1584.4000000000001</ele>
        <time>2013-04-13T13:25:13Z</time>
      </trkpt>
      <trkpt lat="38.039378011599183" lon="-2.668581968173385">
        <ele>1585.5</ele>
        <time>2013-04-13T13:25:16Z</time>
      </trkpt>
      <trkpt lat="38.039635000750422" lon="-2.668690010905266">
        <ele>1586.5999999999999</ele>
        <time>2013-04-13T13:25:19Z</time>
      </trkpt>
      <trkpt lat="38.039825018495321" lon="-2.668781960383058">
        <ele>1586.9000000000001</ele>
        <time>2013-04-13T13:25:21Z</time>
      </trkpt>
      <trkpt lat="38.040004977956414" lon="-2.668910035863519">
        <ele>1587.7</ele>
        <time>2013-04-13T13:25:23Z</time>
      </trkpt>
      <trkpt lat="38.040173035115004" lon="-2.669084966182709">
        <ele>1588.4000000000001</ele>
        <time>2013-04-13T13:25:25Z</time>
      </trkpt>
      <trkpt lat="38.040340002626181" lon="-2.669242965057492">
        <ele>1589.9000000000001</ele>
        <time>2013-04-13T13:25:27Z</time>
      </trkpt>
      <trkpt lat="38.040519962087274" lon="-2.669376991689205">
        <ele>1591.7</ele>
        <time>2013-04-13T13:25:29Z</time>
      </trkpt>
      <trkpt lat="38.040722971782088" lon="-2.669447986409068">
        <ele>1593.3</ele>
        <time>2013-04-13T13:25:31Z</time>
      </trkpt>
      <trkpt lat="38.040930004790425" lon="-2.669477993622422">
        <ele>1595.2</ele>
        <time>2013-04-13T13:25:33Z</time>
      </trkpt>
      <trkpt lat="38.041117005050182" lon="-2.669504983350635">
        <ele>1597.3</ele>
        <time>2013-04-13T13:25:35Z</time>
      </trkpt>
      <trkpt lat="38.041367037221789" lon="-2.669585030525923">
        <ele>1600.7</ele>
        <time>2013-04-13T13:25:38Z</time>
      </trkpt>
      <trkpt lat="38.041597958654165" lon="-2.669644961133599">
        <ele>1602.9000000000001</ele>
        <time>2013-04-13T13:25:41Z</time>
      </trkpt>
      <trkpt lat="38.041804991662502" lon="-2.669691983610392">
        <ele>1605.0999999999999</ele>
        <time>2013-04-13T13:25:44Z</time>
      </trkpt>
      <trkpt lat="38.042014958336949" lon="-2.669736994430423">
        <ele>1607.8</ele>
        <time>2013-04-13T13:25:47Z</time>
      </trkpt>
      <trkpt lat="38.042255016043782" lon="-2.66973003745079">
        <ele>1610.7</ele>
        <time>2013-04-13T13:25:50Z</time>
      </trkpt>
      <trkpt lat="38.042527008801699" lon="-2.669717967510223">
        <ele>1612.3</ele>
        <time>2013-04-13T13:25:53Z</time>
      </trkpt>
      <trkpt lat="38.042713003233075" lon="-2.66973196528852">
        <ele>1613.5999999999999</ele>
        <time>2013-04-13T13:25:55Z</time>
      </trkpt>
      <trkpt lat="38.042897991836071" lon="-2.6697519980371">
        <ele>1614.8</ele>
        <time>2013-04-13T13:25:57Z</time>
      </trkpt>
      <trkpt lat="38.043078035116196" lon="-2.669776976108551">
        <ele>1616.4000000000001</ele>
        <time>2013-04-13T13:25:59Z</time>
      </trkpt>
      <trkpt lat="38.043257994577289" lon="-2.669800026342273">
        <ele>1618.0999999999999</ele>
        <time>2013-04-13T13:26:01Z</time>
      </trkpt>
      <trkpt lat="38.043526969850063" lon="-2.669817041605711">
        <ele>1620.8</ele>
        <time>2013-04-13T13:26:04Z</time>
      </trkpt>
      <trkpt lat="38.043707013130188" lon="-2.669842019677162">
        <ele>1622</ele>
        <time>2013-04-13T13:26:06Z</time>
      </trkpt>
      <trkpt lat="38.043959978967905" lon="-2.669922988861799">
        <ele>1621.8</ele>
        <time>2013-04-13T13:26:09Z</time>
      </trkpt>
      <trkpt lat="38.044137004762888" lon="-2.669975040480495">
        <ele>1621</ele>
        <time>2013-04-13T13:26:11Z</time>
      </trkpt>
      <trkpt lat="38.044316964223981" lon="-2.670019967481494">
        <ele>1620.7</ele>
        <time>2013-04-13T13:26:13Z</time>
      </trkpt>
      <trkpt lat="38.044502958655357" lon="-2.670067995786667">
        <ele>1620.5999999999999</ele>
        <time>2013-04-13T13:26:15Z</time>
      </trkpt>
      <trkpt lat="38.044692976400256" lon="-2.670124992728233">
        <ele>1620.8</ele>
        <time>2013-04-13T13:26:17Z</time>
      </trkpt>
      <trkpt lat="38.044875031337142" lon="-2.670151982456446">
        <ele>1621.0999999999999</ele>
        <time>2013-04-13T13:26:19Z</time>
      </trkpt>
      <trkpt lat="38.045139983296394" lon="-2.670098003000021">
        <ele>1621.5999999999999</ele>
        <time>2013-04-13T13:26:22Z</time>
      </trkpt>
      <trkpt lat="38.045357996597886" lon="-2.670024996623397">
        <ele>1620.4000000000001</ele>
        <time>2013-04-13T13:26:25Z</time>
      </trkpt>
      <trkpt lat="38.045612974092364" lon="-2.669919971376658">
        <ele>1619.9000000000001</ele>
        <time>2013-04-13T13:26:28Z</time>
      </trkpt>
      <trkpt lat="38.045871974900365" lon="-2.669912008568645">
        <ele>1620.5999999999999</ele>
        <time>2013-04-13T13:26:31Z</time>
      </trkpt>
      <trkpt lat="38.046101974323392" lon="-2.669991971924901">
        <ele>1622.2</ele>
        <time>2013-04-13T13:26:34Z</time>
      </trkpt>
      <trkpt lat="38.046223009005189" lon="-2.670236974954605">
        <ele>1624.0999999999999</ele>
        <time>2013-04-13T13:26:38Z</time>
      </trkpt>
      <trkpt lat="38.046359969303012" lon="-2.670400002971292">
        <ele>1625.3</ele>
        <time>2013-04-13T13:26:41Z</time>
      </trkpt>
      <trkpt lat="38.046572031453252" lon="-2.67050301656127">
        <ele>1625.7</ele>
        <time>2013-04-13T13:26:44Z</time>
      </trkpt>
      <trkpt lat="38.046807982027531" lon="-2.67059002071619">
        <ele>1625.4000000000001</ele>
        <time>2013-04-13T13:26:47Z</time>
      </trkpt>
      <trkpt lat="38.047052985057235" lon="-2.670626984909177">
        <ele>1624.8</ele>
        <time>2013-04-13T13:26:50Z</time>
      </trkpt>
      <trkpt lat="38.047282984480262" lon="-2.670605024322867">
        <ele>1624.2</ele>
        <time>2013-04-13T13:26:53Z</time>
      </trkpt>
      <trkpt lat="38.04751499556005" lon="-2.670581974089146">
        <ele>1623</ele>
        <time>2013-04-13T13:26:56Z</time>
      </trkpt>
      <trkpt lat="38.047726973891258" lon="-2.670539980754256">
        <ele>1621.4000000000001</ele>
        <time>2013-04-13T13:26:59Z</time>
      </trkpt>
      <trkpt lat="38.047896958887577" lon="-2.670364966616035">
        <ele>1619.5999999999999</ele>
        <time>2013-04-13T13:27:02Z</time>
      </trkpt>
      <trkpt lat="38.047937024384737" lon="-2.670049974694848">
        <ele>1619.3</ele>
        <time>2013-04-13T13:27:05Z</time>
      </trkpt>
      <trkpt lat="38.047877009958029" lon="-2.669762978330255">
        <ele>1619.9000000000001</ele>
        <time>2013-04-13T13:27:08Z</time>
      </trkpt>
      <trkpt lat="38.047771984711289" lon="-2.669528033584356">
        <ele>1620.7</ele>
        <time>2013-04-13T13:27:11Z</time>
      </trkpt>
      <trkpt lat="38.047747006639838" lon="-2.669274983927608">
        <ele>1622.5</ele>
        <time>2013-04-13T13:27:14Z</time>
      </trkpt>
      <trkpt lat="38.047801991924644" lon="-2.669005002826452">
        <ele>1624.3</ele>
        <time>2013-04-13T13:27:17Z</time>
      </trkpt>
      <trkpt lat="38.047896958887577" lon="-2.66876301728189">
        <ele>1625.9000000000001</ele>
        <time>2013-04-13T13:27:20Z</time>
      </trkpt>
      <trkpt lat="38.048067027702928" lon="-2.668620022013784">
        <ele>1627.4000000000001</ele>
        <time>2013-04-13T13:27:23Z</time>
      </trkpt>
      <trkpt lat="38.048276994377375" lon="-2.668594960123301">
        <ele>1628.9000000000001</ele>
        <time>2013-04-13T13:27:26Z</time>
      </trkpt>
      <trkpt lat="38.048459971323609" lon="-2.668663021177054">
        <ele>1630.8</ele>
        <time>2013-04-13T13:27:29Z</time>
      </trkpt>
      <trkpt lat="38.048572037369013" lon="-2.668941970914602">
        <ele>1632.2</ele>
        <time>2013-04-13T13:27:33Z</time>
      </trkpt>
      <trkpt lat="38.048557033762336" lon="-2.669253023341298">
        <ele>1633.9000000000001</ele>
        <time>2013-04-13T13:27:36Z</time>
      </trkpt>
      <trkpt lat="38.04856700822711" lon="-2.669532978907228">
        <ele>1636</ele>
        <time>2013-04-13T13:27:39Z</time>
      </trkpt>
      <trkpt lat="38.048617970198393" lon="-2.669797008857131">
        <ele>1637.5999999999999</ele>
        <time>2013-04-13T13:27:42Z</time>
      </trkpt>
      <trkpt lat="38.048758031800389" lon="-2.669998006895185">
        <ele>1639.5999999999999</ele>
        <time>2013-04-13T13:27:45Z</time>
      </trkpt>
      <trkpt lat="38.048937991261482" lon="-2.670167991891503">
        <ele>1642</ele>
        <time>2013-04-13T13:27:48Z</time>
      </trkpt>
      <trkpt lat="38.049118034541607" lon="-2.670322973281145">
        <ele>1644.9000000000001</ele>
        <time>2013-04-13T13:27:51Z</time>
      </trkpt>
      <trkpt lat="38.049277039244771" lon="-2.670502010732889">
        <ele>1647.4000000000001</ele>
        <time>2013-04-13T13:27:54Z</time>
      </trkpt>
      <trkpt lat="38.049437971785665" lon="-2.670692028477788">
        <ele>1650.3</ele>
        <time>2013-04-13T13:27:57Z</time>
      </trkpt>
      <trkpt lat="38.049597982317209" lon="-2.670863019302487">
        <ele>1652.9000000000001</ele>
        <time>2013-04-13T13:28:00Z</time>
      </trkpt>
      <trkpt lat="38.049782970920205" lon="-2.670965027064085">
        <ele>1656.2</ele>
        <time>2013-04-13T13:28:03Z</time>
      </trkpt>
      <trkpt lat="38.049997966736555" lon="-2.670950023457408">
        <ele>1659.8</ele>
        <time>2013-04-13T13:28:06Z</time>
      </trkpt>
      <trkpt lat="38.050229977816343" lon="-2.670892020687461">
        <ele>1662.8</ele>
        <time>2013-04-13T13:28:09Z</time>
      </trkpt>
      <trkpt lat="38.050452014431357" lon="-2.67082798294723">
        <ele>1665.5</ele>
        <time>2013-04-13T13:28:12Z</time>
      </trkpt>
      <trkpt lat="38.050670027732849" lon="-2.670751959085465">
        <ele>1667.5</ele>
        <time>2013-04-13T13:28:15Z</time>
      </trkpt>
      <trkpt lat="38.05088996887207" lon="-2.670677024871111">
        <ele>1669.2</ele>
        <time>2013-04-13T13:28:18Z</time>
      </trkpt>
      <trkpt lat="38.051072023808956" lon="-2.670630002394319">
        <ele>1670.4000000000001</ele>
        <time>2013-04-13T13:28:21Z</time>
      </trkpt>
      <trkpt lat="38.051281990483403" lon="-2.67054702155292">
        <ele>1670.7</ele>
        <time>2013-04-13T13:28:26Z</time>
      </trkpt>
      <trkpt lat="38.05148801766336" lon="-2.670494969934225">
        <ele>1669.9000000000001</ele>
        <time>2013-04-13T13:28:30Z</time>
      </trkpt>
      <trkpt lat="38.05168298073113" lon="-2.670427998527885">
        <ele>1668.8</ele>
        <time>2013-04-13T13:28:33Z</time>
      </trkpt>
      <trkpt lat="38.051920020952821" lon="-2.670337976887822">
        <ele>1666.8</ele>
        <time>2013-04-13T13:28:36Z</time>
      </trkpt>
      <trkpt lat="38.052154965698719" lon="-2.67024502158165">
        <ele>1664.5999999999999</ele>
        <time>2013-04-13T13:28:39Z</time>
      </trkpt>
      <trkpt lat="38.052399968728423" lon="-2.670207973569632">
        <ele>1662.0999999999999</ele>
        <time>2013-04-13T13:28:42Z</time>
      </trkpt>
      <trkpt lat="38.052662992849946" lon="-2.670239992439747">
        <ele>1659.5</ele>
        <time>2013-04-13T13:28:45Z</time>
      </trkpt>
      <trkpt lat="38.052846975624561" lon="-2.670258013531566">
        <ele>1657.5</ele>
        <time>2013-04-13T13:28:47Z</time>
      </trkpt>
      <trkpt lat="38.053032970055938" lon="-2.670273017138243">
        <ele>1655.3</ele>
        <time>2013-04-13T13:28:49Z</time>
      </trkpt>
      <trkpt lat="38.053213013336062" lon="-2.670285003259778">
        <ele>1653</ele>
        <time>2013-04-13T13:28:51Z</time>
      </trkpt>
      <trkpt lat="38.053396996110678" lon="-2.670305036008358">
        <ele>1650.9000000000001</ele>
        <time>2013-04-13T13:28:53Z</time>
      </trkpt>
      <trkpt lat="38.053582990542054" lon="-2.670333031564951">
        <ele>1648.5</ele>
        <time>2013-04-13T13:28:55Z</time>
      </trkpt>
      <trkpt lat="38.053769990801811" lon="-2.670345017686486">
        <ele>1646.3</ele>
        <time>2013-04-13T13:28:57Z</time>
      </trkpt>
      <trkpt lat="38.05396000854671" lon="-2.670349963009358">
        <ele>1644.5999999999999</ele>
        <time>2013-04-13T13:28:59Z</time>
      </trkpt>
      <trkpt lat="38.054147008806467" lon="-2.670357003808022">
        <ele>1642.9000000000001</ele>
        <time>2013-04-13T13:29:01Z</time>
      </trkpt>
      <trkpt lat="38.054327974095941" lon="-2.670373013243079">
        <ele>1641.3</ele>
        <time>2013-04-13T13:29:03Z</time>
      </trkpt>
      <trkpt lat="38.054508017376065" lon="-2.670384999364615">
        <ele>1639.9000000000001</ele>
        <time>2013-04-13T13:29:05Z</time>
      </trkpt>
      <trkpt lat="38.054765006527305" lon="-2.670379970222712">
        <ele>1637.9000000000001</ele>
        <time>2013-04-13T13:29:08Z</time>
      </trkpt>
      <trkpt lat="38.055009003728628" lon="-2.670351974666119">
        <ele>1636.5999999999999</ele>
        <time>2013-04-13T13:29:11Z</time>
      </trkpt>
      <trkpt lat="38.055222993716598" lon="-2.670303024351597">
        <ele>1635.5999999999999</ele>
        <time>2013-04-13T13:29:14Z</time>
      </trkpt>
      <trkpt lat="38.055460033938289" lon="-2.670248039066792">
        <ele>1632.8</ele>
        <time>2013-04-13T13:29:17Z</time>
      </trkpt>
      <trkpt lat="38.055690033361316" lon="-2.670205039903522">
        <ele>1629.9000000000001</ele>
        <time>2013-04-13T13:29:20Z</time>
      </trkpt>
      <trkpt lat="38.055912991985679" lon="-2.670154999941587">
        <ele>1627.2</ele>
        <time>2013-04-13T13:29:23Z</time>
      </trkpt>
      <trkpt lat="38.056139973923564" lon="-2.67009699717164">
        <ele>1626.3</ele>
        <time>2013-04-13T13:29:26Z</time>
      </trkpt>
      <trkpt lat="38.056367039680481" lon="-2.670042011886835">
        <ele>1625.8</ele>
        <time>2013-04-13T13:29:29Z</time>
      </trkpt>
      <trkpt lat="38.056587986648083" lon="-2.66998702660203">
        <ele>1625.0999999999999</ele>
        <time>2013-04-13T13:29:32Z</time>
      </trkpt>
      <trkpt lat="38.056793007999659" lon="-2.669921983033419">
        <ele>1624.2</ele>
        <time>2013-04-13T13:29:35Z</time>
      </trkpt>
      <trkpt lat="38.056997023522854" lon="-2.669843025505543">
        <ele>1623</ele>
        <time>2013-04-13T13:29:38Z</time>
      </trkpt>
      <trkpt lat="38.057212019339204" lon="-2.669792985543609">
        <ele>1622.0999999999999</ele>
        <time>2013-04-13T13:29:41Z</time>
      </trkpt>
      <trkpt lat="38.057422991842031" lon="-2.669759960845113">
        <ele>1620.8</ele>
        <time>2013-04-13T13:29:44Z</time>
      </trkpt>
      <trkpt lat="38.057636981830001" lon="-2.669747974723578">
        <ele>1618.7</ele>
        <time>2013-04-13T13:29:47Z</time>
      </trkpt>
      <trkpt lat="38.05784703232348" lon="-2.669832967221737">
        <ele>1615.3</ele>
        <time>2013-04-13T13:29:50Z</time>
      </trkpt>
      <trkpt lat="38.058058004826307" lon="-2.669940004125238">
        <ele>1612.5999999999999</ele>
        <time>2013-04-13T13:29:53Z</time>
      </trkpt>
      <trkpt lat="38.058302002027631" lon="-2.669951990246773">
        <ele>1611.4000000000001</ele>
        <time>2013-04-13T13:29:56Z</time>
      </trkpt>
      <trkpt lat="38.058544993400574" lon="-2.669876972213388">
        <ele>1609.3</ele>
        <time>2013-04-13T13:29:59Z</time>
      </trkpt>
      <trkpt lat="38.058774992823601" lon="-2.66973196528852">
        <ele>1607.3</ele>
        <time>2013-04-13T13:30:02Z</time>
      </trkpt>
      <trkpt lat="38.058993006125093" lon="-2.66958000138402">
        <ele>1604.7</ele>
        <time>2013-04-13T13:30:05Z</time>
      </trkpt>
      <trkpt lat="38.059208001941442" lon="-2.669431976974011">
        <ele>1602.5</ele>
        <time>2013-04-13T13:30:08Z</time>
      </trkpt>
      <trkpt lat="38.059410005807877" lon="-2.669291999191046">
        <ele>1601.2</ele>
        <time>2013-04-13T13:30:11Z</time>
      </trkpt>
      <trkpt lat="38.059636987745762" lon="-2.669208012521267">
        <ele>1600.8</ele>
        <time>2013-04-13T13:30:14Z</time>
      </trkpt>
      <trkpt lat="38.059852989390492" lon="-2.669267021119595">
        <ele>1600.5999999999999</ele>
        <time>2013-04-13T13:30:17Z</time>
      </trkpt>
      <trkpt lat="38.060081982985139" lon="-2.669280013069511">
        <ele>1600.5</ele>
        <time>2013-04-13T13:30:20Z</time>
      </trkpt>
      <trkpt lat="38.060302007943392" lon="-2.669163001701236">
        <ele>1601.3</ele>
        <time>2013-04-13T13:30:23Z</time>
      </trkpt>
      <trkpt lat="38.060508035123348" lon="-2.669017994776368">
        <ele>1601.5</ele>
        <time>2013-04-13T13:30:26Z</time>
      </trkpt>
      <trkpt lat="38.060733005404472" lon="-2.668923027813435">
        <ele>1601.8</ele>
        <time>2013-04-13T13:30:29Z</time>
      </trkpt>
      <trkpt lat="38.060972979292274" lon="-2.668917998671532">
        <ele>1602.4000000000001</ele>
        <time>2013-04-13T13:30:32Z</time>
      </trkpt>
      <trkpt lat="38.06120197288692" lon="-2.669016988947988">
        <ele>1602.8</ele>
        <time>2013-04-13T13:30:35Z</time>
      </trkpt>
      <trkpt lat="38.061427026987076" lon="-2.669186973944306">
        <ele>1603.3</ele>
        <time>2013-04-13T13:30:38Z</time>
      </trkpt>
      <trkpt lat="38.061653003096581" lon="-2.669353019446135">
        <ele>1603.7</ele>
        <time>2013-04-13T13:30:41Z</time>
      </trkpt>
      <trkpt lat="38.06188995949924" lon="-2.669485034421086">
        <ele>1604.8</ele>
        <time>2013-04-13T13:30:44Z</time>
      </trkpt>
      <trkpt lat="38.062137980014086" lon="-2.669506995007396">
        <ele>1606.2</ele>
        <time>2013-04-13T13:30:47Z</time>
      </trkpt>
      <trkpt lat="38.062392035499215" lon="-2.669477993622422">
        <ele>1608.3</ele>
        <time>2013-04-13T13:30:50Z</time>
      </trkpt>
      <trkpt lat="38.062642989680171" lon="-2.66955804079771">
        <ele>1610.3</ele>
        <time>2013-04-13T13:30:53Z</time>
      </trkpt>
      <trkpt lat="38.062822027131915" lon="-2.669592993333936">
        <ele>1612.0999999999999</ele>
        <time>2013-04-13T13:30:55Z</time>
      </trkpt>
      <trkpt lat="38.063087984919548" lon="-2.669653007760644">
        <ele>1614.5</ele>
        <time>2013-04-13T13:30:58Z</time>
      </trkpt>
      <trkpt lat="38.06335000321269" lon="-2.66968997195363">
        <ele>1617</ele>
        <time>2013-04-13T13:31:01Z</time>
      </trkpt>
      <trkpt lat="38.063610009849072" lon="-2.669762978330255">
        <ele>1619</ele>
        <time>2013-04-13T13:31:04Z</time>
      </trkpt>
      <trkpt lat="38.063777983188629" lon="-2.669852999970317">
        <ele>1620</ele>
        <time>2013-04-13T13:31:06Z</time>
      </trkpt>
      <trkpt lat="38.06401502341032" lon="-2.669992977753282">
        <ele>1621.3</ele>
        <time>2013-04-13T13:31:09Z</time>
      </trkpt>
      <trkpt lat="38.064232030883431" lon="-2.670147959142923">
        <ele>1623</ele>
        <time>2013-04-13T13:31:12Z</time>
      </trkpt>
      <trkpt lat="38.064421964809299" lon="-2.670348035171628">
        <ele>1625.2</ele>
        <time>2013-04-13T13:31:15Z</time>
      </trkpt>
      <trkpt lat="38.064609970897436" lon="-2.670496981590986">
        <ele>1627.3</ele>
        <time>2013-04-13T13:31:18Z</time>
      </trkpt>
      <trkpt lat="38.064790014177561" lon="-2.670627990737557">
        <ele>1629.3</ele>
        <time>2013-04-13T13:31:21Z</time>
      </trkpt>
      <trkpt lat="38.064972991123796" lon="-2.670767968520522">
        <ele>1631.0999999999999</ele>
        <time>2013-04-13T13:31:24Z</time>
      </trkpt>
      <trkpt lat="38.065172983333468" lon="-2.670832006260753">
        <ele>1632.0999999999999</ele>
        <time>2013-04-13T13:31:27Z</time>
      </trkpt>
      <trkpt lat="38.065407006070018" lon="-2.67078498378396">
        <ele>1633</ele>
        <time>2013-04-13T13:31:31Z</time>
      </trkpt>
      <trkpt lat="38.065576991066337" lon="-2.670681970193982">
        <ele>1634.0999999999999</ele>
        <time>2013-04-13T13:31:34Z</time>
      </trkpt>
      <trkpt lat="38.065729960799217" lon="-2.670522965490818">
        <ele>1635.3</ele>
        <time>2013-04-13T13:31:37Z</time>
      </trkpt>
      <trkpt lat="38.065870022401214" lon="-2.670343006029725">
        <ele>1636.3</ele>
        <time>2013-04-13T13:31:40Z</time>
      </trkpt>
      <trkpt lat="38.066004971042275" lon="-2.670145025476813">
        <ele>1636.8</ele>
        <time>2013-04-13T13:31:43Z</time>
      </trkpt>
      <trkpt lat="38.06614201515913" lon="-2.669992977753282">
        <ele>1637.4000000000001</ele>
        <time>2013-04-13T13:31:46Z</time>
      </trkpt>
      <trkpt lat="38.066362962126732" lon="-2.669985014945269">
        <ele>1637.5999999999999</ele>
        <time>2013-04-13T13:31:50Z</time>
      </trkpt>
      <trkpt lat="38.066467987373471" lon="-2.670262036845088">
        <ele>1634.0999999999999</ele>
        <time>2013-04-13T13:31:54Z</time>
      </trkpt>
      <trkpt lat="38.066454995423555" lon="-2.670552972704172">
        <ele>1631.4000000000001</ele>
        <time>2013-04-13T13:31:57Z</time>
      </trkpt>
      <trkpt lat="38.066418031230569" lon="-2.670862013474107">
        <ele>1628.5</ele>
        <time>2013-04-13T13:32:00Z</time>
      </trkpt>
      <trkpt lat="38.066372014582157" lon="-2.67119200900197">
        <ele>1625</ele>
        <time>2013-04-13T13:32:03Z</time>
      </trkpt>
      <trkpt lat="38.066339995712042" lon="-2.671417985111475">
        <ele>1622.9000000000001</ele>
        <time>2013-04-13T13:32:05Z</time>
      </trkpt>
      <trkpt lat="38.066306971013546" lon="-2.671657036989927">
        <ele>1620.9000000000001</ele>
        <time>2013-04-13T13:32:07Z</time>
      </trkpt>
      <trkpt lat="38.066277969628572" lon="-2.671898016706109">
        <ele>1618.8</ele>
        <time>2013-04-13T13:32:09Z</time>
      </trkpt>
      <trkpt lat="38.066267995163798" lon="-2.672143019735813">
        <ele>1617.0999999999999</ele>
        <time>2013-04-13T13:32:11Z</time>
      </trkpt>
      <trkpt lat="38.066260032355785" lon="-2.672388022765517">
        <ele>1615.5999999999999</ele>
        <time>2013-04-13T13:32:13Z</time>
      </trkpt>
      <trkpt lat="38.066243017092347" lon="-2.67263000831008">
        <ele>1614</ele>
        <time>2013-04-13T13:32:15Z</time>
      </trkpt>
      <trkpt lat="38.066219966858625" lon="-2.672869982197881">
        <ele>1612</ele>
        <time>2013-04-13T13:32:17Z</time>
      </trkpt>
      <trkpt lat="38.06620697490871" lon="-2.673105010762811">
        <ele>1610.2</ele>
        <time>2013-04-13T13:32:19Z</time>
      </trkpt>
      <trkpt lat="38.066300014033914" lon="-2.673386977985501">
        <ele>1608</ele>
        <time>2013-04-13T13:32:22Z</time>
      </trkpt>
      <trkpt lat="38.066503023728728" lon="-2.673476999625564">
        <ele>1607.5</ele>
        <time>2013-04-13T13:32:25Z</time>
      </trkpt>
      <trkpt lat="38.066741991788149" lon="-2.673453027382493">
        <ele>1607.0999999999999</ele>
        <time>2013-04-13T13:32:28Z</time>
      </trkpt>
      <trkpt lat="38.066977020353079" lon="-2.673482028767467">
        <ele>1606.2</ele>
        <time>2013-04-13T13:32:31Z</time>
      </trkpt>
      <trkpt lat="38.067169971764088" lon="-2.67361999489367">
        <ele>1604.8</ele>
        <time>2013-04-13T13:32:34Z</time>
      </trkpt>
      <trkpt lat="38.067341968417168" lon="-2.673858040943742">
        <ele>1602.9000000000001</ele>
        <time>2013-04-13T13:32:37Z</time>
      </trkpt>
      <trkpt lat="38.067516982555389" lon="-2.674087034538388">
        <ele>1601</ele>
        <time>2013-04-13T13:32:40Z</time>
      </trkpt>
      <trkpt lat="38.067687973380089" lon="-2.674288032576442">
        <ele>1599.8</ele>
        <time>2013-04-13T13:32:43Z</time>
      </trkpt>
      <trkpt lat="38.067837003618479" lon="-2.674490036442876">
        <ele>1599</ele>
        <time>2013-04-13T13:32:46Z</time>
      </trkpt>
      <trkpt lat="38.06796801276505" lon="-2.674730010330677">
        <ele>1597.5</ele>
        <time>2013-04-13T13:32:49Z</time>
      </trkpt>
      <trkpt lat="38.068059962242842" lon="-2.674996973946691">
        <ele>1595.5</ele>
        <time>2013-04-13T13:32:52Z</time>
      </trkpt>
      <trkpt lat="38.068166999146342" lon="-2.675256980583072">
        <ele>1594</ele>
        <time>2013-04-13T13:32:55Z</time>
      </trkpt>
      <trkpt lat="38.068347964435816" lon="-2.675450015813112">
        <ele>1593</ele>
        <time>2013-04-13T13:32:58Z</time>
      </trkpt>
      <trkpt lat="38.068577963858843" lon="-2.675541965290904">
        <ele>1592.0999999999999</ele>
        <time>2013-04-13T13:33:01Z</time>
      </trkpt>
      <trkpt lat="38.068830007687211" lon="-2.675582030788064">
        <ele>1590.7</ele>
        <time>2013-04-13T13:33:04Z</time>
      </trkpt>
      <trkpt lat="38.069029999896884" lon="-2.675682026892901">
        <ele>1589.5</ele>
        <time>2013-04-13T13:33:07Z</time>
      </trkpt>
      <trkpt lat="38.069032011553645" lon="-2.675944967195392">
        <ele>1587.3</ele>
        <time>2013-04-13T13:33:11Z</time>
      </trkpt>
      <trkpt lat="38.068926986306906" lon="-2.676217965781689">
        <ele>1586.9000000000001</ele>
        <time>2013-04-13T13:33:14Z</time>
      </trkpt>
      <trkpt lat="38.068818021565676" lon="-2.676409995183349">
        <ele>1586.5</ele>
        <time>2013-04-13T13:33:16Z</time>
      </trkpt>
      <trkpt lat="38.068707967177033" lon="-2.676596995443106">
        <ele>1585.9000000000001</ele>
        <time>2013-04-13T13:33:18Z</time>
      </trkpt>
      <trkpt lat="38.068532031029463" lon="-2.67684199847281">
        <ele>1585.2</ele>
        <time>2013-04-13T13:33:21Z</time>
      </trkpt>
      <trkpt lat="38.068343019112945" lon="-2.677067974582315">
        <ele>1585.0999999999999</ele>
        <time>2013-04-13T13:33:24Z</time>
      </trkpt>
      <trkpt lat="38.068161970004439" lon="-2.677290011197329">
        <ele>1584.0999999999999</ele>
        <time>2013-04-13T13:33:27Z</time>
      </trkpt>
      <trkpt lat="38.067982010543346" lon="-2.677522022277117">
        <ele>1582.4000000000001</ele>
        <time>2013-04-13T13:33:30Z</time>
      </trkpt>
      <trkpt lat="38.067806996405125" lon="-2.677782028913498">
        <ele>1580.0999999999999</ele>
        <time>2013-04-13T13:33:33Z</time>
      </trkpt>
      <trkpt lat="38.067712029442191" lon="-2.677987972274423">
        <ele>1579.0999999999999</ele>
        <time>2013-04-13T13:33:35Z</time>
      </trkpt>
      <trkpt lat="38.067612033337355" lon="-2.67830497585237">
        <ele>1578.9000000000001</ele>
        <time>2013-04-13T13:33:38Z</time>
      </trkpt>
      <trkpt lat="38.067483035847545" lon="-2.678570011630654">
        <ele>1578.7</ele>
        <time>2013-04-13T13:33:41Z</time>
      </trkpt>
      <trkpt lat="38.067365018650889" lon="-2.678749971091747">
        <ele>1578.2</ele>
        <time>2013-04-13T13:33:43Z</time>
      </trkpt>
      <trkpt lat="38.067235015332699" lon="-2.67892699688673">
        <ele>1576.9000000000001</ele>
        <time>2013-04-13T13:33:45Z</time>
      </trkpt>
      <trkpt lat="38.067084979265928" lon="-2.679092958569527">
        <ele>1574.5999999999999</ele>
        <time>2013-04-13T13:33:47Z</time>
      </trkpt>
      <trkpt lat="38.066914994269609" lon="-2.679327987134457">
        <ele>1571.4000000000001</ele>
        <time>2013-04-13T13:33:50Z</time>
      </trkpt>
      <trkpt lat="38.066732017323375" lon="-2.679577013477683">
        <ele>1568.0999999999999</ele>
        <time>2013-04-13T13:33:53Z</time>
      </trkpt>
      <trkpt lat="38.0666150059551" lon="-2.679753033444285">
        <ele>1567.0999999999999</ele>
        <time>2013-04-13T13:33:55Z</time>
      </trkpt>
      <trkpt lat="38.066454995423555" lon="-2.680025026202202">
        <ele>1566.0999999999999</ele>
        <time>2013-04-13T13:33:58Z</time>
      </trkpt>
      <trkpt lat="38.066312000155449" lon="-2.680297018960118">
        <ele>1565.3</ele>
        <time>2013-04-13T13:34:01Z</time>
      </trkpt>
      <trkpt lat="38.066189959645271" lon="-2.680574962869287">
        <ele>1565.2</ele>
        <time>2013-04-13T13:34:04Z</time>
      </trkpt>
      <trkpt lat="38.066072026267648" lon="-2.680851984769106">
        <ele>1564.0999999999999</ele>
        <time>2013-04-13T13:34:07Z</time>
      </trkpt>
      <trkpt lat="38.065955014899373" lon="-2.681133029982448">
        <ele>1563</ele>
        <time>2013-04-13T13:34:10Z</time>
      </trkpt>
      <trkpt lat="38.065849989652634" lon="-2.681420026347041">
        <ele>1562.7</ele>
        <time>2013-04-13T13:34:13Z</time>
      </trkpt>
      <trkpt lat="38.065761979669333" lon="-2.681695036590099">
        <ele>1561.8</ele>
        <time>2013-04-13T13:34:16Z</time>
      </trkpt>
      <trkpt lat="38.065743036568165" lon="-2.681989995762706">
        <ele>1561.3</ele>
        <time>2013-04-13T13:34:19Z</time>
      </trkpt>
      <trkpt lat="38.065827023237944" lon="-2.682207003235817">
        <ele>1561</ele>
        <time>2013-04-13T13:34:21Z</time>
      </trkpt>
      <trkpt lat="38.065942022949457" lon="-2.682414958253503">
        <ele>1560.4000000000001</ele>
        <time>2013-04-13T13:34:23Z</time>
      </trkpt>
      <trkpt lat="38.066068002954125" lon="-2.682606987655163">
        <ele>1559.8</ele>
        <time>2013-04-13T13:34:25Z</time>
      </trkpt>
      <trkpt lat="38.066167999058962" lon="-2.682804968208075">
        <ele>1559.4000000000001</ele>
        <time>2013-04-13T13:34:27Z</time>
      </trkpt>
      <trkpt lat="38.066245028749108" lon="-2.683018036186695">
        <ele>1558.8</ele>
        <time>2013-04-13T13:34:29Z</time>
      </trkpt>
      <trkpt lat="38.066349970176816" lon="-2.683315007016063">
        <ele>1557.8</ele>
        <time>2013-04-13T13:34:32Z</time>
      </trkpt>
      <trkpt lat="38.066418031230569" lon="-2.683626981452107">
        <ele>1557.5</ele>
        <time>2013-04-13T13:34:35Z</time>
      </trkpt>
      <trkpt lat="38.066434962674975" lon="-2.683939961716533">
        <ele>1557</ele>
        <time>2013-04-13T13:34:38Z</time>
      </trkpt>
      <trkpt lat="38.066479973495007" lon="-2.684222012758255">
        <ele>1556.7</ele>
        <time>2013-04-13T13:34:41Z</time>
      </trkpt>
      <trkpt lat="38.066606959328055" lon="-2.684427034109831">
        <ele>1556.7</ele>
        <time>2013-04-13T13:34:44Z</time>
      </trkpt>
      <trkpt lat="38.066750038415194" lon="-2.684567011892796">
        <ele>1555.7</ele>
        <time>2013-04-13T13:34:47Z</time>
      </trkpt>
      <trkpt lat="38.066929997876287" lon="-2.684631971642375">
        <ele>1553</ele>
        <time>2013-04-13T13:34:53Z</time>
      </trkpt>
      <trkpt lat="38.067105012014508" lon="-2.684532981365919">
        <ele>1553.0999999999999</ele>
        <time>2013-04-13T13:35:01Z</time>
      </trkpt>
      <trkpt lat="38.067277008667588" lon="-2.684461986646056">
        <ele>1552.0999999999999</ele>
        <time>2013-04-13T13:35:08Z</time>
      </trkpt>
      <trkpt lat="38.067461997270584" lon="-2.684655021876097">
        <ele>1551.7</ele>
        <time>2013-04-13T13:35:13Z</time>
      </trkpt>
      <trkpt lat="38.067607004195452" lon="-2.684846967458725">
        <ele>1551.9000000000001</ele>
        <time>2013-04-13T13:35:16Z</time>
      </trkpt>
      <trkpt lat="38.067822000011802" lon="-2.68500798381865">
        <ele>1552.3</ele>
        <time>2013-04-13T13:35:19Z</time>
      </trkpt>
      <trkpt lat="38.068044958636165" lon="-2.685119966045022">
        <ele>1552</ele>
        <time>2013-04-13T13:35:22Z</time>
      </trkpt>
      <trkpt lat="38.068264983594418" lon="-2.685198001563549">
        <ele>1551</ele>
        <time>2013-04-13T13:35:25Z</time>
      </trkpt>
      <trkpt lat="38.068449972197413" lon="-2.685276959091425">
        <ele>1550.0999999999999</ele>
        <time>2013-04-13T13:35:28Z</time>
      </trkpt>
      <trkpt lat="38.068669997155666" lon="-2.685309983789921">
        <ele>1548.5</ele>
        <time>2013-04-13T13:35:32Z</time>
      </trkpt>
      <trkpt lat="38.068858003243804" lon="-2.685222979635">
        <ele>1548.5999999999999</ele>
        <time>2013-04-13T13:35:35Z</time>
      </trkpt>
      <trkpt lat="38.069057995453477" lon="-2.685075039044023">
        <ele>1549.5</ele>
        <time>2013-04-13T13:35:38Z</time>
      </trkpt>
      <trkpt lat="38.069239966571331" lon="-2.684902958571911">
        <ele>1550.2</ele>
        <time>2013-04-13T13:35:41Z</time>
      </trkpt>
      <trkpt lat="38.069417998194695" lon="-2.68472702242434">
        <ele>1550.3</ele>
        <time>2013-04-13T13:35:44Z</time>
      </trkpt>
      <trkpt lat="38.069587983191013" lon="-2.684542033821344">
        <ele>1550.0999999999999</ele>
        <time>2013-04-13T13:35:47Z</time>
      </trkpt>
      <trkpt lat="38.069755034521222" lon="-2.684317985549569">
        <ele>1550</ele>
        <time>2013-04-13T13:35:50Z</time>
      </trkpt>
      <trkpt lat="38.069876991212368" lon="-2.684122016653419">
        <ele>1548.5</ele>
        <time>2013-04-13T13:35:53Z</time>
      </trkpt>
      <trkpt lat="38.070043036714196" lon="-2.683941973373294">
        <ele>1546.4000000000001</ele>
        <time>2013-04-13T13:35:58Z</time>
      </trkpt>
      <trkpt lat="38.070234982296824" lon="-2.683762013912201">
        <ele>1547.2</ele>
        <time>2013-04-13T13:36:01Z</time>
      </trkpt>
      <trkpt lat="38.070385018363595" lon="-2.68360803835094">
        <ele>1547.9000000000001</ele>
        <time>2013-04-13T13:36:03Z</time>
      </trkpt>
      <trkpt lat="38.070532036945224" lon="-2.683426989242435">
        <ele>1548.7</ele>
        <time>2013-04-13T13:36:05Z</time>
      </trkpt>
      <trkpt lat="38.070660028606653" lon="-2.683226997032762">
        <ele>1549.2</ele>
        <time>2013-04-13T13:36:07Z</time>
      </trkpt>
      <trkpt lat="38.070802018046379" lon="-2.682964978739619">
        <ele>1549.5</ele>
        <time>2013-04-13T13:36:10Z</time>
      </trkpt>
      <trkpt lat="38.070947024971247" lon="-2.682803040370345">
        <ele>1549.5</ele>
        <time>2013-04-13T13:36:12Z</time>
      </trkpt>
      <trkpt lat="38.071103012189269" lon="-2.682628026232123">
        <ele>1549.5</ele>
        <time>2013-04-13T13:36:14Z</time>
      </trkpt>
      <trkpt lat="38.071260005235672" lon="-2.68247296102345">
        <ele>1549.5</ele>
        <time>2013-04-13T13:36:16Z</time>
      </trkpt>
      <trkpt lat="38.071438036859035" lon="-2.682271962985396">
        <ele>1550.5999999999999</ele>
        <time>2013-04-13T13:36:19Z</time>
      </trkpt>
      <trkpt lat="38.071590000763535" lon="-2.682087980210781">
        <ele>1551.7</ele>
        <time>2013-04-13T13:36:22Z</time>
      </trkpt>
      <trkpt lat="38.071740036830306" lon="-2.681914977729321">
        <ele>1552.5999999999999</ele>
        <time>2013-04-13T13:36:25Z</time>
      </trkpt>
      <trkpt lat="38.071937011554837" lon="-2.681705011054874">
        <ele>1552.8</ele>
        <time>2013-04-13T13:36:28Z</time>
      </trkpt>
      <trkpt lat="38.072102973237634" lon="-2.681556986644864">
        <ele>1552.9000000000001</ele>
        <time>2013-04-13T13:36:31Z</time>
      </trkpt>
      <trkpt lat="38.07230799458921" lon="-2.681411979719997">
        <ele>1553.0999999999999</ele>
        <time>2013-04-13T13:36:34Z</time>
      </trkpt>
      <trkpt lat="38.072545034810901" lon="-2.681307038292289">
        <ele>1552.5999999999999</ele>
        <time>2013-04-13T13:36:37Z</time>
      </trkpt>
      <trkpt lat="38.072790037840605" lon="-2.681272001937032">
        <ele>1551.2</ele>
        <time>2013-04-13T13:36:40Z</time>
      </trkpt>
      <trkpt lat="38.072981983423233" lon="-2.681381972506642">
        <ele>1548.8</ele>
        <time>2013-04-13T13:36:43Z</time>
      </trkpt>
      <trkpt lat="38.073073010891676" lon="-2.681595040485263">
        <ele>1545.4000000000001</ele>
        <time>2013-04-13T13:36:54Z</time>
      </trkpt>
      <trkpt lat="38.073150040581822" lon="-2.681871978566051">
        <ele>1544.0999999999999</ele>
        <time>2013-04-13T13:37:01Z</time>
      </trkpt>
      <trkpt lat="38.07306001894176" lon="-2.682142965495586">
        <ele>1541.5999999999999</ele>
        <time>2013-04-13T13:37:05Z</time>
      </trkpt>
      <trkpt lat="38.072939990088344" lon="-2.682325020432472">
        <ele>1540.4000000000001</ele>
        <time>2013-04-13T13:37:07Z</time>
      </trkpt>
      <trkpt lat="38.072819961234927" lon="-2.682506991550326">
        <ele>1539.5999999999999</ele>
        <time>2013-04-13T13:37:09Z</time>
      </trkpt>
      <trkpt lat="38.072707979008555" lon="-2.682688040658832">
        <ele>1539.3</ele>
        <time>2013-04-13T13:37:11Z</time>
      </trkpt>
      <trkpt lat="38.072602031752467" lon="-2.682873029261828">
        <ele>1539.4000000000001</ele>
        <time>2013-04-13T13:37:13Z</time>
      </trkpt>
      <trkpt lat="38.072477979585528" lon="-2.683047959581018">
        <ele>1539.5999999999999</ele>
        <time>2013-04-13T13:37:15Z</time>
      </trkpt>
      <trkpt lat="38.072357028722763" lon="-2.683224985376">
        <ele>1539.9000000000001</ele>
        <time>2013-04-13T13:37:17Z</time>
      </trkpt>
      <trkpt lat="38.072238005697727" lon="-2.683397987857461">
        <ele>1539.5999999999999</ele>
        <time>2013-04-13T13:37:20Z</time>
      </trkpt>
      <trkpt lat="38.072104984894395" lon="-2.683573001995683">
        <ele>1539.2</ele>
        <time>2013-04-13T13:37:25Z</time>
      </trkpt>
      <trkpt lat="38.071957966312766" lon="-2.683795038610697">
        <ele>1539</ele>
        <time>2013-04-13T13:37:30Z</time>
      </trkpt>
      <trkpt lat="38.071799967437983" lon="-2.68403802998364">
        <ele>1538.5</ele>
        <time>2013-04-13T13:37:33Z</time>
      </trkpt>
      <trkpt lat="38.071631994098425" lon="-2.684284960851073">
        <ele>1538.5</ele>
        <time>2013-04-13T13:37:36Z</time>
      </trkpt>
      <trkpt lat="38.071487993001938" lon="-2.68444798886776">
        <ele>1538.0999999999999</ele>
        <time>2013-04-13T13:37:39Z</time>
      </trkpt>
      <trkpt lat="38.071344997733831" lon="-2.684691986069083">
        <ele>1537.3</ele>
        <time>2013-04-13T13:37:42Z</time>
      </trkpt>
      <trkpt lat="38.071260005235672" lon="-2.684892984107137">
        <ele>1536.5</ele>
        <time>2013-04-13T13:37:44Z</time>
      </trkpt>
      <trkpt lat="38.071186998859048" lon="-2.685119966045022">
        <ele>1535.5</ele>
        <time>2013-04-13T13:37:46Z</time>
      </trkpt>
      <trkpt lat="38.071114998310804" lon="-2.685340996831656">
        <ele>1534.4000000000001</ele>
        <time>2013-04-13T13:37:48Z</time>
      </trkpt>
      <trkpt lat="38.071037968620658" lon="-2.685648025944829">
        <ele>1533.5999999999999</ele>
        <time>2013-04-13T13:37:51Z</time>
      </trkpt>
      <trkpt lat="38.071051966398954" lon="-2.685917001217604">
        <ele>1533.8</ele>
        <time>2013-04-13T13:37:54Z</time>
      </trkpt>
      <trkpt lat="38.071112986654043" lon="-2.686197040602565">
        <ele>1535.2</ele>
        <time>2013-04-13T13:37:57Z</time>
      </trkpt>
      <trkpt lat="38.071217006072402" lon="-2.686461992561817">
        <ele>1536.5999999999999</ele>
        <time>2013-04-13T13:38:01Z</time>
      </trkpt>
      <trkpt lat="38.071348015218973" lon="-2.686680005863309">
        <ele>1537.5</ele>
        <time>2013-04-13T13:38:04Z</time>
      </trkpt>
      <trkpt lat="38.071463014930487" lon="-2.686891984194517">
        <ele>1538.7</ele>
        <time>2013-04-13T13:38:08Z</time>
      </trkpt>
      <trkpt lat="38.07155697606504" lon="-2.687100023031235">
        <ele>1540</ele>
        <time>2013-04-13T13:38:14Z</time>
      </trkpt>
      <trkpt lat="38.071697959676385" lon="-2.687294986099005">
        <ele>1541.0999999999999</ele>
        <time>2013-04-13T13:38:19Z</time>
      </trkpt>
      <trkpt lat="38.071804996579885" lon="-2.687502019107342">
        <ele>1541.5</ele>
        <time>2013-04-13T13:38:22Z</time>
      </trkpt>
      <trkpt lat="38.071937011554837" lon="-2.687692036852241">
        <ele>1541.5</ele>
        <time>2013-04-13T13:38:25Z</time>
      </trkpt>
      <trkpt lat="38.072100039571524" lon="-2.687841989099979">
        <ele>1540.8</ele>
        <time>2013-04-13T13:38:29Z</time>
      </trkpt>
      <trkpt lat="38.072289973497391" lon="-2.688022032380104">
        <ele>1539.9000000000001</ele>
        <time>2013-04-13T13:38:33Z</time>
      </trkpt>
      <trkpt lat="38.072453001514077" lon="-2.688222024589777">
        <ele>1539</ele>
        <time>2013-04-13T13:38:36Z</time>
      </trkpt>
      <trkpt lat="38.0725899618119" lon="-2.688374994322658">
        <ele>1538.4000000000001</ele>
        <time>2013-04-13T13:38:38Z</time>
      </trkpt>
      <trkpt lat="38.072806969285011" lon="-2.688580015674233">
        <ele>1537.5</ele>
        <time>2013-04-13T13:38:41Z</time>
      </trkpt>
      <trkpt lat="38.072990030050278" lon="-2.688757041469216">
        <ele>1536.5999999999999</ele>
        <time>2013-04-13T13:38:44Z</time>
      </trkpt>
      <trkpt lat="38.073212988674641" lon="-2.688955022022128">
        <ele>1535.8</ele>
        <time>2013-04-13T13:38:47Z</time>
      </trkpt>
      <trkpt lat="38.073392026126385" lon="-2.689077984541655">
        <ele>1535.3</ele>
        <time>2013-04-13T13:38:49Z</time>
      </trkpt>
      <trkpt lat="38.073554970324039" lon="-2.689245035871863">
        <ele>1534.9000000000001</ele>
        <time>2013-04-13T13:38:51Z</time>
      </trkpt>
      <trkpt lat="38.073702994734049" lon="-2.689379984512925">
        <ele>1534.4000000000001</ele>
        <time>2013-04-13T13:38:53Z</time>
      </trkpt>
      <trkpt lat="38.07385697029531" lon="-2.689591962844133">
        <ele>1533</ele>
        <time>2013-04-13T13:38:56Z</time>
      </trkpt>
      <trkpt lat="38.074002983048558" lon="-2.68973202444613">
        <ele>1531.5999999999999</ele>
        <time>2013-04-13T13:38:59Z</time>
      </trkpt>
      <trkpt lat="38.074150001630187" lon="-2.689922964200378">
        <ele>1529.5</ele>
        <time>2013-04-13T13:39:03Z</time>
      </trkpt>
      <trkpt lat="38.074323004111648" lon="-2.690132008865476">
        <ele>1528</ele>
        <time>2013-04-13T13:39:06Z</time>
      </trkpt>
      <trkpt lat="38.074472034350038" lon="-2.690310040488839">
        <ele>1526.8</ele>
        <time>2013-04-13T13:39:09Z</time>
      </trkpt>
      <trkpt lat="38.07458502240479" lon="-2.690487988293171">
        <ele>1525.2</ele>
        <time>2013-04-13T13:39:12Z</time>
      </trkpt>
      <trkpt lat="38.074692981317639" lon="-2.690697032958269">
        <ele>1524.2</ele>
        <time>2013-04-13T13:39:15Z</time>
      </trkpt>
      <trkpt lat="38.07484301738441" lon="-2.690880009904504">
        <ele>1524.3</ele>
        <time>2013-04-13T13:39:18Z</time>
      </trkpt>
      <trkpt lat="38.075082991272211" lon="-2.690995009616017">
        <ele>1525.2</ele>
        <time>2013-04-13T13:39:21Z</time>
      </trkpt>
      <trkpt lat="38.075327994301915" lon="-2.691121995449066">
        <ele>1526.2</ele>
        <time>2013-04-13T13:39:24Z</time>
      </trkpt>
      <trkpt lat="38.075542990118265" lon="-2.69130002707243">
        <ele>1527.3</ele>
        <time>2013-04-13T13:39:27Z</time>
      </trkpt>
      <trkpt lat="38.075686991214752" lon="-2.691445033997297">
        <ele>1528</ele>
        <time>2013-04-13T13:39:29Z</time>
      </trkpt>
      <trkpt lat="38.075833003968" lon="-2.69162499345839">
        <ele>1528.7</ele>
        <time>2013-04-13T13:39:31Z</time>
      </trkpt>
      <trkpt lat="38.075969964265823" lon="-2.691836971789599">
        <ele>1529.2</ele>
        <time>2013-04-13T13:39:33Z</time>
      </trkpt>
      <trkpt lat="38.07606803253293" lon="-2.692092033103108">
        <ele>1529.7</ele>
        <time>2013-04-13T13:39:35Z</time>
      </trkpt>
      <trkpt lat="38.076150007545948" lon="-2.692350028082728">
        <ele>1530</ele>
        <time>2013-04-13T13:39:37Z</time>
      </trkpt>
      <trkpt lat="38.0762629956007" lon="-2.692582039162517">
        <ele>1530.3</ele>
        <time>2013-04-13T13:39:39Z</time>
      </trkpt>
      <trkpt lat="38.076402973383665" lon="-2.692792005836964">
        <ele>1530.3</ele>
        <time>2013-04-13T13:39:41Z</time>
      </trkpt>
      <trkpt lat="38.076568013057113" lon="-2.692986968904734">
        <ele>1530.5</ele>
        <time>2013-04-13T13:39:43Z</time>
      </trkpt>
      <trkpt lat="38.076732968911529" lon="-2.69314999692142">
        <ele>1530.3</ele>
        <time>2013-04-13T13:39:45Z</time>
      </trkpt>
      <trkpt lat="38.076918041333556" lon="-2.693291986361146">
        <ele>1530</ele>
        <time>2013-04-13T13:39:47Z</time>
      </trkpt>
      <trkpt lat="38.077109986916184" lon="-2.693412015214562">
        <ele>1529.3</ele>
        <time>2013-04-13T13:39:49Z</time>
      </trkpt>
      <trkpt lat="38.07729204185307" lon="-2.693507988005877">
        <ele>1528.3</ele>
        <time>2013-04-13T13:39:51Z</time>
      </trkpt>
      <trkpt lat="38.077502008527517" lon="-2.693577976897359">
        <ele>1526.3</ele>
        <time>2013-04-13T13:39:53Z</time>
      </trkpt>
      <trkpt lat="38.077707029879093" lon="-2.693632962182164">
        <ele>1524.3</ele>
        <time>2013-04-13T13:39:55Z</time>
      </trkpt>
      <trkpt lat="38.077907022088766" lon="-2.693661963567138">
        <ele>1522.2</ele>
        <time>2013-04-13T13:39:57Z</time>
      </trkpt>
      <trkpt lat="38.07810802012682" lon="-2.693700017407537">
        <ele>1520.2</ele>
        <time>2013-04-13T13:39:59Z</time>
      </trkpt>
      <trkpt lat="38.078307006508112" lon="-2.693737987428904">
        <ele>1518.4000000000001</ele>
        <time>2013-04-13T13:40:01Z</time>
      </trkpt>
      <trkpt lat="38.078500041738153" lon="-2.693802025169134">
        <ele>1516.4000000000001</ele>
        <time>2013-04-13T13:40:03Z</time>
      </trkpt>
      <trkpt lat="38.078676983714104" lon="-2.693913001567125">
        <ele>1514.5</ele>
        <time>2013-04-13T13:40:05Z</time>
      </trkpt>
      <trkpt lat="38.078843029215932" lon="-2.694054991006851">
        <ele>1512</ele>
        <time>2013-04-13T13:40:07Z</time>
      </trkpt>
      <trkpt lat="38.078970015048981" lon="-2.694266969338059">
        <ele>1509.5</ele>
        <time>2013-04-13T13:40:09Z</time>
      </trkpt>
      <trkpt lat="38.079070011153817" lon="-2.694509960711002">
        <ele>1507.2</ele>
        <time>2013-04-13T13:40:11Z</time>
      </trkpt>
      <trkpt lat="38.0791400000453" lon="-2.694780025631189">
        <ele>1505.0999999999999</ele>
        <time>2013-04-13T13:40:13Z</time>
      </trkpt>
      <trkpt lat="38.079190040007234" lon="-2.695038020610809">
        <ele>1503.2</ele>
        <time>2013-04-13T13:40:15Z</time>
      </trkpt>
      <trkpt lat="38.079237984493375" lon="-2.695262990891933">
        <ele>1501.3</ele>
        <time>2013-04-13T13:40:17Z</time>
      </trkpt>
      <trkpt lat="38.079367987811565" lon="-2.695538001134992">
        <ele>1499.4000000000001</ele>
        <time>2013-04-13T13:40:20Z</time>
      </trkpt>
      <trkpt lat="38.07950695976615" lon="-2.695715026929975">
        <ele>1498.2</ele>
        <time>2013-04-13T13:40:22Z</time>
      </trkpt>
      <trkpt lat="38.079667976126075" lon="-2.695864979177713">
        <ele>1496.9000000000001</ele>
        <time>2013-04-13T13:40:24Z</time>
      </trkpt>
      <trkpt lat="38.079812983050942" lon="-2.69600797444582">
        <ele>1495.7</ele>
        <time>2013-04-13T13:40:26Z</time>
      </trkpt>
      <trkpt lat="38.080029990524054" lon="-2.696194974705577">
        <ele>1494.2</ele>
        <time>2013-04-13T13:40:29Z</time>
      </trkpt>
      <trkpt lat="38.080238029360771" lon="-2.696362026035786">
        <ele>1492.5999999999999</ele>
        <time>2013-04-13T13:40:32Z</time>
      </trkpt>
      <trkpt lat="38.080432992428541" lon="-2.696547014638782">
        <ele>1490.0999999999999</ele>
        <time>2013-04-13T13:40:35Z</time>
      </trkpt>
      <trkpt lat="38.080614963546395" lon="-2.696733009070158">
        <ele>1487.5</ele>
        <time>2013-04-13T13:40:38Z</time>
      </trkpt>
      <trkpt lat="38.08079500682652" lon="-2.696978012099862">
        <ele>1484.9000000000001</ele>
        <time>2013-04-13T13:40:41Z</time>
      </trkpt>
      <trkpt lat="38.080916963517666" lon="-2.69718999043107">
        <ele>1483.4000000000001</ele>
        <time>2013-04-13T13:40:43Z</time>
      </trkpt>
      <trkpt lat="38.081025006249547" lon="-2.697389982640743">
        <ele>1482.3</ele>
        <time>2013-04-13T13:40:45Z</time>
      </trkpt>
      <trkpt lat="38.081112010404468" lon="-2.697589974850416">
        <ele>1481.0999999999999</ele>
        <time>2013-04-13T13:40:47Z</time>
      </trkpt>
      <trkpt lat="38.081240002065897" lon="-2.697858028113842">
        <ele>1479.0999999999999</ele>
        <time>2013-04-13T13:40:50Z</time>
      </trkpt>
      <trkpt lat="38.08141803368926" lon="-2.698019966483116">
        <ele>1477.7</ele>
        <time>2013-04-13T13:40:53Z</time>
      </trkpt>
      <trkpt lat="38.081635041162372" lon="-2.698127003386617">
        <ele>1475.9000000000001</ele>
        <time>2013-04-13T13:40:57Z</time>
      </trkpt>
      <trkpt lat="38.081830004230142" lon="-2.698248038068414">
        <ele>1474.5999999999999</ele>
        <time>2013-04-13T13:41:00Z</time>
      </trkpt>
      <trkpt lat="38.08206302113831" lon="-2.698379969224334">
        <ele>1473.3</ele>
        <time>2013-04-13T13:41:03Z</time>
      </trkpt>
      <trkpt lat="38.082248009741306" lon="-2.698426991701126">
        <ele>1472.3</ele>
        <time>2013-04-13T13:41:05Z</time>
      </trkpt>
      <trkpt lat="38.082516985014081" lon="-2.698458004742861">
        <ele>1471.4000000000001</ele>
        <time>2013-04-13T13:41:08Z</time>
      </trkpt>
      <trkpt lat="38.08277296833694" lon="-2.698497986420989">
        <ele>1471.4000000000001</ele>
        <time>2013-04-13T13:41:11Z</time>
      </trkpt>
      <trkpt lat="38.083019983023405" lon="-2.698565041646361">
        <ele>1470.9000000000001</ele>
        <time>2013-04-13T13:41:14Z</time>
      </trkpt>
      <trkpt lat="38.083242019638419" lon="-2.698711976408958">
        <ele>1469.9000000000001</ele>
        <time>2013-04-13T13:41:17Z</time>
      </trkpt>
      <trkpt lat="38.083375040441751" lon="-2.698867041617632">
        <ele>1469.5999999999999</ele>
        <time>2013-04-13T13:41:19Z</time>
      </trkpt>
      <trkpt lat="38.083496997132897" lon="-2.69905798137188">
        <ele>1469</ele>
        <time>2013-04-13T13:41:21Z</time>
      </trkpt>
      <trkpt lat="38.083628006279469" lon="-2.69922997802496">
        <ele>1468.4000000000001</ele>
        <time>2013-04-13T13:41:23Z</time>
      </trkpt>
      <trkpt lat="38.083809977397323" lon="-2.699431981891394">
        <ele>1467.5</ele>
        <time>2013-04-13T13:41:26Z</time>
      </trkpt>
      <trkpt lat="38.084052968770266" lon="-2.699489984661341">
        <ele>1466.8</ele>
        <time>2013-04-13T13:41:29Z</time>
      </trkpt>
      <trkpt lat="38.084257990121841" lon="-2.699483027681708">
        <ele>1464.9000000000001</ele>
        <time>2013-04-13T13:41:32Z</time>
      </trkpt>
      <trkpt lat="38.084453037008643" lon="-2.699493002146483">
        <ele>1462.5999999999999</ele>
        <time>2013-04-13T13:41:36Z</time>
      </trkpt>
      <trkpt lat="38.084669960662723" lon="-2.699572965502739">
        <ele>1461.7</ele>
        <time>2013-04-13T13:41:40Z</time>
      </trkpt>
      <trkpt lat="38.084872970357537" lon="-2.699725013226271">
        <ele>1460.9000000000001</ele>
        <time>2013-04-13T13:41:44Z</time>
      </trkpt>
      <trkpt lat="38.085057958960533" lon="-2.699882006272674">
        <ele>1459.9000000000001</ele>
        <time>2013-04-13T13:41:47Z</time>
      </trkpt>
      <trkpt lat="38.085206989198923" lon="-2.700013015419245">
        <ele>1458.9000000000001</ele>
        <time>2013-04-13T13:41:49Z</time>
      </trkpt>
      <trkpt lat="38.085398012772202" lon="-2.700192974880338">
        <ele>1456.5999999999999</ele>
        <time>2013-04-13T13:41:52Z</time>
      </trkpt>
      <trkpt lat="38.085515024140477" lon="-2.70041199401021">
        <ele>1453.7</ele>
        <time>2013-04-13T13:41:55Z</time>
      </trkpt>
      <trkpt lat="38.085609991103411" lon="-2.700679963454604">
        <ele>1450.4000000000001</ele>
        <time>2013-04-13T13:41:59Z</time>
      </trkpt>
      <trkpt lat="38.085666988044977" lon="-2.700909962877631">
        <ele>1448</ele>
        <time>2013-04-13T13:42:02Z</time>
      </trkpt>
      <trkpt lat="38.085787016898394" lon="-2.701150020584464">
        <ele>1445.5</ele>
        <time>2013-04-13T13:42:05Z</time>
      </trkpt>
      <trkpt lat="38.085984997451305" lon="-2.701369961723685">
        <ele>1443.0999999999999</ele>
        <time>2013-04-13T13:42:08Z</time>
      </trkpt>
      <trkpt lat="38.086203010752797" lon="-2.701519997790456">
        <ele>1440.5</ele>
        <time>2013-04-13T13:42:11Z</time>
      </trkpt>
      <trkpt lat="38.086418006569147" lon="-2.701457971706986">
        <ele>1437.2</ele>
        <time>2013-04-13T13:42:15Z</time>
      </trkpt>
      <trkpt lat="38.086582040414214" lon="-2.701353030279279">
        <ele>1435.0999999999999</ele>
        <time>2013-04-13T13:42:18Z</time>
      </trkpt>
      <trkpt lat="38.086814973503351" lon="-2.701317993924022">
        <ele>1430.9000000000001</ele>
        <time>2013-04-13T13:42:22Z</time>
      </trkpt>
      <trkpt lat="38.087001973763108" lon="-2.701283041387796">
        <ele>1427.2</ele>
        <time>2013-04-13T13:42:25Z</time>
      </trkpt>
      <trkpt lat="38.087238008156419" lon="-2.701229983940721">
        <ele>1424</ele>
        <time>2013-04-13T13:42:28Z</time>
      </trkpt>
      <trkpt lat="38.087485022842884" lon="-2.701159995049238">
        <ele>1421.5999999999999</ele>
        <time>2013-04-13T13:42:31Z</time>
      </trkpt>
      <trkpt lat="38.087691972032189" lon="-2.701192013919354">
        <ele>1419.9000000000001</ele>
        <time>2013-04-13T13:42:35Z</time>
      </trkpt>
      <trkpt lat="38.087817030027509" lon="-2.701374990865588">
        <ele>1418.9000000000001</ele>
        <time>2013-04-13T13:42:38Z</time>
      </trkpt>
      <trkpt lat="38.088006963953376" lon="-2.701607001945376">
        <ele>1417.5999999999999</ele>
        <time>2013-04-13T13:42:41Z</time>
      </trkpt>
      <trkpt lat="38.088151970878243" lon="-2.701783021911979">
        <ele>1416.4000000000001</ele>
        <time>2013-04-13T13:42:43Z</time>
      </trkpt>
      <trkpt lat="38.088341988623142" lon="-2.701976979151368">
        <ele>1414.4000000000001</ele>
        <time>2013-04-13T13:42:46Z</time>
      </trkpt>
      <trkpt lat="38.088836437091231" lon="-2.702282499521971">
        <ele>1466.49609375</ele>
      </trkpt>
      <trkpt lat="38.089411351829767" lon="-2.702404204756022">
        <ele>1468.1484375</ele>
      </trkpt>
      <trkpt lat="38.08958200737834" lon="-2.702337820082903">
        <ele>1467.578125</ele>
      </trkpt>
      <trkpt lat="38.089716788381338" lon="-2.702083345502615">
        <ele>1461.40625</ele>
      </trkpt>
      <trkpt lat="38.090067151933908" lon="-2.701762486249209">
        <ele>1458.98046875</ele>
      </trkpt>
      <trkpt lat="38.090579202398658" lon="-2.700689183548093">
        <ele>1443.33203125</ele>
      </trkpt>
      <trkpt lat="38.090731920674443" lon="-2.700567478314042">
        <ele>1438.46875</ele>
      </trkpt>
      <trkpt lat="38.091019336134195" lon="-2.700478965416551">
        <ele>1434.609375</ele>
      </trkpt>
      <trkpt lat="38.09121698141098" lon="-2.700490029528737">
        <ele>1433.12890625</ele>
      </trkpt>
      <trkpt lat="38.091675136238337" lon="-2.700700331479311">
        <ele>1433.41796875</ele>
      </trkpt>
      <trkpt lat="38.091881750151515" lon="-2.700943741947413">
        <ele>1434.81640625</ele>
      </trkpt>
      <trkpt lat="38.091935645788908" lon="-2.701054383069277">
        <ele>1435.56640625</ele>
      </trkpt>
      <trkpt lat="38.092106301337481" lon="-2.701109703630209">
        <ele>1430.4453125</ele>
      </trkpt>
      <trkpt lat="38.092142259702086" lon="-2.70107651129365">
        <ele>1428.85546875</ele>
      </trkpt>
      <trkpt lat="38.092106301337481" lon="-2.700755652040243">
        <ele>1423.26171875</ele>
      </trkpt>
      <trkpt lat="38.091890718787909" lon="-2.700467985123396">
        <ele>1421.9609375</ele>
      </trkpt>
      <trkpt lat="38.091369699686766" lon="-2.700025420635939">
        <ele>1419.83984375</ele>
      </trkpt>
    </trkseg>
  </trk>

</gpx>